[[{"header":{"parameterUnit":"m.s-1","parameterCategory":1,"la1":30.6,"la2":29.2853,"lo1":-89.7004,"lo2":-87.6739,"dy":0.0162,"dx":0.0183,"nx":112,"ny":82,"refTime":"2026-04-24T12:00:00:Z","depth":0,"parameterNumber":2,"parameterNumberName":"U-component_of_WINDS"},"data":[0.0,0.0,0.0,0.0,0.0,0.0,0.0,0.0,0.0,0.0,0.0,0.0,0.0,0.0,0.0,0.0,0.0,0.0,0.0,0.0,0.0,0.0,0.0,0.0,0.0,0.0,0.0,0.0,0.0,0.0,0.0,0.0,0.0,0.0,0.0,0.0,0.0,0.0,0.0,0.0,0.0,0.0,0.0,0.0,0.0,0.0,0.0,0.0,0.0,0.0,0.0,0.0,0.0,0.0,0.0,0.0,0.0,0.0,0.0,0.0,0.0,0.0,0.0,0.0,0.0,0.0,0.0,0.0,0.0,0.0,0.0,0.0,0.0,0.0,0.0,0.0,0.0,0.0,0.0,0.0,0.0,0.0,0.0,0.0,0.0,0.0,0.0,0.0,0.0,0.0,-1.0171,-1.1922,-1.3822,-1.4451,-1.3208,-1.3525,-1.2721,-1.0204,0.0,0.0,0.0,0.0,0.0,0.0,0.0,0.0,0.0,0.0,0.0,0.0,0.0,0.0,0.0,0.0,0.0,0.0,0.0,0.0,0.0,0.0,0.0,0.0,0.0,0.0,0.0,0.0,0.0,0.0,0.0,0.0,0.0,0.0,0.0,0.0,0.0,0.0,0.0,0.0,0.0,0.0,0.0,0.0,0.0,0.0,0.0,0.0,0.0,0.0,0.0,0.0,0.0,0.0,0.0,0.0,0.0,0.0,0.0,0.0,0.0,0.0,0.0,0.0,0.0,0.0,0.0,0.0,0.0,0.0,0.0,0.0,0.0,0.0,0.0,0.0,0.0,0.0,0.0,0.0,0.0,0.0,0.0,0.0,0.0,0.0,0.0,0.0,0.0,0.0,0.0,0.0,0.0,0.0,0.0,0.0,0.0,0.0,0.0,0.0,0.0,0.0,0.0,0.0,-1.0531,-1.3205,-1.4796,-1.5349,-1.4571,-1.4079,-1.29,-1.0807,0.0,0.0,0.0,0.0,0.0,0.0,0.0,0.0,0.0,0.0,0.0,0.0,0.0,0.0,0.0,0.0,0.0,0.0,0.0,0.0,0.0,0.0,0.0,0.0,0.0,0.0,0.0,0.0,0.0,0.0,0.0,0.0,0.0,0.0,0.0,0.0,0.0,0.0,0.0,0.0,0.0,0.0,0.0,0.0,0.0,0.0,0.0,0.0,0.0,0.0,0.0,0.0,0.0,0.0,0.0,0.0,0.0,0.0,0.0,0.0,0.0,0.0,0.0,0.0,0.0,0.0,0.0,0.0,0.0,0.0,0.0,0.0,0.0,0.0,0.0,0.0,0.0,0.0,0.0,0.0,0.0,0.0,0.0,0.0,0.0,0.0,0.0,0.0,0.0,0.0,0.0,0.0,0.0,0.0,0.0,0.0,0.0,0.0,0.0,0.0,0.0,0.0,0.0,-1.0563,-1.247,-1.4156,-1.5215,-1.538,-1.4348,-1.3989,-1.2796,-1.0464,-0.9075,0.0,0.0,0.0,0.0,0.0,0.0,0.0,0.0,0.0,0.0,0.0,0.0,0.0,0.0,0.0,0.0,0.0,0.0,0.0,0.0,0.0,0.0,0.0,0.0,0.0,0.0,0.0,0.0,0.0,0.0,0.0,0.0,0.0,0.0,0.0,0.0,0.0,0.0,0.0,0.0,0.0,0.0,0.0,0.0,0.0,0.0,0.0,0.0,0.0,0.0,0.0,0.0,0.0,0.0,0.0,0.0,0.0,0.0,0.0,0.0,0.0,0.0,0.0,0.0,0.0,0.0,0.0,0.0,0.0,0.0,0.0,0.0,0.0,0.0,0.0,0.0,0.0,0.0,0.0,0.0,0.0,0.0,0.0,0.0,0.0,0.0,0.0,0.0,0.0,0.0,0.0,0.0,0.0,0.0,0.0,0.0,0.0,0.0,0.0,0.0,0.0,0.0,-1.2479,-1.4064,-1.4736,-1.5395,-1.532,-1.4139,-1.375,-1.2583,-1.0264,-0.8581,0.0,0.0,0.0,0.0,0.0,0.0,0.0,0.0,0.0,0.0,0.0,0.0,0.0,0.0,0.0,0.0,0.0,0.0,0.0,0.0,0.0,0.0,0.0,0.0,0.0,0.0,0.0,0.0,0.0,0.0,0.0,0.0,0.0,0.0,0.0,0.0,0.0,0.0,0.0,0.0,0.0,0.0,0.0,0.0,0.0,0.0,0.0,0.0,0.0,0.0,0.0,0.0,0.0,0.0,0.0,0.0,0.0,0.0,0.0,0.0,0.0,0.0,0.0,0.0,0.0,0.0,0.0,0.0,0.0,0.0,0.0,0.0,0.0,0.0,0.0,0.0,0.0,0.0,0.0,0.0,0.0,0.0,0.0,0.0,0.0,0.0,0.0,0.0,0.0,0.0,0.0,0.0,0.0,0.0,0.0,0.0,0.0,0.0,0.0,0.0,0.0,0.0,-1.2502,-1.4064,-1.4736,-1.5395,-1.5514,-1.4796,-1.3583,-1.2265,-1.0837,-0.8371,0.0,0.0,0.0,0.0,0.0,0.0,0.0,0.0,0.0,0.0,0.0,0.0,0.0,0.0,0.0,0.0,0.0,0.0,0.0,0.0,0.0,0.0,0.0,0.0,0.0,0.0,0.0,0.0,0.0,0.0,0.0,0.0,0.0,0.0,0.0,0.0,0.0,0.0,0.0,0.0,0.0,0.0,0.0,0.0,0.0,0.0,0.0,0.0,0.0,0.0,0.0,0.0,0.0,0.0,0.0,0.0,0.0,0.0,0.0,0.0,0.0,0.0,0.0,0.0,0.0,0.0,0.0,0.0,0.0,0.0,0.0,0.0,0.0,0.0,0.0,0.0,0.0,0.0,0.0,0.0,0.0,0.0,0.0,0.0,0.0,0.0,0.0,0.0,0.0,0.0,0.0,0.0,0.0,0.0,0.0,0.0,0.0,0.0,0.0,0.0,0.0,0.0,-1.279,-1.4214,0.0,-1.5649,-1.535,-1.4274,-1.372,-1.2508,-1.0374,0.0,0.0,0.0,0.0,0.0,0.0,0.0,0.0,0.0,0.0,0.0,0.0,0.0,0.0,0.0,0.0,0.0,0.0,0.0,0.0,0.0,0.0,0.0,0.0,0.0,0.0,0.0,0.0,0.0,0.0,0.0,0.0,0.0,0.0,0.0,0.0,0.0,0.0,0.0,0.0,0.0,0.0,0.0,0.0,0.0,0.0,0.0,0.0,0.0,0.0,0.0,0.0,0.0,0.0,0.0,0.0,0.0,0.0,0.0,0.0,0.0,0.0,0.0,0.0,0.0,0.0,0.0,0.0,0.0,0.0,0.0,0.0,0.0,0.0,0.0,0.0,0.0,0.0,0.0,0.0,0.0,0.0,0.0,0.0,0.0,0.0,0.0,0.0,0.0,0.0,0.0,0.0,0.0,0.0,0.0,0.0,0.0,0.0,0.0,0.0,0.0,0.0,-1.1888,-1.3289,-1.4543,0.0,-1.5799,-1.5335,-1.4214,-1.3735,-1.2538,-1.0339,0.0,0.0,0.0,0.0,0.0,0.0,0.0,0.0,0.0,0.0,0.0,0.0,0.0,0.0,0.0,0.0,0.0,0.0,0.0,0.0,0.0,0.0,0.0,0.0,0.0,0.0,0.0,0.0,0.0,0.0,0.0,0.0,0.0,0.0,0.0,0.0,0.0,0.0,0.0,0.0,0.0,0.0,0.0,0.0,0.0,0.0,0.0,0.0,0.0,0.0,0.0,0.0,0.0,0.0,0.0,0.0,0.0,0.0,0.0,0.0,0.0,0.0,0.0,0.0,0.0,0.0,0.0,0.0,0.0,0.0,0.0,0.0,0.0,0.0,0.0,0.0,0.0,0.0,0.0,0.0,0.0,0.0,0.0,0.0,0.0,0.0,0.0,0.0,0.0,0.0,0.0,0.0,0.0,0.0,0.0,0.0,0.0,0.0,0.0,0.0,0.0,0.0,-1.2636,-1.3972,-1.5065,-1.5724,-1.5799,-1.5529,-1.4871,-1.3568,-1.2235,0.0,0.0,0.0,0.0,0.0,0.0,0.0,0.0,0.0,0.0,0.0,0.0,0.0,0.0,0.0,0.0,0.0,0.0,0.0,0.0,0.0,0.0,0.0,0.0,0.0,0.0,0.0,0.0,0.0,0.0,0.0,0.0,0.0,0.0,0.0,0.0,0.0,0.0,0.0,0.0,0.0,0.0,0.0,0.0,0.0,0.0,0.0,0.0,0.0,0.0,0.0,0.0,0.0,0.0,0.0,0.0,0.0,0.0,0.0,0.0,0.0,0.0,0.0,0.0,0.0,0.0,0.0,0.0,0.0,0.0,0.0,0.0,0.0,0.0,0.0,0.0,0.0,0.0,0.0,0.0,0.0,0.0,0.0,0.0,0.0,0.0,0.0,0.0,0.0,0.0,0.0,0.0,0.0,0.0,0.0,0.0,0.0,0.0,0.0,0.0,0.0,0.0,0.0,-1.2636,-1.3972,-1.5065,-1.5724,-1.5799,-1.5529,-1.4871,-1.4004,-1.2721,-1.0917,0.0,0.0,0.0,0.0,0.0,0.0,0.0,0.0,0.0,0.0,0.0,0.0,0.0,0.0,0.0,0.0,0.0,0.0,0.0,0.0,0.0,0.0,0.0,0.0,0.0,0.0,0.0,0.0,0.0,0.0,0.0,0.0,0.0,0.0,0.0,0.0,0.0,0.0,0.0,0.0,0.0,0.0,0.0,0.0,0.0,0.0,0.0,0.0,0.0,0.0,0.0,0.0,0.0,0.0,0.0,0.0,0.0,0.0,0.0,0.0,0.0,0.0,0.0,0.0,0.0,0.0,0.0,0.0,0.0,0.0,0.0,0.0,0.0,0.0,0.0,0.0,0.0,0.0,0.0,0.0,0.0,0.0,0.0,0.0,0.0,0.0,0.0,0.0,0.0,0.0,0.0,0.0,0.0,0.0,0.0,0.0,0.0,0.0,0.0,0.0,0.0,0.0,-1.3029,-1.4376,-1.535,-1.5769,-1.5799,-1.5649,-1.523,-1.4573,-1.3438,-1.1715,0.0,0.0,0.0,0.0,0.0,0.0,0.0,0.0,0.0,0.0,0.0,0.0,0.0,0.0,0.0,0.0,0.0,0.0,0.0,0.0,0.0,0.0,0.0,0.0,0.0,0.0,0.0,0.0,0.0,0.0,0.0,0.0,0.0,0.0,0.0,0.0,0.0,0.0,0.0,0.0,0.0,0.0,0.0,0.0,0.0,0.0,0.0,0.0,0.0,0.0,0.0,0.0,0.0,0.0,0.0,0.0,0.0,0.0,0.0,0.0,0.0,0.0,0.0,0.0,0.0,0.0,0.0,0.0,0.0,0.0,0.0,0.0,0.0,0.0,0.0,0.0,0.0,0.0,0.0,0.0,0.0,0.0,0.0,0.0,0.0,0.0,0.0,0.0,0.0,0.0,0.0,0.0,0.0,0.0,0.0,0.0,0.0,0.0,0.0,0.0,0.0,0.0,-1.3618,-1.4975,-1.5799,-1.5799,-1.5799,-1.5799,-1.5799,-1.5185,-1.4227,-1.2891,0.0,0.0,0.0,0.0,0.0,0.0,0.0,0.0,0.0,0.0,0.0,0.0,0.0,0.0,0.0,0.0,0.0,0.0,0.0,0.0,0.0,0.0,0.0,0.0,0.0,0.0,0.0,0.0,0.0,0.0,0.0,0.0,0.0,0.0,0.0,0.0,0.0,0.0,0.0,0.0,0.0,0.0,0.0,0.0,0.0,0.0,0.0,0.0,0.0,0.0,0.0,0.0,0.0,0.0,0.0,0.0,0.0,0.0,0.0,0.0,-1.2441,0.0,0.0,0.0,0.0,0.0,0.0,0.0,0.0,0.0,0.0,0.0,0.0,0.0,0.0,0.0,0.0,0.0,0.0,0.0,0.0,0.0,0.0,0.0,0.0,0.0,0.0,0.0,0.0,0.0,0.0,0.0,0.0,0.0,0.0,0.0,0.0,0.0,0.0,0.0,0.0,0.0,-1.3618,-1.4975,-1.5799,-1.5799,-1.5799,-1.5799,-1.5799,-1.5185,-1.4227,-1.2891,-1.0977,0.0,0.0,0.0,0.0,0.0,0.0,0.0,0.0,0.0,0.0,0.0,0.0,0.0,0.0,0.0,0.0,0.0,0.0,0.0,0.0,0.0,0.0,0.0,0.0,0.0,0.0,0.0,0.0,0.0,0.0,0.0,0.0,0.0,0.0,0.0,0.0,0.0,0.0,0.0,0.0,0.0,0.0,0.0,0.0,0.0,0.0,0.0,0.0,0.0,0.0,0.0,0.0,0.0,0.0,0.0,0.0,0.0,0.0,0.0,0.0,-1.3747,0.0,0.0,0.0,0.0,0.0,0.0,0.0,0.0,0.0,0.0,0.0,0.0,0.0,0.0,0.0,0.0,0.0,0.0,0.0,0.0,0.0,0.0,0.0,0.0,0.0,0.0,0.0,0.0,0.0,0.0,0.0,0.0,0.0,0.0,0.0,0.0,0.0,0.0,0.0,0.0,-1.3618,-1.4975,-1.5799,-1.5799,-1.5799,-1.5799,-1.5799,-1.5484,-1.4706,-1.3373,-1.204,0.0,0.0,0.0,0.0,0.0,0.0,0.0,0.0,0.0,0.0,0.0,0.0,0.0,0.0,0.0,0.0,0.0,0.0,0.0,0.0,0.0,0.0,0.0,0.0,0.0,0.0,0.0,0.0,0.0,0.0,0.0,0.0,0.0,0.0,0.0,0.0,0.0,0.0,0.0,0.0,0.0,0.0,0.0,0.0,0.0,0.0,0.0,0.0,0.0,0.0,0.0,0.0,0.0,-1.5889,-1.6421,-1.6939,-1.7027,-1.7652,-1.853,-1.6706,-1.6003,-1.6082,-1.5563,0.0,0.0,0.0,0.0,0.0,0.0,0.0,0.0,0.0,0.0,0.0,0.0,0.0,0.0,0.0,0.0,0.0,0.0,0.0,0.0,0.0,0.0,0.0,0.0,-1.6099,-1.5631,-1.2917,0.0,0.0,0.0,0.0,0.0,0.0,0.0,0.0,0.0,0.0,0.0,-1.381,-1.5035,-1.5799,-1.5799,-1.5799,-1.5799,-1.5799,-1.5799,-1.5275,-1.4023,-1.3214,-1.1933,0.0,0.0,0.0,0.0,0.0,0.0,0.0,0.0,0.0,0.0,0.0,0.0,0.0,0.0,0.0,0.0,0.0,0.0,0.0,0.0,0.0,0.0,0.0,0.0,0.0,0.0,0.0,0.0,0.0,0.0,0.0,0.0,-0.8041,-0.9464,0.0,0.0,0.0,0.0,0.0,0.0,0.0,0.0,0.0,0.0,0.0,0.0,0.0,-1.4302,-1.4423,-1.5608,-1.6484,-1.7084,-1.7601,-1.8143,-1.8694,-1.9133,-1.9723,-2.0352,-2.005,0.0,-1.7827,-1.7297,0.0,0.0,0.0,0.0,0.0,0.0,0.0,0.0,0.0,0.0,0.0,0.0,0.0,0.0,0.0,0.0,0.0,0.0,0.0,0.0,0.0,0.0,-1.8333,-1.8261,-1.7857,-1.7364,0.0,-1.577,-1.4631,-1.4106,-1.2977,0.0,0.0,0.0,0.0,0.0,0.0,0.0,-1.4511,-1.5334,-1.5799,-1.5799,-1.5799,-1.5799,-1.5799,-1.5799,-1.5456,-1.464,-1.3354,-1.2162,-1.1123,-0.926,0.0,0.0,0.0,0.0,0.0,0.0,0.0,0.0,0.0,0.0,0.0,0.0,0.0,0.0,0.0,0.0,0.0,0.0,0.0,0.0,0.0,0.0,0.0,0.0,0.0,0.0,0.0,0.0,0.0,-0.8304,-0.989,-1.0847,-1.1306,-1.1531,0.0,0.0,0.0,0.0,0.0,0.0,0.0,0.0,0.0,-1.4918,-1.6021,-1.6773,-1.7119,-1.7953,-1.8656,-1.9258,-1.9811,-2.0175,-2.0413,-2.0639,-2.1054,-2.1594,-2.1594,-2.1179,-2.0413,-1.9233,-1.8138,-1.7156,0.0,0.0,0.0,0.0,-1.6081,-1.643,-1.6954,-1.736,-1.7609,-1.7663,0.0,0.0,0.0,0.0,0.0,0.0,0.0,0.0,0.0,0.0,-2.0288,-1.9896,-1.9597,-1.9283,-1.8912,-1.8255,-1.7325,0.0,-1.4957,-1.4046,-1.3058,0.0,0.0,0.0,0.0,-1.3705,-1.4691,-1.5394,-1.5799,-1.5799,-1.5799,-1.5799,-1.5799,-1.5799,-1.5457,-1.4634,-1.3867,-1.2757,-1.1188,-1.0043,-0.8632,0.0,0.0,0.0,0.0,0.0,0.0,0.0,0.0,0.0,0.0,0.0,0.0,0.0,0.0,0.0,0.0,0.0,0.0,0.0,0.0,0.0,0.0,0.0,0.0,0.0,0.0,0.0,0.0,-1.0189,-1.1615,-1.2463,-1.3163,-1.3565,0.0,0.0,0.0,0.0,0.0,0.0,-1.6802,-1.7238,-1.7609,-1.7977,-1.8665,-1.9178,-1.948,-1.9978,-2.0451,-2.0905,-2.1443,-2.1694,-2.1707,-2.1845,-2.2133,-2.2493,-2.2493,-2.2523,-2.2468,-2.0865,-1.9775,-1.9047,-1.8717,-1.844,-1.824,-1.859,-1.8924,-1.9272,-1.9705,-2.0061,-2.0384,-2.0607,-2.0352,-1.972,-1.8557,0.0,0.0,0.0,0.0,-1.8596,-1.9478,-2.07,-2.1575,-2.1062,-2.0823,-2.0554,-2.0064,-1.9828,-1.9211,0.0,-1.6697,-1.5874,-1.4543,0.0,0.0,0.0,0.0,-1.4483,-1.499,-1.5634,-1.5964,-1.5829,-1.5799,-1.5799,-1.5799,-1.5799,-1.5488,-1.4787,-1.4168,-1.3103,-1.1484,-1.0595,-0.9277,-0.7456,0.0,0.0,0.0,0.0,0.0,0.0,0.0,0.0,0.0,0.0,0.0,0.0,0.0,0.0,0.0,0.0,0.0,0.0,0.0,0.0,0.0,0.0,0.0,0.0,0.0,0.0,0.0,0.0,0.0,-1.4496,-1.523,0.0,0.0,0.0,0.0,-1.7303,-1.7276,-1.7746,-1.899,-1.9474,-1.9849,-2.0147,-2.0669,-2.109,-2.1354,-2.1392,-2.1418,-2.1455,-2.2008,-2.2272,-2.2284,-2.2782,-2.3032,-2.3058,-2.3058,-2.316,-2.3234,-2.1968,-2.1245,-2.0952,-2.0787,-2.0928,-2.1308,-2.2256,-2.2782,-2.3159,-2.4057,-2.4554,-2.4822,-2.5152,-2.4022,-2.2357,-2.144,-2.0104,0.0,0.0,-1.988,-2.0162,-2.0903,-2.1401,-2.168,-2.1665,-2.1171,-2.0688,-2.0658,-2.0154,-1.9465,0.0,-1.8057,-1.719,-1.5919,0.0,-1.4661,-1.4691,-1.5274,-1.5709,-1.5754,-1.6278,-1.6443,-1.5858,-1.5799,-1.5799,-1.5799,-1.5799,-1.5668,-1.5374,-1.3981,-1.2965,-1.254,-1.0539,-0.9322,-0.909,-0.7446,0.0,0.0,0.0,0.0,0.0,0.0,0.0,0.0,0.0,0.0,0.0,0.0,0.0,0.0,0.0,0.0,0.0,0.0,0.0,0.0,0.0,0.0,0.0,0.0,0.0,0.0,0.0,0.0,-1.5335,-1.6758,0.0,-1.7671,-1.806,-1.8672,-1.9516,-1.9536,-2.0258,-2.193,-2.22,-2.2564,-2.3186,-2.2881,-2.2743,-2.2842,-2.2304,-2.2196,-2.2518,-2.2719,-2.2807,-2.2819,-2.3007,-2.3108,-2.3108,-2.3108,-2.349,-2.4098,-2.3946,-2.3448,-2.2762,-2.2637,-2.28,-2.3191,-2.3738,-2.4108,-2.4384,-2.482,-2.5101,-2.534,-2.5529,-2.4852,-2.3797,-2.2982,-2.1978,-2.1064,-2.0949,-2.1178,-2.1545,-2.1925,-2.2483,-2.2817,-2.2448,-2.2164,-2.1739,-2.0882,-2.0494,-2.0154,-1.9465,-1.8807,-1.8057,-1.7176,-1.6817,-1.6667,-1.6667,-1.6877,-1.6877,-1.6428,-1.6577,-1.6458,-1.5858,-1.5799,-1.5799,-1.5799,-1.5799,-1.5504,-1.4804,-1.3956,-1.2997,-1.1872,-1.0807,-0.9881,-0.9148,-0.8521,-0.7859,0.0,0.0,0.0,0.0,0.0,0.0,0.0,0.0,0.0,0.0,0.0,0.0,0.0,0.0,0.0,0.0,0.0,0.0,0.0,0.0,0.0,0.0,0.0,0.0,0.0,0.0,-1.5859,-1.6982,-1.8448,-1.9465,-1.969,-2.0109,-2.0647,-2.1321,-2.1575,-2.2317,-2.3798,-2.4052,-2.4364,-2.4887,-2.414,-2.3743,-2.3768,-2.2952,-2.2744,-2.3108,-2.3108,-2.3138,-2.3198,-2.3258,-2.3318,-2.3378,-2.3437,-2.4013,-2.4953,-2.5362,-2.5407,-2.519,-2.4937,-2.5069,-2.5392,-2.552,-2.5672,-2.5835,-2.5909,-2.6031,-2.6162,-2.6249,-2.5824,-2.5187,-2.4694,-2.3985,-2.3267,-2.2924,-2.2911,-2.3052,-2.316,-2.3396,-2.349,-2.3107,-2.2853,-2.2463,-2.156,-2.1017,-2.0554,-2.0124,-1.9495,-1.8822,-1.8147,-1.8042,-1.7968,-1.7727,-1.7893,-1.7803,-1.713,-1.704,-1.6801,-1.6174,-1.5919,-1.5799,-1.5799,-1.5799,-1.5386,-1.4455,-1.3771,-1.2788,-1.1455,-1.0777,-1.0106,-0.9378,-0.9189,-0.8449,-0.7128,0.0,0.0,0.0,0.0,0.0,0.0,0.0,0.0,0.0,0.0,0.0,0.0,0.0,0.0,0.0,0.0,0.0,0.0,0.0,0.0,0.0,0.0,0.0,-1.4101,-1.5604,-1.7518,-1.9468,-2.0333,-2.1021,-2.1665,-2.1739,-2.2044,-2.2703,-2.3295,-2.3873,-2.4438,-2.495,-2.5178,-2.5121,-2.4394,-2.4048,-2.4089,-2.3424,-2.3108,-2.3108,-2.3108,-2.321,-2.3403,-2.3569,-2.3717,-2.392,-2.4086,-2.4768,-2.5785,-2.6133,-2.7071,-2.824,-2.7705,-2.7679,-2.7891,-2.7686,-2.76,-2.76,-2.76,-2.76,-2.76,-2.76,-2.7165,-2.6641,-2.6602,-2.6153,-2.563,-2.5615,-2.5128,-2.4634,-2.4605,-2.4111,-2.3625,-2.3595,-2.3152,-2.2718,-2.2703,-2.168,-2.0748,-2.0703,-2.0183,-1.9528,-1.8852,-1.8732,-1.8506,-1.7863,-1.8311,0.0,-1.7818,-1.7697,-1.7428,-1.6771,-1.6159,-1.5799,-1.5799,-1.5799,-1.5386,-1.444,-1.3373,-1.2375,-1.1415,-1.0431,-0.9931,-0.9931,-0.939,-0.8309,-0.6649,0.0,0.0,0.0,0.0,0.0,0.0,0.0,0.0,0.0,0.0,0.0,0.0,0.0,0.0,0.0,0.0,0.0,0.0,0.0,0.0,0.0,-1.5295,-1.5958,-1.5562,-1.7452,-1.9076,-1.9633,-2.116,-2.2224,-2.2418,-2.2817,-2.3355,-2.4022,-2.4231,-2.4737,-2.5667,-2.5525,-2.5446,-2.5462,-2.4651,-2.4121,-2.3888,-2.3365,-2.3108,-2.3108,-2.3108,-2.3258,-2.3569,-2.3927,-2.4234,-2.4494,-2.4879,-2.5849,-2.7179,-2.7612,-2.8699,-2.993,-2.84,-2.7964,-2.8198,-2.7763,-2.76,-2.76,-2.76,-2.76,-2.76,-2.76,-2.748,-2.724,-2.6761,-2.6467,-2.6213,-2.5749,-2.548,-2.5202,-2.4724,-2.447,-2.4201,-2.3714,-2.3475,-2.3242,-2.2793,-2.2418,-2.1859,-2.0882,-2.0539,-2.0213,-1.9525,-1.9438,-1.9346,-1.9166,-1.9301,0.0,-1.8506,-1.7997,-1.7428,-1.6771,-1.6159,-1.5799,-1.5799,-1.5799,-1.5192,-1.377,-1.3118,-1.2181,-1.0789,-1.0584,-1.0482,-1.0482,-0.9956,-0.9064,0.0,0.0,0.0,0.0,0.0,0.0,0.0,0.0,0.0,0.0,0.0,0.0,0.0,0.0,0.0,0.0,0.0,0.0,0.0,0.0,0.0,0.0,-1.7226,-1.8199,-1.7945,-1.8938,-2.0007,-2.0861,-2.1984,-2.2912,-2.3445,-2.3819,-2.4291,-2.4963,-2.5277,-2.5676,-2.6164,-2.601,-2.5845,-2.566,-2.4893,-2.435,-2.4018,-2.3679,-2.3514,-2.3514,-2.3769,-2.4111,-2.4485,-2.5178,-2.5666,-2.6028,-2.6427,-2.7357,-2.8554,-2.8886,-2.9812,0.0,0.0,0.0,0.0,0.0,-2.8034,-2.8064,-2.8349,-2.8259,-2.8034,-2.8034,-2.7839,-2.7525,-2.7151,-2.7031,-2.6941,-2.6542,-2.6243,-2.5869,-2.5187,-2.4814,-2.4425,-2.3759,-2.3595,-2.349,-2.3152,-2.2882,-2.2478,-2.168,-2.1077,0.0,-2.0183,-1.9902,-1.9708,-1.9708,-1.9708,-1.9573,-1.9166,-1.8281,-1.7548,-1.716,-1.6323,-1.5799,-1.5799,-1.5799,0.0,0.0,0.0,-1.2512,-1.1029,-1.105,0.0,0.0,0.0,0.0,0.0,0.0,0.0,0.0,-0.7392,-0.7583,0.0,0.0,0.0,0.0,0.0,0.0,0.0,0.0,0.0,0.0,0.0,0.0,0.0,0.0,0.0,0.0,-1.9495,-2.0874,-2.0772,-2.033,-2.0696,-2.2478,-2.2823,-2.3355,-2.4485,-2.4664,-2.4993,-2.5674,-2.6258,-2.6534,-2.6312,0.0,0.0,0.0,0.0,-2.4708,-2.4423,-2.4321,-2.429,-2.4369,-2.4909,-2.5442,-2.5955,-2.6838,-2.7471,-2.7923,-2.8283,-2.8972,-2.9798,-2.9913,-3.0452,-3.1113,-3.0105,-2.9666,-2.9532,-2.8921,-2.8712,-2.8786,-2.9295,0.0,0.0,-2.8502,-2.8068,-2.76,-2.76,-2.76,-2.76,-2.76,-2.718,-2.6527,-2.5794,-2.5158,-2.4515,-2.3789,-2.3595,-2.3595,-2.3595,-2.3176,-2.2763,-2.2613,-2.162,-2.0763,-2.0598,-2.0094,-1.9708,-1.9708,-1.9708,-1.9708,-1.9708,-1.8538,-1.7713,-1.7713,0.0,0.0,-1.5799,-1.5799,-1.5386,-1.4455,-1.3855,-1.2992,-1.1746,-1.1691,-1.1691,-1.1691,-1.1691,-1.1399,-1.0808,-1.0808,-1.0819,-1.0871,-0.978,-0.9818,0.0,0.0,0.0,0.0,0.0,0.0,0.0,0.0,0.0,0.0,0.0,0.0,0.0,0.0,0.0,-2.0447,-2.0875,-2.1397,-2.2792,-2.2467,-2.2269,-2.2643,-2.361,-2.4335,-2.459,-2.5083,-2.5689,-2.6348,-2.6512,-2.6728,-2.6986,-2.6689,-2.6336,-2.6014,-2.555,-2.5245,-2.5175,-2.5147,-2.5422,-2.5958,0.0,0.0,-2.7408,-2.7925,-2.8339,-2.8693,-2.9167,-2.9731,-3.0339,-3.0367,-3.0498,-3.0615,-3.0417,-3.0028,-2.9592,-2.9457,-2.9427,-2.9367,-2.8936,-2.8712,-2.8502,-2.7974,-2.7705,-2.76,-2.76,-2.76,0.0,-2.76,-2.751,-2.7136,-2.5914,-2.551,-2.5106,-2.3894,-2.3595,-2.3595,-2.3595,-2.3505,-2.3116,-2.2084,-2.168,-2.1156,-2.0082,-1.9798,-1.9708,-1.9708,-1.9708,-1.9708,-1.9708,-1.8538,-1.7713,-1.7713,-1.6563,-1.5799,-1.5799,-1.5799,-1.5386,-1.4455,-1.3247,-1.2466,-1.2256,-1.2253,-1.2253,-1.2253,-1.2253,-1.1977,-1.1425,-1.1425,-1.165,-1.2037,-1.0921,-1.0758,0.0,0.0,0.0,0.0,0.0,0.0,0.0,0.0,0.0,0.0,0.0,-1.6515,-1.8018,0.0,-2.0472,-2.2032,-2.241,-2.2762,-2.3498,-2.3336,-2.3152,-2.3152,-2.4007,-2.4739,-2.5068,-2.5719,-2.6378,-2.7061,-2.7106,-2.7156,-2.7295,-2.6904,-2.6602,-2.6404,-2.638,-2.6357,-2.6357,-2.6694,-2.7018,-2.7357,-2.7652,-2.8123,-2.877,-2.9334,-2.9768,-3.0127,-3.044,-3.0731,-3.0987,-3.0987,-3.0987,-3.0987,-3.0987,-3.0432,-2.9651,-2.9924,-2.9849,-2.9606,-2.9564,-2.9131,-2.8547,-2.8203,-2.7884,-2.76,-2.76,-2.76,-2.76,-2.76,-2.76,-2.7285,-2.5959,-2.5615,-2.527,-2.3924,-2.3595,-2.3595,-2.3595,-2.3355,-2.2972,-2.2328,-2.1665,-2.0991,-2.0318,-1.9914,-1.9708,-1.9708,-1.9708,-1.9708,-1.9708,-1.8822,-1.8072,-1.7743,-1.6832,-1.6129,-1.5829,-1.5654,-1.5227,-1.4495,-1.363,-1.3045,-1.2806,-1.2801,-1.2801,-1.2801,-1.2801,-1.2676,-1.24,-1.24,-1.2538,-1.2789,-1.2225,-1.2112,0.0,0.0,0.0,0.0,0.0,0.0,0.0,0.0,-1.5095,-1.5902,-1.7232,-1.8679,-2.017,-2.1468,-2.2517,-2.3219,-2.3808,-2.4092,-2.3889,-2.3748,-2.3674,-2.3653,-2.4328,-2.5008,-2.5555,-2.6318,-2.7031,-2.7555,-2.76,-2.7549,-2.7437,-2.7163,-2.7052,-2.7083,-2.7378,-2.7616,-2.7759,-2.8293,-2.8611,-2.8727,-2.9204,-2.9668,-3.0061,-3.0676,-3.1087,-3.1351,-3.1438,-3.1511,-3.1511,-3.1511,-3.1511,-3.1511,-3.1511,-3.0778,-2.9819,-3.0313,-3.0193,-2.9804,-3.0043,-2.946,-2.8577,-2.8442,-2.8049,-2.76,-2.76,-2.76,-2.76,-2.76,-2.76,-2.7285,-2.5959,-2.5615,-2.527,-2.3924,-2.3595,-2.3595,-2.3595,-2.3227,-2.2808,-2.2553,-2.1635,-2.0808,-2.0557,-2.0049,-1.9708,-1.9708,-1.9708,-1.9708,-1.9708,-1.9106,-1.8493,-1.7953,-1.7294,-1.6637,-1.6039,-1.5683,-1.5201,-1.4547,-1.4181,-1.3752,-1.3215,-1.3198,-1.3198,-1.3198,-1.3198,-1.3198,-1.3198,-1.3198,-1.3198,-1.3198,-1.3198,-1.3198,-1.5445,-1.5223,-1.523,-1.5249,-1.5198,-1.5332,0.0,0.0,-1.7456,-1.8333,-1.9162,-2.0221,-2.1755,-2.2178,-2.2885,-2.4647,-2.4616,-2.4473,-2.4732,-2.4302,-2.3903,-2.3797,-2.48,-2.5525,-2.56,-2.6761,-2.7525,-2.7585,-2.76,-2.76,-2.7575,-2.7534,-2.7793,-2.8379,-2.8431,-2.8744,-2.9352,-2.9426,-2.9712,-3.0248,-3.0322,-3.068,-3.1304,-3.1379,-3.1438,-3.1467,-3.1511,-3.1511,-3.1511,-3.1511,-3.1511,-3.1511,-3.1511,-3.1032,-3.0417,-3.0477,-3.0462,-3.0253,-2.9175,-2.8727,-2.8502,-2.7914,-2.766,-2.76,-2.76,-2.76,-2.76,-2.76,-2.76,-2.7285,-2.5959,-2.5615,-2.527,-2.3924,-2.3595,-2.3595,-2.3595,-2.355,-2.3161,-2.2024,-2.168,-2.1201,-2.0022,-1.9753,-1.9708,-1.9708,-1.9708,-1.9708,-1.9708,-1.9106,-1.8672,-1.8612,-1.7997,-1.7309,-1.6667,-1.6345,-1.5705,-1.456,-1.4181,-1.3752,-1.3215,-1.3198,-1.3198,-1.3198,-1.3198,-1.3198,-1.3198,-1.3198,-1.3198,-1.3198,-1.3198,-1.3198,-1.6363,-1.6542,-1.6971,-1.7383,-1.7462,-1.7642,-1.84,-1.9159,-1.9807,-2.0166,-2.0826,-2.1789,-2.3291,-2.3579,-2.4078,0.0,-2.5585,-2.5289,-2.5205,-2.4643,-2.4168,-2.3994,-2.4581,-2.5173,-2.557,-2.6452,-2.718,-2.757,-2.76,-2.76,-2.76,-2.76,-2.7914,-2.8577,-2.8966,-2.9475,-3.0118,-3.0507,-3.0823,-3.1077,-3.1077,-3.1227,-3.1511,-3.1511,-3.1511,-3.1511,-3.1626,-3.1712,-3.1798,-3.1868,-3.1938,-3.2007,-3.2007,-3.184,-3.1508,-3.0781,-3.0028,-2.9325,-2.8786,-2.8338,-2.7974,-2.769,-2.76,-2.76,-2.76,-2.76,-2.76,-2.76,-2.733,-2.6806,-2.5854,-2.5307,-2.4769,-2.3834,-2.3595,-2.3595,-2.3595,-2.331,-2.2927,-2.2388,-2.165,-2.0946,-2.0378,-1.9944,-1.9708,-1.9708,-1.9708,-1.9708,-1.9708,-1.9468,-1.9136,-1.8747,-1.8067,-1.7363,-1.6632,-1.6274,-1.5584,-1.4459,-1.4075,-1.3678,-1.3215,-1.3198,-1.3198,-1.3198,-1.3198,-1.3198,-1.3198,-1.3198,-1.3198,-1.3198,-1.3198,-1.3198,-1.7279,-1.7693,-1.8273,-1.9029,-1.9198,-1.9401,-2.0149,-2.0771,-2.1258,-2.1461,-2.1921,-2.2699,-2.3966,-2.4203,-2.4615,-2.5933,-2.5944,-2.5711,-2.5503,-2.4906,-2.4405,-2.4183,-2.4262,-2.4649,-2.5525,-2.6213,-2.6881,-2.754,-2.76,-2.76,-2.76,-2.76,-2.7989,-2.8846,-2.9367,-2.9968,-3.0776,-3.1256,-3.1511,-3.1511,-3.1511,-3.1511,-3.1511,-3.1511,-3.1511,-3.1511,-3.1756,-3.1968,-3.2163,-3.2342,-3.2547,-3.2749,-3.2749,-3.2625,-3.2338,-3.1413,-3.0232,-2.9037,-2.8675,-2.8223,-2.7825,-2.7825,-2.7825,-2.7825,-2.7825,-2.7825,-2.7825,-2.7825,-2.7318,-2.663,-2.5944,-2.5235,-2.4537,-2.3818,-2.3616,-2.3595,-2.3595,-2.3272,-2.2897,-2.2733,-2.1754,-2.0932,-2.0733,-2.0139,-1.9708,-1.9708,-1.9708,-1.9708,-1.9708,-1.9708,-1.9513,-1.9031,-1.8448,-1.7707,-1.6755,-1.6309,-1.5555,-1.4262,-1.3911,-1.3573,-1.3215,-1.3198,-1.3198,-1.3198,-1.3198,-1.3198,-1.3198,-1.3198,-1.3198,-1.3198,-1.3198,-1.3198,-1.864,-1.8843,-1.9046,-1.9778,-1.9968,-2.0183,-2.0987,-2.1173,-2.141,-2.2124,-2.2279,-2.2533,-2.3291,-2.3427,-2.3887,-2.5293,-2.5364,-2.5341,-2.5658,-2.5121,-2.4588,-2.4323,-2.3903,-2.4148,-2.548,-2.6213,-2.6881,-2.754,-2.76,-2.76,-2.76,-2.76,-2.8199,-2.9532,-2.9592,-3.0193,-3.1466,-3.1496,-3.1511,-3.1511,-3.1511,-3.1511,-3.1511,-3.1511,-3.1511,-3.1511,-3.1855,-3.2219,-3.2586,-3.2868,-3.3224,-3.3556,-3.3556,-3.3182,-3.2599,-3.2542,-3.1612,-3.0166,-2.8849,-2.8387,-2.8387,-2.8387,-2.8387,-2.8387,-2.8387,-2.8387,-2.8387,-2.8387,-2.7841,-2.7111,-2.6375,-2.5575,-2.478,-2.399,-2.3696,-2.3595,-2.3595,-2.3595,-2.3385,-2.2808,-2.2149,-2.1455,-2.0808,-2.0139,-1.9708,-1.9708,-1.9708,-1.9708,-1.9708,-1.9708,-1.9693,-1.9678,-1.9479,-1.8734,-1.7212,-1.6766,-1.5817,-1.4017,-1.3719,-1.3493,-1.3215,-1.3198,-1.3198,-1.3198,-1.3198,-1.3198,-1.3198,-1.3198,-1.3198,-1.3198,-1.3198,-1.3198,-1.8826,-1.9266,-1.9811,-2.0602,-2.0788,-2.0991,-2.1752,-2.1921,-2.2006,-2.2245,-2.2296,-2.253,-2.3257,-2.3393,-2.3883,-2.5324,-2.5511,-2.5598,-2.5983,-2.5446,-2.4906,-2.4533,-2.3973,0.0,-2.548,-2.5809,0.0,-2.751,-2.76,-2.76,-2.76,-2.8034,-2.8667,-2.9577,-2.9983,-3.0627,-3.1496,-3.1511,-3.1511,-3.1511,-3.1511,-3.1511,-3.1511,-3.1641,-3.1756,-3.184,-3.2342,-3.2749,-3.3177,-3.3569,-3.3901,-3.4218,-3.4218,-3.4071,-3.373,-3.277,-3.2101,-3.1478,-3.0235,-2.9477,-2.9051,-2.9051,-2.9051,-2.9051,-2.9051,-2.9051,-2.9051,-2.9051,-2.8198,-2.7208,-2.6829,-2.5672,-2.4506,-2.4103,-2.3788,-2.3595,-2.3595,-2.3595,-2.3535,-2.3325,-2.2428,-2.162,-2.1395,-2.0438,-1.9708,-1.9708,-1.9708,-1.9708,-1.9708,-1.9708,-1.9708,-1.9708,-1.9472,-1.8826,-1.7598,-1.6788,-1.5729,-1.4328,-1.3754,-1.3391,-1.3215,-1.3198,-1.3198,-1.3198,-1.3198,-1.3198,-1.3198,-1.3198,-1.3403,-1.379,-1.379,-1.3991,-1.9582,-2.0061,-2.0606,-2.1397,-2.1583,-2.1718,-2.2178,-2.2296,-2.2243,-2.1955,-2.1904,-2.1955,-2.2158,-2.2412,-2.3004,-2.4222,-2.4864,-2.5327,-2.5709,-2.5659,-2.5405,-2.5009,-2.4593,-2.4747,0.0,0.0,0.0,-2.751,-2.76,-2.76,-2.76,-2.8233,-2.8906,-2.9592,-3.0178,-3.0808,-3.1496,-3.1511,-3.1511,-3.1511,-3.1511,-3.1511,-3.1511,-3.1756,-3.1996,-3.2247,-3.2776,-3.3303,-3.3869,-3.4267,-3.4643,-3.489,-3.489,-3.489,-3.4757,-3.3531,-3.2917,-3.2464,-3.0933,-3.0077,-2.9683,-2.9683,-2.9683,-2.9683,-2.9683,-2.9683,-2.9683,-2.9683,-2.8834,-2.784,-2.7343,-2.6073,-2.4813,-2.4291,-2.3888,-2.3595,-2.3595,-2.3595,-2.3595,-2.3595,-2.2562,-2.1695,-2.1695,-2.0591,-1.9708,-1.9708,-1.9708,-1.9708,-1.9708,-1.9708,-1.9708,-1.9708,-1.9417,-1.8784,-1.7646,-1.6835,-1.5768,-1.4377,-1.3887,-1.352,-1.321,-1.3198,-1.3198,-1.3198,-1.3198,-1.3198,-1.3198,-1.3416,-1.3727,-1.4103,-1.4286,-1.4576,-2.0801,-2.1224,-2.1427,-2.2141,-2.2296,-2.2296,-2.2296,-2.2262,-2.2057,-2.1343,-2.114,-2.0869,0.0,0.0,-2.1393,-2.2161,-2.3528,-2.4619,-2.4945,-2.5681,-2.6048,0.0,0.0,0.0,0.0,0.0,0.0,-2.754,0.0,-2.76,-2.7645,-2.8304,-2.8951,-2.9636,-3.0223,-3.0866,-3.1496,-3.1511,-3.1511,-3.1511,-3.1511,-3.1511,-3.1539,-3.1868,-3.2274,-3.2668,-3.323,-3.3894,-3.464,-3.4984,-3.5321,-3.56,-3.56,-3.56,-3.5498,-3.4726,-3.3998,-3.3102,-3.0981,-3.0253,-3.0253,-3.0253,-3.0253,-3.0253,-3.0253,-3.0253,-3.0253,-3.0253,-2.9711,-2.8915,-2.7899,-2.6801,-2.5639,-2.4575,-2.3952,-2.3595,-2.3595,-2.3595,-2.3595,-2.3595,-2.2562,-2.168,-2.1605,-2.0528,-1.9708,-1.9708,-1.9708,-1.9708,-1.9708,-1.9708,-1.9708,-1.9708,-1.9343,-1.8621,-1.7441,-1.6946,-1.5981,-1.4291,-1.4166,-1.3878,-1.3298,-1.3248,-1.3248,-1.3248,-1.3223,-1.3223,-1.3248,-1.3815,-1.4141,-1.4186,-1.4702,-1.4947,-2.1089,-2.16,-2.2073,-2.2245,-2.2296,-2.2296,-2.2296,-2.187,-2.1427,-2.1241,-2.0293,-1.9587,0.0,0.0,0.0,-2.2076,-2.3528,0.0,-2.4945,-2.5681,0.0,-2.5644,0.0,-2.5869,-2.6527,-2.6587,0.0,0.0,-2.76,-2.7824,-2.8308,-2.8966,-2.9624,-3.0253,-3.0883,-3.1331,-3.1511,-3.1511,-3.1511,-3.1511,-3.167,-3.1784,-3.1883,-3.2355,-3.283,-3.323,-3.3917,-3.4505,-3.4984,-3.5291,-3.5498,-3.56,-3.56,-3.56,-3.543,-3.4167,-3.3558,-3.3165,-3.1517,-3.0952,-3.0952,-3.0952,-3.0952,-3.0952,-3.0952,-3.0952,-3.0952,-3.0952,-3.0415,-2.9582,-2.8483,-2.7198,-2.5914,-2.4786,-2.4057,-2.3595,-2.3595,-2.3595,-2.3595,-2.3595,-2.2562,-2.138,-2.0382,-1.9932,-1.9708,-1.9708,-1.9708,-1.9708,-1.9708,-1.9708,-1.9708,-1.9708,-1.9343,-1.8769,-1.7963,-1.7171,-1.6303,-1.5351,-1.4928,-1.462,-1.4481,-1.4079,-1.3871,-1.3871,-1.3428,-1.3416,-1.3871,-1.4009,-1.4513,-1.5299,-1.5417,-1.5706,-2.1583,-2.1989,-2.2296,-2.2296,-2.2296,-2.2212,-2.1887,-2.1512,-2.0919,-1.9921,-1.9012,-1.8437,-1.8538,-1.8814,-1.9541,0.0,0.0,0.0,-2.4464,-2.5743,-2.6487,0.0,-2.6305,0.0,-2.7001,-2.7046,-2.722,0.0,-2.791,-2.8188,-2.8577,-2.949,-3.0148,-3.0492,-3.1152,-3.1511,-3.1511,-3.1511,-3.1511,-3.1511,-3.1769,-3.2025,-3.2274,-3.283,-3.3381,-3.3969,0.0,-3.4977,-3.5344,-3.5481,-3.5571,-3.56,-3.56,-3.56,-3.5464,-3.432,-3.3677,-3.3237,-3.207,-3.1461,-3.119,-3.119,-3.119,-3.119,-3.119,-3.119,-3.119,-3.119,-3.0903,-3.0251,-2.8817,-2.7686,-2.6563,-2.5075,-2.4245,-2.376,-2.3696,-2.3653,-2.352,-2.3272,-2.2383,-2.1365,-2.0318,-1.9884,-1.9708,-1.9708,-1.9708,-1.9708,-1.9708,-1.9708,-1.9708,-1.9708,-1.9343,-1.8827,-1.8165,-1.7456,-1.6658,-1.5746,-1.5424,-1.5148,-1.4916,-1.4614,-1.4337,-1.4103,-1.4004,-1.4004,-1.4103,-1.4576,-1.511,-1.5706,-1.5944,-1.6199,-2.2141,-2.2296,-2.2296,-2.2296,-2.2243,-2.1989,-2.1343,-2.097,-2.0192,-1.8205,-1.7563,-1.7202,-1.6654,-1.7151,-1.8138,-1.9613,0.0,-2.341,-2.3835,-2.564,-2.6846,-2.6636,-2.7111,-2.7495,-2.7585,-2.76,-2.765,-2.7815,-2.8398,-2.8726,-2.8779,-2.9918,-3.058,-3.0642,-3.1225,-3.1539,-3.1568,-3.1582,-3.1582,-3.1611,-3.1981,-3.2342,-3.2722,-3.3282,-3.3944,-3.4664,-3.5008,-3.5321,-3.56,-3.56,-3.56,-3.56,-3.56,-3.56,-3.5498,-3.4658,-3.3947,-3.3288,-3.2446,-3.1752,-3.119,-3.119,-3.119,-3.119,-3.119,-3.119,-3.119,-3.119,-3.119,-3.0811,-2.9111,-2.822,-2.7324,-2.5544,-2.4575,-2.4009,-2.3867,-2.3717,-2.3415,-2.2823,-2.2239,-2.159,-2.0823,-2.0228,-1.9813,-1.9708,-1.9708,-1.9708,-1.9708,-1.9708,-1.9708,-1.9708,-1.9343,-1.8827,-1.8165,-1.7733,-1.7018,-1.5872,-1.5806,-1.5613,-1.5135,-1.5035,-1.479,-1.4311,-1.4702,-1.4714,-1.4311,-1.5248,-1.5731,-1.5819,-1.6274,-1.65,-2.2262,-2.2296,-2.2296,-2.2296,-2.1837,-2.136,-2.1224,-1.9739,0.0,0.0,-1.6346,-1.5213,-1.5697,-1.6384,-1.7365,-1.8843,-2.0995,-2.2822,-2.3769,-2.4802,-2.5753,0.0,-2.6701,-2.7001,-2.754,-2.76,0.0,0.0,0.0,-2.9445,-2.9743,-3.0489,-3.1043,-3.1316,-3.1595,-3.1813,-3.1912,-3.2038,-3.2135,-3.2259,-3.2641,-3.2975,-3.3282,-3.3993,-3.4554,-3.5024,-3.5314,0.0,-3.56,-3.56,-3.56,-3.56,-3.56,-3.56,-3.543,-3.41,-3.3508,-3.322,-3.185,-3.1309,-3.119,-3.119,-3.119,-3.119,-3.119,-3.119,-3.119,-3.119,-3.119,-3.0948,-2.9861,-2.8852,-2.7787,-2.6525,-2.5253,-2.4282,-2.4084,-2.3809,-2.3415,-2.2823,-2.2598,-2.2149,-2.0897,-2.0598,-2.0348,-1.9765,-1.9708,-1.9708,-1.9708,-1.9708,-1.9708,-1.9708,-1.9343,-1.8827,-1.8165,-1.7733,-1.7167,-1.6405,-1.635,-1.6333,-1.6233,-1.5793,-1.5525,-1.5417,-1.5072,-1.5072,-1.5424,-1.5605,-1.5932,-1.635,-1.645,-1.65,-2.2296,-2.2296,-2.2296,-2.2296,-2.1752,-2.0987,-2.0192,0.0,0.0,-1.6329,-1.5247,-1.4605,-1.496,-1.5325,0.0,-1.8031,-1.9896,-2.1645,-2.3203,-2.4473,0.0,-2.6739,-2.6919,-2.723,0.0,-2.8014,-2.8122,0.0,0.0,-3.0027,-3.0299,-3.1167,-3.1591,-3.1496,-3.1769,-3.2053,-3.233,-3.252,-3.2734,-3.3013,-3.3365,-3.37,-3.4028,-3.4561,-3.5001,-3.5367,-3.5503,-3.5571,-3.56,-3.56,-3.56,-3.56,-3.56,-3.56,-3.5464,-3.437,-3.3728,-3.3254,-3.2138,-3.1512,-3.119,-3.119,-3.119,-3.119,-3.119,-3.119,-3.119,-3.119,-3.119,-3.1002,-3.0087,-2.9123,-2.807,-2.6938,-2.5468,-2.4251,-2.3915,-2.3702,-2.3505,-2.3206,-2.2912,-2.2508,-2.1844,-2.1171,-2.0583,-2.0273,-1.9914,-1.9708,-1.9708,-1.9708,-1.9708,-1.9708,-1.9343,-1.8827,-1.8165,-1.7733,-1.7206,-1.6531,-1.65,-1.65,-1.65,-1.6237,-1.5994,-1.5706,-1.5718,-1.5718,-1.5693,-1.5982,-1.6237,-1.65,-1.65,-1.65,-2.2245,-2.2296,-2.2262,-2.2093,-2.1498,-2.0547,-1.9012,-1.798,0.0,-1.4892,-1.4368,-1.425,-1.425,-1.4385,-1.518,0.0,-1.8797,-2.0531,-2.2698,-2.4176,-2.5599,0.0,-2.7281,0.0,-2.8528,-2.8605,0.0,0.0,0.0,0.0,-3.0957,-3.1705,-3.201,-3.1682,-3.2023,-3.2398,-3.2776,-3.3082,-3.3407,-3.3793,-3.4053,-3.4374,-3.4728,-3.5048,-3.5344,-3.56,-3.56,-3.56,-3.56,-3.56,-3.56,-3.56,-3.56,-3.56,-3.5481,-3.459,-3.3897,-3.3271,-3.2378,-3.1684,-3.119,-3.119,-3.119,-3.119,-3.119,-3.119,-3.119,-3.119,-3.119,-3.1035,-3.035,-2.9391,-2.8244,-2.6801,-2.5389,-2.4219,-2.3702,-2.3595,-2.3595,-2.3595,-2.3227,-2.2853,-2.2718,-2.1814,-2.1036,-2.0733,-2.0258,-1.9854,-1.9723,-1.9708,-1.9708,-1.9708,-1.938,-1.8879,-1.8238,-1.7794,-1.7289,-1.6629,-1.6565,-1.6522,-1.65,-1.65,-1.6287,-1.5881,-1.6296,-1.6287,-1.5869,-1.6287,-1.65,-1.65,-1.65,-1.65,-2.2124,-2.2296,-2.2127,-2.1478,-2.0703,-1.9714,-1.8239,0.0,-1.5544,-1.4673,-1.3971,-1.3498,-1.3498,-1.4056,-1.5011,-1.6553,0.0,-1.9963,-2.2707,-2.3538,-2.483,-2.7429,0.0,0.0,-2.9166,-2.9309,0.0,0.0,0.0,0.0,-3.2114,-3.2013,-3.2047,-3.2327,-3.2695,-3.3029,-3.3319,-3.3764,-3.4134,-3.4407,-3.4691,-3.4906,-3.5065,-3.5337,-3.552,-3.56,-3.56,-3.56,0.0,-3.56,-3.56,-3.56,-3.56,-3.56,-3.543,-3.4032,-3.3457,-3.3203,-3.1782,-3.1258,-3.119,-3.119,-3.119,-3.119,-3.119,-3.119,-3.119,-3.119,-3.119,-3.1173,-3.1106,-3.0021,-2.8349,-2.5907,-2.495,-2.439,-2.3745,-2.3595,-2.3595,-2.3595,-2.355,-2.3325,-2.2793,-2.2598,-2.2104,-2.0882,-2.0643,-2.0393,-1.9783,-1.9708,-1.9708,-1.9708,-1.9453,-1.9064,-1.85,-1.8028,-1.7516,-1.6897,-1.6761,-1.6633,-1.65,-1.65,-1.6475,-1.6425,-1.6475,-1.6475,-1.6425,-1.6475,-1.65,-1.65,-1.65,-1.65,-2.1563,-2.1955,-2.211,-2.1376,-2.0602,-1.9507,-1.7574,-1.6339,-1.5257,-1.4073,-1.3591,-1.3396,-1.3396,-1.3642,-1.4319,-1.5808,-1.6908,-1.8571,-2.1435,-2.2635,-2.41,-2.6494,-2.6941,0.0,0.0,0.0,0.0,0.0,0.0,0.0,-3.1909,-3.195,-3.1906,-3.1797,-3.2523,-3.3099,-3.3462,-3.4275,-3.4859,-3.5148,-3.5281,-3.535,-3.5396,-3.5503,-3.5571,-3.56,-3.56,-3.56,0.0,-3.56,-3.56,-3.56,-3.56,-3.5329,-3.481,-3.3795,-3.3119,-3.2598,-3.1546,-3.119,-3.119,-3.119,-3.119,-3.119,-3.119,-3.119,-3.119,-3.119,-3.119,-3.119,-3.119,-2.9921,-2.8073,-2.575,-2.4883,-2.4426,-2.3745,-2.3595,-2.3595,-2.3595,-2.3595,-2.352,-2.3266,-2.2942,-2.2388,-2.144,-2.0957,-2.0468,-1.9798,-1.9708,-1.9708,-1.9708,-1.949,-1.9195,-1.8774,-1.8364,-1.7828,-1.7173,-1.6976,-1.6765,-1.6522,-1.65,-1.65,-1.65,-1.65,-1.65,-1.65,-1.65,-1.65,-1.65,-1.65,-1.65,-2.0733,-2.1228,-2.1434,-2.0699,-1.9925,-1.8831,-1.6824,-1.5798,-1.4919,-1.3667,-1.3396,-1.3396,-1.3396,-1.3396,-1.3879,0.0,-1.6214,-1.7726,-2.0655,-2.2013,-2.3612,0.0,0.0,-2.7488,0.0,0.0,0.0,0.0,0.0,0.0,-3.1529,-3.1687,-3.1714,-3.163,-3.2408,-3.3074,-3.3614,-3.4449,-3.5109,-3.56,-3.56,-3.56,-3.56,-3.56,-3.56,-3.56,-3.56,-3.56,0.0,-3.56,-3.56,-3.5583,-3.5346,-3.4962,-3.437,-3.3423,-3.275,-3.2192,-3.1464,-3.119,-3.119,-3.119,-3.119,-3.119,-3.119,-3.119,-3.119,-3.119,-3.119,-3.1089,-3.0649,-2.947,-2.7847,-2.5712,-2.4883,-2.4426,-2.3745,-2.3595,-2.3595,-2.3595,-2.3595,-2.3595,-2.3595,-2.3236,-2.2688,-2.1814,-2.1306,-2.0677,-1.9813,-1.9708,-1.9708,-1.9708,-1.9563,-1.9347,-1.902,-1.8621,-1.8094,-1.7469,-1.718,-1.6879,-1.6522,-1.65,-1.65,-1.65,-1.65,-1.65,-1.65,-1.65,-1.65,-1.65,-1.65,-1.65,-1.9625,-2.0018,-1.9862,-1.9113,-1.8369,-1.7428,-1.595,-1.5028,-1.4301,-1.354,-1.3396,-1.3396,-1.3396,-1.3396,-1.3879,-1.5358,-1.6214,-1.7738,-2.0767,-2.1837,0.0,0.0,0.0,-2.7587,-2.9869,0.0,0.0,0.0,0.0,0.0,-3.1207,-3.1207,-3.1504,-3.2168,-3.2461,-3.3011,-3.3883,-3.4164,-3.4728,-3.56,-3.56,-3.56,-3.56,-3.56,-3.56,-3.56,-3.56,-3.56,0.0,-3.56,-3.56,-3.5515,-3.4793,-3.4506,-3.4303,-3.2852,-3.231,-3.2192,-3.1464,-3.119,-3.119,-3.119,-3.119,-3.119,-3.119,-3.119,-3.119,-3.119,-3.119,-3.0852,-2.9399,-2.8699,-2.7847,-2.5712,-2.4883,-2.4426,-2.3745,-2.3595,-2.3595,-2.3595,-2.3595,-2.3595,-2.3595,-2.3595,-2.3161,-2.1889,-2.1695,-2.1201,-1.9872,-1.9708,-1.9708,-1.9708,-1.9708,-1.9566,-1.9225,-1.8827,-1.8344,-1.7727,-1.7372,-1.6989,-1.6522,-1.65,-1.65,-1.65,-1.65,-1.65,-1.65,-1.65,-1.65,-1.65,-1.65,-1.65,-1.7619,-1.8488,-1.8944,-1.7704,-1.7591,-1.7276,-1.5298,-1.4673,-1.4284,-1.354,-1.3396,-1.3396,-1.3396,-1.3396,-1.3879,-1.5358,-1.5808,0.0,0.0,0.0,0.0,-2.4965,-2.7013,-2.857,0.0,0.0,0.0,0.0,0.0,0.0,-3.119,-3.119,-3.1294,-3.1504,-3.2089,-3.2543,-3.2799,-3.3389,-3.382,-3.4117,-3.4117,-3.4117,-3.4117,-3.4117,-3.4117,-3.4112,-3.4641,-3.4844,-3.4895,-3.538,-3.5295,-3.4827,-3.459,-3.3863,-3.2936,-3.2462,-3.1989,-3.1495,-3.1275,-3.119,-3.119,-3.119,-3.119,-3.119,-3.119,-3.119,-3.119,-3.119,-3.119,-3.0852,-2.9382,-2.8736,-2.7961,-2.5899,-2.5102,-2.4639,-2.4009,-2.3797,-2.3717,-2.3616,-2.3595,-2.3595,-2.3595,-2.3595,-2.3176,-2.1889,-2.1695,-2.1216,-1.9872,-1.9708,-1.9708,-1.9708,-1.9708,-1.9657,-1.9548,-1.918,-1.8655,-1.802,-1.7625,-1.7123,-1.6522,-1.65,-1.65,-1.65,-1.65,-1.65,-1.65,-1.65,-1.65,-1.65,-1.65,-1.65,-1.614,-1.6959,-1.7433,-1.6502,-1.6424,-1.6194,-1.4808,-1.4284,-1.3954,-1.3489,-1.3396,-1.3396,-1.3396,-1.3396,-1.3879,-1.5358,-1.5595,-1.6627,0.0,0.0,0.0,-2.5066,0.0,0.0,0.0,0.0,0.0,0.0,0.0,0.0,-3.119,-3.119,-3.119,-3.119,-3.165,-3.2022,-3.2293,-3.2767,-3.3119,-3.3406,-3.3406,-3.3406,-3.3406,-3.3406,-3.3406,-3.344,-3.388,-3.4235,0.0,-3.4709,-3.4675,-3.4438,-3.3901,-3.3123,-3.2276,-3.1989,-3.1579,-3.119,-3.119,-3.119,-3.119,-3.119,-3.119,-3.119,-3.119,-3.119,-3.119,-3.119,-3.119,-3.0852,-2.9382,-2.8792,-2.8092,-2.6159,-2.5387,-2.4922,-2.4292,-2.4036,-2.3846,-2.3638,-2.3595,-2.3595,-2.3595,-2.3595,-2.3176,-2.1889,-2.1695,-2.1216,-1.9872,-1.9708,-1.9708,-1.9708,-1.9708,-1.9708,-1.9708,-1.9343,-1.8808,-1.8145,-1.7713,-1.7206,-1.6522,-1.65,-1.65,-1.65,-1.65,-1.65,-1.65,-1.65,-1.65,-1.65,-1.65,-1.65,0.0,-1.5445,-1.552,-1.5453,-1.4979,-1.4496,-1.4436,-1.3887,0.0,-1.3396,-1.3396,-1.3396,-1.3396,-1.3447,-1.3946,-1.5358,-1.568,-1.6779,0.0,-2.0957,0.0,0.0,-2.8738,0.0,0.0,0.0,0.0,0.0,0.0,0.0,-3.119,-3.119,-3.119,-3.119,-3.119,-3.1532,-3.2226,-3.2226,-3.2581,-3.3254,-3.3254,-3.3254,-3.3254,-3.3254,-3.3254,0.0,-3.3305,-3.3711,-3.4286,-3.366,-3.3778,-3.4201,-3.2835,-3.2276,-3.2141,-3.1444,-3.119,-3.119,-3.119,-3.119,-3.119,-3.119,-3.119,-3.119,-3.119,-3.119,-3.119,-3.119,-3.119,-3.0852,-2.9382,-2.8846,-2.8237,-2.6431,-2.5703,-2.5214,-2.4567,-2.4235,-2.3994,-2.3659,-2.3595,-2.3595,-2.3595,-2.3595,-2.3176,-2.1949,-2.1724,-2.1216,-1.9947,-1.9738,-1.9708,-1.9708,-1.9708,-1.9708,-1.9708,-1.9343,-1.8808,-1.8145,-1.7713,-1.7206,-1.6522,-1.65,-1.65,-1.65,-1.65,-1.65,-1.65,-1.65,-1.65,-1.65,-1.65,-1.6525,-1.3137,0.0,-1.4706,-1.4135,-1.4297,-1.4425,0.0,-1.3523,-1.3396,-1.3396,-1.3396,-1.3396,-1.3396,-1.3853,-1.4546,-1.5443,-1.6559,-1.8132,-2.0581,0.0,0.0,-2.7367,-2.9058,-3.0108,0.0,0.0,0.0,0.0,0.0,-3.119,-3.119,-3.119,-3.119,-3.119,-3.119,-3.1275,-3.1464,-3.1464,-3.1546,-3.1715,-3.1715,-3.1715,-3.1715,-3.1715,-3.1715,-3.1749,-3.2327,-3.2666,-3.2852,-3.3237,-3.3169,-3.2784,-3.2446,-3.1955,-3.1427,-3.1258,-3.119,-3.119,-3.119,-3.119,-3.119,-3.119,-3.119,-3.119,-3.119,-3.119,-3.119,-3.119,-3.119,-3.0852,-2.9382,-2.8846,-2.8237,-2.6429,-2.561,-2.5114,-2.4589,-2.424,-2.3946,-2.3674,-2.3595,-2.3595,-2.3595,-2.3595,-2.334,-2.2583,-2.2044,-2.1395,-2.0554,-2.0019,-1.9708,-1.9708,-1.9708,-1.9708,-1.9708,-1.9343,-1.8808,-1.8145,-1.7713,-1.7206,-1.6522,-1.65,-1.65,-1.65,-1.65,-1.65,-1.65,-1.65,-1.65,-1.65,-1.65,-1.676,-1.2536,-1.3397,-1.4098,-1.3695,-1.4176,-1.4512,-1.3632,-1.3421,-1.3396,0.0,0.0,-1.3489,-1.3836,-1.4513,-1.5358,-1.6441,-1.785,0.0,0.0,0.0,-2.7486,-2.8264,-2.9685,0.0,0.0,0.0,0.0,0.0,0.0,-3.119,-3.119,-3.119,-3.119,-3.119,-3.119,-3.119,-3.119,-3.119,-3.119,-3.119,-3.119,-3.119,-3.119,-3.119,-3.119,-3.1207,-3.1633,-3.1989,-3.231,-3.2357,-3.2341,-3.2276,-3.1938,-3.1565,-3.119,-3.119,-3.119,-3.119,-3.119,-3.119,-3.119,-3.119,-3.119,-3.119,-3.119,-3.119,-3.119,-3.119,-3.119,-3.0852,-2.9382,-2.8846,-2.8237,-2.6429,-2.5647,-2.5153,-2.4594,-2.4224,-2.3967,-2.3674,-2.3595,-2.3595,-2.3595,-2.3595,-2.3385,-2.2793,-2.2388,-2.1819,-2.0823,-2.0378,-2.0034,-1.9738,-1.9708,-1.9708,-1.9708,-1.9417,-1.8955,-1.8316,-1.7888,-1.7352,-1.6714,-1.662,-1.6543,-1.65,-1.65,-1.65,-1.65,-1.65,-1.65,-1.65,-1.6763,-1.7087,-1.2421,-1.3218,-1.3818,-1.391,-1.4432,-1.4712,-1.3909,0.0,0.0,0.0,0.0,0.0,-1.4582,-1.5395,0.0,0.0,0.0,0.0,-2.4288,-2.659,-2.8247,-2.8925,-3.0313,0.0,0.0,0.0,0.0,0.0,0.0,-3.119,-3.119,-3.119,-3.119,-3.119,-3.119,-3.119,-3.119,-3.119,-3.119,-3.119,-3.119,-3.119,-3.119,-3.119,-3.119,-3.119,0.0,0.0,-3.209,-3.1464,-3.1582,-3.2073,-3.1427,-3.119,-3.119,-3.119,-3.119,-3.119,-3.119,-3.119,-3.119,-3.119,-3.119,-3.119,-3.119,-3.119,-3.119,-3.119,-3.119,-3.0852,-2.9382,-2.8846,-2.8237,-2.6431,-2.5684,-2.5195,-2.4547,-2.4251,-2.3994,-2.3659,-2.3595,-2.3595,-2.3595,-2.3595,-2.343,-2.2912,-2.2763,-2.2298,-2.1156,-2.0932,-2.0647,-2.0067,-2.0007,-2.0007,-2.0007,-1.9838,-1.9486,-1.8953,-1.8264,-1.7598,-1.6926,-1.6761,-1.662,-1.65,-1.65,-1.65,-1.65,-1.65,-1.6538,-1.6638,-1.7149,-1.7498,-1.1823,-1.3106,-1.4336,-1.4836,-1.5015,-1.4996,-1.4738,0.0,0.0,0.0,0.0,0.0,0.0,-1.6703,-1.7688,0.0,0.0,-2.3477,0.0,0.0,-2.8857,-2.8993,0.0,0.0,0.0,0.0,0.0,0.0,0.0,-3.119,-3.119,-3.119,-3.119,-3.119,-3.119,-3.119,-3.119,-3.119,-3.119,-3.119,-3.119,-3.119,-3.119,-3.119,-3.119,-3.119,0.0,-3.1258,-3.136,-3.1241,-3.1258,-3.136,-3.1241,-3.119,-3.119,-3.119,-3.119,-3.119,-3.119,-3.119,-3.119,-3.119,-3.119,-3.119,-3.119,-3.119,-3.119,-3.119,-3.119,-3.0852,-2.9382,-2.8846,-2.8237,-2.6429,-2.5626,-2.5095,-2.4589,-2.4234,-2.3925,-2.3638,-2.3595,-2.3595,-2.3595,-2.3595,-2.3565,-2.3475,-2.3032,-2.2628,-2.2418,-2.1889,-2.15,-2.1395,-2.138,-2.138,-2.138,-2.1262,-2.1069,-2.0793,-1.9171,-1.7854,-1.7026,-1.668,-1.6522,-1.65,-1.65,-1.65,-1.65,-1.65,-1.6773,-1.725,-1.736,-1.789,-1.1615,-1.3126,-1.4622,-1.5789,-1.6317,-1.6419,-1.5835,-1.5531,0.0,0.0,0.0,0.0,0.0,0.0,-1.9808,-2.1236,0.0,-2.4966,-2.6048,-2.7808,-2.8993,0.0,0.0,0.0,0.0,0.0,0.0,0.0,0.0,-3.119,-3.119,-3.119,-3.119,-3.119,-3.119,-3.119,-3.119,-3.119,-3.119,-3.119,-3.119,-3.119,-3.119,-3.119,-3.119,-3.119,0.0,-3.119,-3.119,-3.119,-3.119,-3.119,-3.119,-3.119,-3.119,-3.119,-3.119,-3.119,-3.119,-3.119,-3.119,-3.119,-3.119,-3.119,-3.119,-3.119,-3.119,-3.119,-3.119,-3.0852,-2.9382,-2.8846,-2.8237,-2.6431,-2.5647,-2.5137,-2.4578,-2.4245,-2.3952,-2.3659,-2.3595,-2.3595,-2.3595,-2.3595,-2.3595,-2.3595,-2.3355,-2.3077,-2.2748,-2.2433,-2.2104,-2.1739,-2.1695,-2.1695,-2.1695,-2.1635,-2.1385,-2.0864,-1.9642,-1.8671,-1.8057,-1.7638,-1.7426,-1.7426,-1.7426,-1.7426,-1.7426,-1.7426,-1.7564,-1.784,-1.8129,-1.8519,-1.1648,-1.3064,-1.4526,-1.6132,0.0,-1.7651,-1.69,-1.6641,0.0,0.0,0.0,0.0,0.0,-2.0505,0.0,-2.4173,-2.515,-2.5879,-2.659,-2.7876,-2.879,-2.8976,-3.0008,0.0,0.0,0.0,0.0,0.0,-3.0666,-3.0666,-3.0666,-3.0852,-3.0937,-3.0937,-3.1106,-3.119,-3.119,-3.119,-3.119,-3.119,-3.119,-3.119,-3.119,-3.119,-3.119,-3.119,-3.119,-3.119,-3.119,-3.119,-3.119,-3.119,-3.119,-3.119,-3.119,-3.119,-3.119,-3.119,-3.119,-3.119,-3.119,-3.119,-3.119,-3.119,-3.119,-3.119,-3.119,-3.119,-3.119,-3.0886,-2.9602,-2.8999,-2.8308,-2.6718,-2.5909,-2.5329,-2.4708,-2.4379,-2.412,-2.376,-2.3674,-2.3653,-2.3595,-2.3595,-2.3595,-2.3595,-2.3595,-2.343,-2.2972,-2.2912,-2.2718,-2.2203,-2.2143,-2.2143,-2.2143,-2.2143,-2.1848,-2.1148,-2.016,-1.9405,-1.9002,-1.8474,-1.8204,-1.8204,-1.8204,-1.8204,-1.8204,-1.8204,-1.8267,-1.8405,-1.8807,-1.907,-1.187,-1.2719,-1.377,-1.538,-1.6894,0.0,-1.7738,-1.803,0.0,-1.856,0.0,0.0,0.0,-2.1896,-2.3167,-2.4479,-2.5244,-2.5943,-2.6606,0.0,-2.8145,-2.8908,-2.9094,0.0,0.0,0.0,0.0,-2.9162,-2.9162,-2.9162,-2.9162,-2.9803,-3.0192,-3.0192,-3.0835,-3.119,-3.119,-3.119,-3.119,-3.119,-3.119,-3.119,-3.119,-3.119,-3.119,-3.119,-3.119,-3.119,-3.119,-3.119,-3.119,-3.119,-3.119,-3.119,-3.119,-3.119,-3.119,-3.119,-3.119,-3.119,-3.119,-3.119,-3.119,-3.119,-3.119,-3.119,-3.119,-3.119,-3.119,-3.1021,-3.0226,-2.9406,-2.8535,-2.7529,-2.6559,-2.5715,-2.5169,-2.4795,-2.4446,-2.4046,-2.3861,-2.3739,-2.3616,-2.3595,-2.3595,-2.3595,-2.3595,-2.358,-2.3535,-2.3535,-2.352,-2.3475,-2.346,-2.346,-2.346,-2.346,-2.3309,-2.2937,-2.1016,-1.9688,-1.9301,-1.859,-1.8204,-1.8204,-1.8204,-1.8204,-1.8204,-1.8204,-1.8468,-1.8945,-1.8983,-1.9259,-1.2632,-1.344,-1.4426,-1.6034,-1.7254,0.0,0.0,-1.9524,-2.0601,-2.1654,-2.2714,0.0,0.0,0.0,-2.5283,-2.4934,-2.5819,-2.6599,-2.6691,-2.7317,-2.7908,-2.823,-2.8687,0.0,0.0,0.0,-2.8993,-2.8993,-2.8993,-2.8993,-2.8993,-2.9264,-2.9433,-2.9433,-2.9687,-2.9839,-2.9839,-3.0294,-3.0531,-3.0531,-3.097,-3.119,-3.119,-3.119,-3.119,-3.119,-3.119,-3.119,-3.119,-3.119,-3.119,-3.119,-3.119,-3.119,-3.119,-3.119,-3.119,-3.119,-3.119,-3.119,-3.119,-3.119,-3.119,-3.119,-3.119,-3.119,-3.119,-3.119,-3.119,-3.1021,-3.0294,-2.985,-2.9271,-2.7951,-2.7303,-2.6717,-2.5838,-2.5349,-2.4922,-2.4359,-2.4105,-2.3909,-2.3638,-2.3595,-2.3595,-2.3595,-2.3595,-2.3595,-2.3595,-2.3595,-2.3595,-2.3595,-2.3595,-2.3595,-2.3595,-2.3595,-2.3501,-2.3253,-2.1987,-2.1121,-2.0745,-2.0055,-1.9641,-1.9567,-1.9482,-1.9382,-1.9321,-1.9233,-1.9309,-1.951,-1.951,-1.961,-1.3151,-1.3697,-1.4517,-1.6126,0.0,0.0,-1.9376,-2.0743,-2.2193,-2.3573,-2.4718,-2.5415,-2.536,0.0,0.0,0.0,-2.6489,-2.7149,-2.6891,-2.7283,-2.7709,-2.7964,-2.8253,-2.8526,-2.8799,-2.8577,-2.844,-2.844,-2.8406,-2.8388,-2.837,-2.8572,-2.8673,-2.8619,-2.8874,-2.8993,-2.8993,-2.9517,-2.9927,-3.0202,-3.0732,-3.1068,-3.119,-3.119,-3.119,-3.119,-3.119,-3.119,-3.119,-3.119,-3.119,-3.119,-3.119,-3.119,-3.119,-3.119,-3.119,-3.119,-3.119,-3.119,-3.119,-3.119,-3.119,-3.119,-3.119,-3.119,-3.119,-3.119,-3.119,-3.1072,-3.0581,-3.0258,-2.9818,-2.877,-2.8073,-2.7406,-2.6602,-2.594,-2.531,-2.4632,-2.4318,-2.4036,-2.3659,-2.3595,-2.3595,-2.3595,-2.3595,-2.3595,-2.3595,-2.3595,-2.3595,-2.3595,-2.3595,-2.3595,-2.3595,-2.3595,-2.3523,-2.3363,-2.2777,-2.2235,-2.1827,-2.1261,-2.0881,-2.0734,-2.0485,-2.0296,-2.0131,-1.9914,-1.9798,-1.9798,-1.9798,-1.9798,-1.3317,-1.3317,-1.3702,0.0,0.0,0.0,-2.0162,-2.1671,-2.297,-2.3858,-2.5319,-2.6403,-2.6329,-2.6814,0.0,-2.6674,-2.7177,-2.7509,-2.7244,-2.7197,-2.7506,-2.8299,-2.7696,-2.7523,-2.8316,-2.7678,-2.7197,-2.7197,-2.7133,-2.7087,-2.7007,-2.7623,-2.7929,-2.779,-2.8552,-2.8976,-2.8976,-2.9048,-2.9531,-3.0392,-3.0482,-3.0747,-3.121,-3.121,-3.121,-3.121,-3.121,-3.121,-3.121,-3.121,-3.121,-3.121,-3.121,-3.119,-3.119,-3.119,-3.119,-3.119,-3.119,-3.119,-3.119,-3.119,-3.119,-3.119,-3.119,-3.119,-3.119,-3.119,-3.119,-3.119,-3.119,-3.0666,-3.0125,-3.0108,-2.8884,-2.7646,-2.7448,-2.6521,-2.5516,-2.4831,-2.4497,-2.4156,-2.3681,-2.3595,-2.3595,-2.3595,-2.3595,-2.3595,-2.3595,-2.3595,-2.3595,-2.3595,-2.3595,-2.3595,-2.3595,-2.3595,-2.3566,-2.3509,-2.3253,-2.2867,-2.2314,-2.1913,-2.1615,-2.1393,-2.0993,-2.0684,-2.0397,-2.0016,-1.9798,-1.9798,-1.9798,-1.9798,-1.467,-1.4982,0.0,-1.7681,0.0,0.0,0.0,-2.3473,0.0,0.0,-2.7896,-2.8061,-2.7464,0.0,0.0,-2.7151,-2.7585,-2.794,-2.7725,-2.7695,0.0,-2.8014,-2.7853,-2.7801,-2.8029,-2.7836,-2.7695,-2.7695,-2.758,-2.7428,-2.7211,-2.7308,-2.7265,-2.7029,-2.7249,-2.7368,-2.7368,-2.8066,-2.887,-2.9851,-3.0525,-3.1113,-3.1632,-3.1632,-3.1632,-3.1632,-3.1632,-3.1632,-3.1632,-3.1632,-3.1559,-3.1483,-3.1423,-3.1366,-3.1254,-3.123,-3.119,-3.119,-3.119,-3.119,-3.119,-3.119,-3.119,-3.119,-3.119,-3.119,-3.119,-3.119,-3.119,-3.119,-3.119,-3.1038,-3.0734,-3.0207,-2.9751,-2.9072,-2.7937,-2.7228,-2.6473,-2.5278,-2.4764,-2.4323,-2.3717,-2.3595,-2.3595,-2.3595,-2.3595,-2.3595,-2.3595,-2.3595,-2.3595,-2.3595,-2.3595,-2.3595,-2.3595,-2.3595,-2.3588,-2.3566,-2.3501,-2.3201,-2.2603,-2.2235,-2.1851,-2.141,-2.1006,-2.061,-2.0258,-1.9965,-1.9798,-1.9798,-1.9798,-1.9798,-1.5258,-1.5698,0.0,-1.8691,-1.9528,-2.0592,-2.3721,0.0,0.0,0.0,-2.9005,-2.8858,-2.8374,-2.8587,0.0,-2.7906,-2.8106,-2.8299,-2.8124,-2.811,0.0,-2.811,-2.811,-2.811,-2.811,-2.811,-2.811,-2.811,-2.7971,-2.7771,-2.7502,-2.7369,-2.7182,-2.6907,-2.6907,-2.6907,-2.6907,-2.7582,-2.8396,-2.9384,-3.0017,-3.0699,-3.139,-3.1865,-3.2091,-3.2091,-3.2091,-3.2091,-3.2091,-3.2091,-3.2003,-3.1859,-3.1693,-3.1542,-3.1408,-3.1252,-3.119,-3.119,-3.119,-3.119,-3.119,-3.119,-3.119,-3.119,-3.119,-3.119,-3.119,-3.119,-3.119,-3.119,-3.119,-3.119,-3.1089,-3.0649,-3.0311,-2.9835,-2.8906,-2.8174,-2.7358,-2.6249,-2.572,-2.5209,-2.4499,-2.4178,-2.4014,-2.4014,-2.3774,-2.3595,-2.3595,-2.3595,-2.3595,-2.3595,-2.3595,-2.3595,-2.3595,-2.3595,-2.3595,-2.3595,-2.3595,-2.3399,-2.2957,-2.2595,-2.217,-2.1664,-2.108,-2.0635,-2.0271,-1.9965,-1.9798,-1.9798,-1.9798,-1.9798,-1.5331,0.0,0.0,-1.8893,-2.0189,0.0,-2.5721,-2.6602,-2.706,-2.8675,0.0,-2.9005,-2.9005,-2.894,-2.8881,-2.8761,-2.8675,-2.86,-2.8479,-2.8448,-2.8448,-2.8448,-2.8448,-2.8448,-2.8448,-2.8448,-2.8448,-2.8448,-2.8335,-2.8146,-2.7876,-2.7733,-2.7539,-2.7276,-2.7276,-2.7276,-2.7276,-2.7524,-2.812,-2.9056,-2.9258,-2.9858,-3.0797,-3.186,-3.2391,-3.2462,-3.2533,-3.255,-3.255,-3.255,-3.2468,-3.23,-3.1968,-3.175,-3.1579,-3.1308,-3.119,-3.119,-3.119,-3.119,-3.119,-3.119,-3.119,-3.119,-3.119,-3.119,-3.119,-3.119,-3.119,-3.119,-3.119,-3.119,-3.119,-3.119,-3.0683,-3.0192,-3.0106,-2.9211,-2.8178,-2.7435,-2.6983,-2.6468,-2.5731,-2.5083,-2.4679,-2.4619,-2.4022,-2.3595,-2.3595,-2.3595,-2.3595,-2.3595,-2.3595,-2.3595,-2.3595,-2.3595,-2.3595,-2.3595,-2.3595,-2.3523,-2.3319,-2.2912,-2.248,-2.1996,-2.1188,-2.066,-2.0372,-1.9978,-1.9798,-1.9798,-1.9798,-1.9798,-1.5869,-1.6633,0.0,0.0,-2.2345,-2.3969,-2.6106,-2.6602,-2.706,-2.8675,-2.9005,-2.9005,-2.9005,-2.8994,-2.897,-2.8929,-2.8917,-2.8893,-2.887,-2.887,-2.887,-2.887,-2.887,-2.887,-2.887,-2.887,-2.887,-2.887,-2.8749,-2.8551,-2.8277,-2.8129,-2.7968,-2.7754,-2.7754,-2.7754,-2.7754,-2.7911,-2.8495,-2.9471,-2.9669,-3.0293,-3.125,-3.1142,-3.1422,-3.2061,-3.2706,-3.2975,-3.2975,-3.2975,-3.283,-3.2569,-3.2196,-3.1914,-3.1709,-3.1346,-3.119,-3.119,-3.119,-3.119,-3.119,-3.119,-3.119,-3.119,-3.119,-3.119,-3.119,-3.119,-3.119,-3.119,-3.119,-3.119,-3.119,-3.119,-3.1072,-3.0801,-3.0243,-2.9646,-2.8856,-2.7552,-2.6983,-2.6468,-2.5731,-2.5495,-2.5202,-2.4679,-2.4022,-2.3595,-2.3595,-2.3595,-2.3595,-2.3595,-2.3595,-2.3595,-2.3595,-2.3595,-2.3595,-2.3595,-2.3595,-2.3523,-2.3319,-2.2912,-2.2434,-2.1841,-2.1153,-2.061,-2.0233,-1.9939,-1.9798,-1.9798,-1.9798,-1.9798,-1.5557,0.0,0.0,-2.0986,0.0,-2.4989,-2.5823,-2.6612,-2.742,-2.8253,-2.873,-2.9005,-2.9005,-2.9005,-2.9005,-2.9005,-2.9005,-2.9005,-2.9005,-2.9005,-2.9005,-2.9005,-2.9005,-2.9005,-2.9005,-2.9005,-2.9005,-2.9005,-2.8905,-2.8767,-2.8558,-2.8443,-2.8313,-2.8151,-2.8138,-2.8138,-2.8138,-2.8273,-2.8616,-2.9156,-2.9331,-2.9704,-3.0271,-3.0795,-3.1266,-3.1683,-3.2101,-3.25,-3.2849,-3.2849,-3.2921,-3.299,-3.2502,-3.2127,-3.1839,-3.1368,-3.119,-3.119,-3.119,-3.119,-3.119,-3.119,-3.119,-3.1123,-3.0784,-3.092,-3.1123,-3.0768,-3.092,-3.119,-3.119,-3.119,-3.119,-3.119,-3.119,-3.1089,-3.0717,-3.0282,-2.9663,-2.8512,-2.7946,-2.7411,-2.6687,-2.6288,-2.5854,-2.5173,-2.4612,-2.4275,-2.4275,-2.3864,-2.3595,-2.3595,-2.3984,-2.4096,-2.364,-2.3894,-2.3954,-2.3625,-2.3595,-2.3545,-2.3385,-2.3083,-2.2572,-2.1926,-2.1177,-2.0635,-2.0296,-1.9952,-1.9798,-1.9798,-1.9798,-1.9949,-1.4829,0.0,-1.8034,-2.106,-2.341,0.0,-2.5338,-2.6421,-2.7467,-2.7732,-2.8436,-2.9005,-2.9005,-2.9005,-2.9005,-2.9005,-2.9005,-2.9005,-2.9005,-2.9005,-2.9005,-2.9005,-2.9005,-2.9005,-2.9005,-2.9005,-2.9005,-2.9005,-2.894,-2.887,-2.8755,-2.87,-2.8625,-2.8518,-2.8505,-2.8505,-2.8505,-2.8625,-2.87,-2.8743,-2.887,-2.894,-2.906,-3.0375,-3.1054,-3.1213,-3.1342,-3.177,-3.2399,-3.2546,-3.2844,-3.3164,-3.2727,-3.2368,-3.202,-3.1485,-3.1288,-3.1269,-3.1249,-3.123,-3.123,-3.121,-3.119,-3.1089,-3.048,-3.0717,-3.1072,-3.0463,-3.0734,-3.119,-3.119,-3.119,-3.119,-3.119,-3.119,-3.119,-3.119,-3.0834,-3.0284,-2.954,-2.8904,-2.8319,-2.771,-2.7031,-2.6348,-2.5794,-2.5368,-2.5099,-2.5099,-2.423,-2.3595,-2.3595,-2.429,-2.453,-2.3984,-2.4231,-2.4261,-2.3864,-2.3804,-2.379,-2.3859,-2.3644,-2.32,-2.2493,-2.1526,-2.0879,-2.0603,-2.0257,-2.01,-2.01,-2.01,-2.0351,-1.3998,0.0,-1.9426,0.0,-2.2575,-2.3694,0.0,0.0,-2.6127,0.0,-2.8436,-2.9005,-2.9005,-2.9005,-2.9005,-2.9005,-2.9005,-2.9005,-2.9005,-2.9005,-2.9005,-2.9005,-2.9005,-2.9005,-2.9005,-2.9005,-2.9005,-2.9005,-2.8994,-2.8982,-2.897,-2.8959,-2.8947,-2.8917,-2.8917,-2.8917,-2.8917,-2.8947,-2.8959,-2.897,-2.8982,-2.8994,-2.9005,-2.9225,-2.9702,-3.0393,-3.1103,-3.147,-3.1604,-3.2307,-3.2542,-3.2476,-3.2688,-3.2636,-3.2387,-3.1893,-3.1653,-3.154,-3.1481,-3.1387,-3.1274,-3.123,-3.119,-3.1173,-3.1072,-3.1123,-3.1173,-3.1072,-3.1123,-3.119,-3.119,-3.119,-3.119,-3.119,-3.119,-3.119,-3.119,-3.0834,-3.0284,-2.954,-2.8519,-2.771,-2.7625,-2.6896,-2.6312,-2.6207,-2.5794,-2.5525,-2.5525,-2.4403,-2.3595,-2.3595,-2.3714,-2.4208,-2.5255,-2.4358,-2.4029,-2.4754,-2.4597,-2.4724,-2.5307,-2.5299,-2.5003,-2.4428,-2.2715,-2.1689,-2.1342,-2.1301,-2.1255,-2.1255,-2.1255,-2.1333,-1.4383,-1.7186,-1.9591,0.0,-2.2034,-2.3189,-2.3896,0.0,-2.5595,-2.6311,-2.7438,-2.8473,-2.8932,-2.9005,-2.9005,-2.9005,-2.9005,-2.9005,-2.9005,-2.9005,-2.9005,-2.9005,-2.9005,-2.9005,-2.9005,-2.9005,-2.9005,-2.9005,-2.9005,-2.9005,-2.9005,-2.9005,-2.9005,-2.9005,-2.9005,-2.9005,-2.9005,-2.9005,-2.9005,-2.9005,-2.9005,-2.9005,-2.9005,-2.9005,-2.9189,-2.9537,-2.9898,-3.032,-3.076,-3.1109,-3.1417,-3.1688,-3.1668,-3.1556,-3.134,-3.0985,-3.1046,-3.1289,-3.1075,-3.1202,-3.1447,-3.1269,-3.119,-3.1123,-3.0717,-3.0869,-3.1106,-3.07,-3.0886,-3.119,-3.119,-3.119,-3.119,-3.119,-3.119,-3.119,-3.119,-3.0895,-3.0342,-2.94,-2.8479,-2.779,-2.774,-2.7335,-2.7031,-2.7031,-2.6851,-2.6707,-2.6707,-2.6222,-2.5279,-2.3759,-2.4926,-2.6087,-2.6686,-2.6192,-2.5593,-2.5047,-2.5106,-2.5277,-2.56,-2.5615,-2.534,-2.481,-2.3554,-2.269,-2.2247,-2.1754,-2.1493,-2.1493,-2.1493,-2.1656,-1.434,-1.6543,-1.8427,-1.9832,-2.1135,-2.2217,0.0,0.0,-2.4915,0.0,-2.6347,-2.7438,-2.8235,-2.873,-2.9005,-2.9005,-2.9005,-2.9005,-2.9005,-2.9005,-2.9005,-2.9005,-2.9005,-2.9005,-2.9005,-2.9005,-2.9005,-2.9005,-2.9005,-2.9005,-2.9005,-2.9005,-2.9005,-2.9005,-2.9005,-2.9005,-2.9005,-2.9005,-2.9005,-2.9005,-2.9005,-2.9005,-2.9005,-2.9005,-2.9005,-2.9005,-2.9005,-2.9335,-2.9916,-3.0118,-3.0485,-3.0925,-3.088,-3.075,-3.0571,-3.0338,-3.0543,-3.0911,-3.0784,-3.1062,-3.145,-3.1374,-3.1327,-3.1206,-3.0624,-3.0825,-3.1111,-3.0531,-3.0784,-3.119,-3.119,-3.119,-3.119,-3.119,-3.119,-3.119,-3.1131,-3.0855,-3.0326,-2.9416,-2.8669,-2.8146,-2.7974,-2.775,-2.76,-2.76,-2.76,-2.76,-2.76,-2.76,-2.6836,-2.4844,-2.6417,-2.76,-2.76,-2.76,-2.7046,-2.5728,-2.5764,-2.5929,-2.6093,-2.6108,-2.5868,-2.5288,-2.4474,-2.3712,-2.3004,-2.227,-2.1907,-2.1907,-2.1907,-2.2133,-1.2968,-1.4064,-1.5484,-1.8599,-1.9426,0.0,0.0,0.0,0.0,-2.5081,-2.5466,-2.5778,-2.6576,-2.7959,-2.9005,-2.9005,-2.9005,-2.9005,-2.9005,-2.9005,-2.9005,-2.9005,-2.9005,-2.9005,-2.9005,-2.9005,-2.9005,-2.9005,-2.9005,-2.9005,-2.9005,-2.9005,-2.9005,-2.9005,-2.9005,-2.9005,-2.9005,-2.9005,-2.9005,-2.9005,-2.9005,-2.9005,-2.9005,-2.9005,-2.9005,-2.9005,-2.9005,-2.9023,-2.9115,-2.9886,-3.018,-3.0222,-3.0846,-3.1012,-3.0848,-3.0715,-3.0573,-3.0516,-3.1007,-3.111,-3.1115,-3.1613,-3.1671,-3.156,-3.1466,-3.137,-3.1276,-3.1179,-3.1157,-3.119,-3.119,-3.119,-3.119,-3.119,-3.119,-3.1151,-3.0952,-3.0597,-3.0166,-2.9661,-2.9134,-2.867,-2.8312,-2.7894,-2.76,-2.76,-2.76,-2.76,-2.76,-2.76,-2.754,-2.7405,-2.751,-2.76,-2.76,-2.76,-2.7555,-2.7465,-2.6896,-2.6811,-2.7465,-2.7495,-2.7202,-2.6608,-2.5753,-2.4723,-2.3548,-2.3186,-2.302,-2.302,-2.302,-2.3032,-1.2223,-1.3128,0.0,-1.6433,-1.7381,-1.8254,-2.0189,-2.1455,-2.2538,-2.3639,-2.4677,-2.5485,-2.5778,-2.6722,-2.7629,-2.8154,-2.8227,-2.8411,-2.8932,-2.9005,-2.9005,-2.9005,-2.9005,-2.9005,-2.9005,-2.9005,-2.9005,-2.9005,-2.9005,-2.9005,-2.9005,-2.9005,-2.9005,-2.9005,-2.9005,-2.9005,-2.9005,-2.9005,-2.9005,-2.9005,-2.9005,-2.9005,-2.9005,-2.9005,-2.9005,-2.9005,-2.9005,-2.9005,-2.9023,-2.9317,-2.9415,-2.9428,-2.9661,-2.9716,-2.9673,-2.9629,-2.9836,-3.0148,-3.0163,-3.0736,-3.1453,-3.1474,-3.1742,-3.202,-3.182,-3.1635,-3.1447,-3.1269,-3.119,-3.119,-3.119,-3.119,-3.119,-3.119,-3.119,-3.1171,-3.1112,-3.0814,-3.0447,-3.0065,-2.9522,-2.9005,-2.8677,-2.8042,-2.76,-2.76,-2.76,-2.76,-2.76,-2.76,-2.76,-2.76,-2.76,-2.76,-2.76,-2.76,-2.76,-2.76,-2.7375,-2.7345,-2.7585,-2.76,-2.7372,-2.6896,-2.6081,-2.5163,-2.4175,-2.3441,-2.3108,-2.3108,-2.3108,-2.3108,-1.1485,-1.2095,0.0,0.0,0.0,-1.6585,-1.8463,0.0,-2.1353,-2.2712,-2.3859,-2.4677,-2.4952,-2.5419,-2.6153,-2.7218,-2.7402,-2.7585,-2.8124,-2.8198,-2.8198,-2.8198,-2.8198,-2.8198,-2.8198,-2.8198,-2.8198,-2.8198,-2.8198,0.0,-2.8198,-2.8198,-2.8326,-2.8583,-2.8601,-2.873,-2.9005,-2.9005,-2.9005,-2.9005,-2.9005,-2.9005,-2.9005,-2.9005,-2.9005,-2.9005,-2.9005,-2.9005,-2.9005,-2.9005,-2.9005,-2.9005,-2.9005,-2.9005,-2.9005,-2.9005,-2.9265,-2.9636,-2.9668,-3.0458,-3.1461,-3.1482,-3.1914,-3.2385,-3.2056,-3.1821,-3.1596,-3.1288,-3.119,-3.119,-3.119,-3.119,-3.119,-3.119,-3.119,-3.119,-3.119,-3.1032,-3.0773,-3.0485,-3.0146,-2.9694,-2.9159,-2.8398,-2.79,-2.7944,-2.776,-2.76,-2.76,-2.76,-2.76,-2.76,-2.76,-2.76,-2.76,-2.76,-2.76,-2.76,-2.76,-2.76,-2.76,-2.76,-2.7423,-2.7067,-2.639,-2.5659,-2.4879,-2.3796,-2.3228,-2.3198,-2.3138,-2.3108,0.0,0.0,0.0,0.0,0.0,0.0,-1.7447,0.0,-1.995,-2.2382,-2.2933,-2.3208,-2.4025,-2.4153,-2.4685,-2.6282,-2.6547,-2.6565,-2.6602,-2.6602,-2.6602,-2.6602,-2.6602,-2.6602,-2.6602,-2.6602,-2.6602,-2.6602,-2.6602,-2.6602,-2.6602,-2.6602,-2.6961,-2.7732,-2.7787,-2.8172,-2.8968,-2.8987,-2.9005,-2.9005,-2.9005,-2.9005,-2.9005,-2.9005,-2.9005,-2.9005,-2.9005,-2.9005,-2.9005,-2.9005,-2.9005,-2.9005,-2.9005,-2.9005,-2.9005,-2.9005,-2.8952,-2.8991,-2.9561,-3.0323,-3.1106,-3.1686,-3.2248,-3.2635,-3.223,-3.1967,-3.1726,-3.1308,-3.119,-3.119,-3.119,-3.119,-3.119,-3.119,-3.119,-3.119,-3.119,-3.119,-3.1131,-3.0952,-3.0949,-3.0688,-2.9798,-2.8975,-2.8477,-2.8654,-2.8067,-2.76,-2.76,-2.76,-2.76,-2.76,-2.76,-2.76,-2.76,-2.76,-2.76,-2.76,-2.76,-2.76,-2.76,-2.76,-2.7473,-2.7207,-2.6762,-2.6229,-2.5618,-2.4263,-2.3539,-2.3403,-2.3198,-2.3108,-1.154,0.0,0.0,0.0,0.0,0.0,0.0,0.0,0.0,-2.006,-2.1298,-2.2373,-2.3171,-2.3318,-2.3676,-2.4704,-2.5346,-2.5944,-2.6521,-2.6602,-2.6602,-2.6602,-2.6602,-2.6602,-2.6602,-2.6602,-2.6602,0.0,-2.6602,-2.6602,-2.6602,-2.6602,-2.6704,-2.6924,-2.7493,-2.7908,-2.8136,-2.8712,-2.9005,-2.9005,-2.9005,-2.9005,-2.9005,-2.9005,-2.9005,-2.9005,-2.9005,-2.9005,-2.9005,-2.9005,-2.9005,-2.9005,-2.9005,-2.9005,-2.9005,-2.9005,-2.8994,-2.9,-2.9161,-3.0137,-3.1325,-3.1475,-3.2305,-3.3101,-3.2568,-3.2179,-3.1841,-3.1329,-3.119,-3.119,-3.119,-3.119,-3.119,-3.119,-3.119,-3.119,-3.119,-3.119,-3.1151,-3.0995,-3.0871,-3.0729,-3.0568,-2.9798,-2.8889,-2.8018,-2.7735,-2.76,-2.76,-2.76,-2.76,-2.76,-2.76,-2.76,-2.76,-2.76,-2.76,-2.76,-2.76,-2.76,-2.76,-2.76,-2.7524,-2.735,-2.6982,-2.6522,-2.5961,-2.4723,-2.3972,-2.3679,-2.3275,-2.3108,-1.1966,-1.1764,0.0,0.0,0.0,0.0,-1.4218,-1.5851,0.0,0.0,-2.0087,-2.1115,-2.2281,-2.2501,-2.2648,-2.3116,-2.3593,-2.4291,-2.5438,-2.5603,-2.5603,-2.5603,-2.5603,-2.5603,-2.5603,-2.5603,-2.5603,-2.5603,-2.5603,-2.5603,-2.5603,-2.5603,-2.575,-2.608,-2.6549,-2.7119,-2.7787,-2.8264,-2.8675,-2.9005,-2.9005,-2.9005,-2.9005,-2.9005,-2.9005,-2.9005,-2.9005,-2.9005,-2.9005,-2.9005,-2.9005,-2.9005,-2.9005,-2.9005,-2.9005,-2.9005,-2.9005,-2.9005,-2.9005,-3.0063,-3.1397,-3.1397,-3.2333,-3.3345,-3.2779,-3.2384,-3.202,-3.1483,-3.1249,-3.119,-3.119,-3.119,-3.119,-3.119,-3.119,-3.119,-3.119,-3.119,-3.1171,-3.1112,-3.0975,-3.0895,-3.0834,-3.0468,-2.9832,-2.874,-2.8204,-2.785,-2.7625,-2.76,-2.76,-2.76,-2.76,-2.76,-2.76,-2.76,-2.76,-2.76,-2.76,-2.772,-2.8019,-2.8034,-2.8117,-2.8323,-2.7843,-2.7009,-2.5825,-2.4908,-2.4134,-2.3488,-2.3245,-2.3108,-1.2609,-1.2572,0.0,-1.2388,-1.2908,0.0,-1.4218,-1.5068,-1.6304,0.0,0.0,-1.9517,-2.1096,-2.139,-2.1427,-2.15,-2.1592,-2.2216,-2.3841,-2.4061,-2.4098,-2.419,-2.419,-2.419,-2.419,-2.419,-2.419,-2.419,-2.419,-2.419,-2.419,-2.419,-2.453,-2.5246,-2.5338,-2.609,-2.7523,-2.7714,-2.8154,-2.8877,-2.8968,-2.9005,-2.9005,-2.9005,-2.9005,-2.9005,-2.9005,-2.9005,-2.9005,-2.9005,-2.9005,-2.9005,-2.9005,-2.9005,-2.9005,-2.9005,-2.9005,-2.9005,-2.9005,-3.0063,-3.1397,-3.1397,-3.2359,-3.3433,-3.2986,-3.2602,-3.2231,-3.167,-3.1366,-3.119,-3.119,-3.119,-3.119,-3.119,-3.119,-3.119,-3.119,-3.119,-3.119,-3.119,-3.119,-3.1112,-3.0801,-3.1015,-3.0952,-3.0162,-2.9206,-2.8332,-2.7675,-2.76,-2.76,-2.76,-2.76,-2.76,-2.76,-2.76,-2.76,-2.76,-2.76,-2.7869,-2.8457,-2.8562,-2.8846,-2.9382,-2.876,-2.7435,-2.5453,-2.4922,-2.4134,-2.3108,-2.3108,-2.3108,-1.5796,-1.5484,-1.4829,-1.4181,-1.4145,0.0,-1.3642,-1.4652,-1.5827,0.0,-1.6922,-1.7667,-1.8647,-1.8812,-1.9032,-1.9683,-2.0335,-2.1336,-2.3006,-2.3226,-2.3465,-2.4116,-2.419,-2.419,-2.419,-2.419,-2.419,-2.419,-2.419,-2.419,-2.419,-2.419,-2.4263,-2.4438,-2.5062,-2.554,-2.587,-2.7155,-2.789,-2.8044,-2.8693,-2.9005,-2.9005,-2.9005,-2.9005,-2.9005,-2.9005,-2.9005,-2.9005,-2.9005,-2.9005,-2.9005,-2.9005,-2.9005,-2.9005,-2.9005,-2.9005,-2.9005,-2.9005,-3.0063,-3.1397,-3.1397,-3.2381,-3.3516,-3.3232,-3.2892,-3.2487,-3.1784,-3.1404,-3.119,-3.119,-3.119,-3.119,-3.119,-3.119,-3.119,-3.119,-3.119,-3.119,-3.119,-3.119,-3.1171,-3.1114,-3.1151,-3.1151,-3.0972,-3.0189,-2.9106,-2.776,-2.76,-2.76,-2.76,-2.76,-2.76,-2.76,-2.76,-2.76,-2.76,-2.76,-2.766,-2.7794,-2.8308,-2.8397,-2.8004,-2.755,-2.6787,-2.5713,-2.4922,-2.4047,-2.3108,-2.3108,-2.3108,-1.6798,-1.6615,-1.6108,-1.5307,0.0,0.0,0.0,-1.4517,-1.5215,-1.5625,-1.6054,-1.6593,-1.7403,0.0,-1.7688,-1.8139,-1.8499,-1.9324,-2.0964,-2.1894,-2.2556,-2.2969,-2.3006,-2.3162,-2.3566,-2.3602,-2.3768,-2.4171,-2.419,-2.419,-2.419,-2.419,-2.419,-2.419,-2.4585,-2.4989,-2.5393,-2.6201,-2.6806,-2.7218,-2.7611,-2.8014,-2.8411,-2.8411,-2.862,-2.9005,-2.9005,-2.9005,-2.9005,-2.9005,-2.9005,-2.9005,-2.9005,-2.9005,-2.9005,-2.9005,-2.9005,-2.9005,-2.9005,-3.0063,-3.1397,-3.1397,-3.242,-3.3601,-3.3397,-3.2988,-3.2436,-3.1949,-3.1579,-3.1327,-3.1271,-3.123,-3.119,-3.119,-3.119,-3.119,-3.119,-3.119,-3.119,-3.119,-3.119,-3.119,-3.119,-3.119,-3.119,-3.119,-3.0459,-2.9335,-2.781,-2.76,-2.76,-2.76,-2.76,-2.76,-2.76,-2.76,-2.76,-2.76,-2.76,-2.775,-2.8068,-2.8412,-2.8442,-2.8124,-2.7772,-2.7108,-2.6147,-2.5591,-2.4696,-2.3603,-2.3526,-2.3492,-1.7844,-1.7715,-1.7367,-1.6408,0.0,-1.5674,0.0,0.0,0.0,-1.557,-1.5876,0.0,0.0,0.0,0.0,0.0,0.0,0.0,0.0,-1.9976,0.0,-2.1729,-2.1794,-2.2069,-2.2721,-2.2767,-2.3033,-2.3694,-2.3878,-2.3969,-2.3969,-2.4116,-2.419,-2.419,-2.419,-2.4511,-2.5154,-2.5319,-2.5723,-2.6374,-2.6539,-2.6943,-2.7567,-2.7732,-2.8154,-2.8785,-2.8932,-2.9005,-2.9005,-2.9005,-2.9005,-2.9005,-2.9005,-2.9005,-2.9005,-2.9005,-2.9005,-2.9005,-2.9005,-3.0063,-3.1397,-3.1397,-3.2447,-3.3684,-3.3563,-3.3065,-3.2503,-3.2214,-3.1858,-3.1521,-3.1389,-3.1291,-3.119,-3.119,-3.119,-3.119,-3.119,-3.119,-3.119,-3.119,-3.119,-3.119,-3.119,-3.119,-3.119,-3.119,-3.0459,-2.9335,-2.781,-2.76,-2.76,-2.76,-2.76,-2.76,-2.76,-2.76,-2.76,-2.76,-2.76,-2.7839,-2.8382,-2.8412,-2.8472,-2.8607,-2.8248,-2.7551,-2.6575,-2.6336,-2.5563,-2.435,-2.4173,-2.3982,0.0,0.0,0.0,0.0,-1.73,0.0,0.0,0.0,-1.5588,-1.568,0.0,0.0,0.0,0.0,0.0,0.0,0.0,0.0,-1.6283,-1.7015,-1.8605,-2.1454,-2.1794,-2.1831,-2.1923,-2.1941,-2.1978,-2.2069,-2.274,-2.3134,-2.3134,-2.3804,-2.419,-2.419,-2.419,-2.4245,-2.4337,-2.5044,-2.5448,-2.554,-2.6264,-2.6649,-2.6759,-2.7475,-2.7842,-2.797,-2.8693,-2.9005,-2.9005,-2.9005,-2.9005,-2.9005,-2.9005,-2.9005,-2.9005,-2.9005,-2.9005,-2.9005,-2.9005,-3.0063,-3.1397,-3.1397,-3.2485,-3.3766,-3.3633,-3.335,-3.3047,-3.2716,-3.2214,-3.1733,-3.16,-3.1387,-3.119,-3.119,-3.119,-3.119,-3.119,-3.119,-3.119,-3.119,-3.119,-3.119,-3.119,-3.119,-3.119,-3.119,-3.0459,-2.9335,-2.781,-2.76,-2.76,-2.76,-2.76,-2.76,-2.76,-2.76,-2.76,-2.76,-2.76,-2.763,-2.7705,-2.7705,-2.8004,-2.8592,-2.7854,-2.7292,-2.6849,-2.6695,-2.6149,-2.5231,-2.4924,-2.4361,0.0,0.0,0.0,0.0,0.0,0.0,-1.4879,0.0,-1.576,0.0,0.0,0.0,0.0,0.0,0.0,0.0,-1.5747,0.0,0.0,0.0,-1.7015,0.0,0.0,0.0,-2.0307,-2.0776,-2.1051,-2.1051,-2.1355,-2.1979,-2.2951,-2.3318,-2.3731,-2.419,-2.419,-2.419,-2.419,-2.453,-2.4695,-2.4713,-2.5052,-2.5456,-2.5925,-2.6256,-2.6917,-2.7824,-2.8154,-2.8565,-2.9005,-2.9005,-2.9005,-2.9005,-2.9005,-2.9005,-2.9005,-2.9005,-2.9005,-2.9005,-2.9005,-2.9739,-3.0852,-3.1788,-3.2871,-3.3793,-3.3684,-3.353,-3.3294,-3.2975,-3.2435,-3.1933,-3.1765,-3.1445,-3.119,-3.119,-3.119,-3.119,-3.119,-3.119,-3.119,-3.119,-3.119,-3.119,-3.119,-3.119,-3.119,-3.119,-3.0651,-2.9826,-2.8622,-2.822,-2.7925,-2.7625,-2.76,-2.76,-2.76,-2.76,-2.76,-2.76,-2.76,-2.76,-2.76,-2.76,-2.7735,-2.8019,-2.7699,-2.7448,-2.7316,-2.7255,-2.7034,-2.664,-2.5741,-2.4911,-2.2615,0.0,0.0,0.0,0.0,0.0,0.0,0.0,0.0,0.0,0.0,0.0,0.0,0.0,0.0,0.0,0.0,-1.5127,0.0,0.0,0.0,0.0,0.0,0.0,0.0,-1.9202,-1.9635,-1.984,-2.006,-2.0804,-2.2235,-2.2749,-2.3263,-2.3859,-2.408,-2.419,-2.419,-2.419,-2.419,-2.419,-2.419,-2.4511,-2.5081,-2.5301,-2.6035,-2.7174,-2.7614,-2.8136,-2.8693,-2.8913,-2.9005,-2.9005,-2.9005,-2.9005,-2.9005,-2.9005,-2.9005,-2.9005,-2.9005,-2.9537,-3.0467,-3.2069,-3.2999,-3.35,-3.3666,-3.3657,-3.352,-3.3193,-3.2684,-3.2144,-3.1912,-3.154,-3.119,-3.119,-3.119,-3.119,-3.119,-3.119,-3.119,-3.119,-3.119,-3.119,-3.119,-3.119,-3.119,-3.119,-3.0895,-3.0447,-2.9766,-2.9167,-2.8486,-2.77,-2.76,-2.76,-2.76,-2.76,-2.76,-2.76,-2.76,-2.76,-2.76,-2.76,-2.76,-2.76,-2.76,-2.76,-2.76,-2.76,-2.76,-2.7575,-2.6443,-2.5536,0.0,0.0,0.0,-1.9721,0.0,0.0,0.0,0.0,-1.7225,0.0,0.0,0.0,0.0,0.0,0.0,0.0,0.0,0.0,0.0,0.0,0.0,0.0,0.0,0.0,0.0,-1.7094,-1.7437,0.0,-1.8945,-1.9693,-2.0548,-2.2125,-2.3006,-2.3043,-2.3786,-2.419,-2.419,-2.419,-2.419,-2.419,-2.419,-2.4208,-2.4263,-2.5044,-2.5429,-2.5558,-2.7119,-2.7805,-2.7897,-2.8675,-2.9005,-2.9005,-2.9005,-2.9005,-2.9005,-2.9005,-2.9005,-2.9005,-2.9005,-2.9537,-3.0467,-3.2069,-3.2619,-3.2784,-3.3568,-3.3775,-3.3739,-3.3466,-3.2941,-3.2417,-3.2074,-3.16,-3.119,-3.119,-3.119,-3.119,-3.119,-3.119,-3.119,-3.119,-3.119,-3.119,-3.119,-3.119,-3.119,-3.119,-3.119,-3.1171,-3.1131,-3.038,-2.9266,-2.776,-2.76,-2.76,-2.76,-2.76,-2.76,-2.76,-2.76,-2.76,-2.76,-2.76,-2.76,-2.76,-2.76,-2.76,-2.76,-2.76,-2.76,-2.7575,-2.6971,-2.6203,0.0,0.0,-2.2495,-2.0738,0.0,0.0,0.0,0.0,0.0,0.0,0.0,0.0,0.0,0.0,0.0,0.0,0.0,0.0,0.0,0.0,0.0,0.0,0.0,0.0,0.0,0.0,0.0,0.0,-1.7599,0.0,-2.0393,-2.1043,-2.185,-2.2969,-2.3263,-2.3657,-2.419,-2.419,-2.419,-2.419,-2.419,-2.419,-2.4208,-2.4493,-2.4897,-2.5429,-2.598,-2.6825,-2.7824,-2.8081,-2.851,-2.9005,-2.9005,-2.9005,-2.9005,-2.9005,-2.9005,-2.9005,-2.9005,-2.9879,-3.1072,-3.1623,-3.2522,-3.344,-3.3715,-3.3807,-3.3753,-3.352,-3.3099,-3.2617,-3.23,-3.1802,-3.1366,-3.1291,-3.1232,-3.119,-3.119,-3.119,-3.119,-3.119,-3.119,-3.119,-3.119,-3.119,-3.119,-3.119,-3.119,-3.119,-3.119,-2.954,-2.818,-2.7675,-2.76,-2.76,-2.76,-2.76,-2.76,-2.76,-2.76,-2.76,-2.76,-2.76,-2.76,-2.76,-2.76,-2.76,-2.76,-2.76,-2.76,-2.76,-2.7108,-2.6563,-2.5201,-2.4622,0.0,-2.2534,-2.1425,0.0,-1.8839,0.0,-1.9707,0.0,0.0,0.0,0.0,0.0,0.0,0.0,0.0,0.0,0.0,-1.4919,0.0,0.0,0.0,0.0,0.0,0.0,-1.6114,-1.6565,-1.681,0.0,0.0,-1.9955,-2.0874,-2.2519,-2.285,-2.3391,-2.419,-2.419,-2.419,-2.419,-2.419,-2.419,-2.419,-2.419,-2.4493,-2.5007,-2.5576,-2.6421,-2.742,-2.7989,-2.8528,-2.9005,-2.9005,-2.9005,-2.9005,-2.9005,-2.9005,-2.9042,-2.9335,-3.0118,-3.1072,-3.1641,-3.2522,-3.344,-3.3715,-3.3807,-3.3766,-3.3591,-3.325,-3.2876,-3.2537,-3.2038,-3.1579,-3.1447,-3.131,-3.119,-3.119,-3.119,-3.119,-3.119,-3.119,-3.119,-3.119,-3.119,-3.119,-3.119,-3.119,-3.1151,-3.0955,-2.9293,-2.8033,-2.7765,-2.765,-2.76,-2.76,-2.76,-2.76,-2.76,-2.76,-2.76,-2.76,-2.76,-2.76,-2.76,-2.76,-2.76,-2.76,-2.76,-2.76,-2.76,-2.7276,-2.6989]},{"header":{"parameterUnit":"m.s-1","parameterCategory":1,"la1":30.6,"la2":29.2853,"lo1":-89.7004,"lo2":-87.6739,"dy":0.0162,"dx":0.0183,"nx":112,"ny":82,"refTime":"2026-04-24T12:00:00:Z","depth":0,"parameterNumber":3,"parameterNumberName":"V-component_of_WINDS"},"data":[0.0,0.0,0.0,0.0,0.0,0.0,0.0,0.0,0.0,0.0,0.0,0.0,0.0,0.0,0.0,0.0,0.0,0.0,0.0,0.0,0.0,0.0,0.0,0.0,0.0,0.0,0.0,0.0,0.0,0.0,0.0,0.0,0.0,0.0,0.0,0.0,0.0,0.0,0.0,0.0,0.0,0.0,0.0,0.0,0.0,0.0,0.0,0.0,0.0,0.0,0.0,0.0,0.0,0.0,0.0,0.0,0.0,0.0,0.0,0.0,0.0,0.0,0.0,0.0,0.0,0.0,0.0,0.0,0.0,0.0,0.0,0.0,0.0,0.0,0.0,0.0,0.0,0.0,0.0,0.0,0.0,0.0,0.0,0.0,0.0,0.0,0.0,0.0,0.0,0.0,-0.9078,-1.007,-1.1573,-1.2099,-1.1059,-1.1349,-1.0698,-0.8562,0.0,0.0,0.0,0.0,0.0,0.0,0.0,0.0,0.0,0.0,0.0,0.0,0.0,0.0,0.0,0.0,0.0,0.0,0.0,0.0,0.0,0.0,0.0,0.0,0.0,0.0,0.0,0.0,0.0,0.0,0.0,0.0,0.0,0.0,0.0,0.0,0.0,0.0,0.0,0.0,0.0,0.0,0.0,0.0,0.0,0.0,0.0,0.0,0.0,0.0,0.0,0.0,0.0,0.0,0.0,0.0,0.0,0.0,0.0,0.0,0.0,0.0,0.0,0.0,0.0,0.0,0.0,0.0,0.0,0.0,0.0,0.0,0.0,0.0,0.0,0.0,0.0,0.0,0.0,0.0,0.0,0.0,0.0,0.0,0.0,0.0,0.0,0.0,0.0,0.0,0.0,0.0,0.0,0.0,0.0,0.0,0.0,0.0,0.0,0.0,0.0,0.0,0.0,0.0,-0.9378,-1.1154,-1.2388,-1.2822,-1.22,-1.1814,-1.0849,-0.9089,0.0,0.0,0.0,0.0,0.0,0.0,0.0,0.0,0.0,0.0,0.0,0.0,0.0,0.0,0.0,0.0,0.0,0.0,0.0,0.0,0.0,0.0,0.0,0.0,0.0,0.0,0.0,0.0,0.0,0.0,0.0,0.0,0.0,0.0,0.0,0.0,0.0,0.0,0.0,0.0,0.0,0.0,0.0,0.0,0.0,0.0,0.0,0.0,0.0,0.0,0.0,0.0,0.0,0.0,0.0,0.0,0.0,0.0,0.0,0.0,0.0,0.0,0.0,0.0,0.0,0.0,0.0,0.0,0.0,0.0,0.0,0.0,0.0,0.0,0.0,0.0,0.0,0.0,0.0,0.0,0.0,0.0,0.0,0.0,0.0,0.0,0.0,0.0,0.0,0.0,0.0,0.0,0.0,0.0,0.0,0.0,0.0,0.0,0.0,0.0,0.0,0.0,0.0,-0.9284,-1.0721,-1.1904,-1.2739,-1.2877,-1.204,-1.1738,-1.0761,-0.88,-0.7598,0.0,0.0,0.0,0.0,0.0,0.0,0.0,0.0,0.0,0.0,0.0,0.0,0.0,0.0,0.0,0.0,0.0,0.0,0.0,0.0,0.0,0.0,0.0,0.0,0.0,0.0,0.0,0.0,0.0,0.0,0.0,0.0,0.0,0.0,0.0,0.0,0.0,0.0,0.0,0.0,0.0,0.0,0.0,0.0,0.0,0.0,0.0,0.0,0.0,0.0,0.0,0.0,0.0,0.0,0.0,0.0,0.0,0.0,0.0,0.0,0.0,0.0,0.0,0.0,0.0,0.0,0.0,0.0,0.0,0.0,0.0,0.0,0.0,0.0,0.0,0.0,0.0,0.0,0.0,0.0,0.0,0.0,0.0,0.0,0.0,0.0,0.0,0.0,0.0,0.0,0.0,0.0,0.0,0.0,0.0,0.0,0.0,0.0,0.0,0.0,0.0,0.0,-1.0681,-1.1801,-1.2337,-1.2889,-1.2826,-1.1864,-1.1538,-1.0558,-0.8612,-0.7184,0.0,0.0,0.0,0.0,0.0,0.0,0.0,0.0,0.0,0.0,0.0,0.0,0.0,0.0,0.0,0.0,0.0,0.0,0.0,0.0,0.0,0.0,0.0,0.0,0.0,0.0,0.0,0.0,0.0,0.0,0.0,0.0,0.0,0.0,0.0,0.0,0.0,0.0,0.0,0.0,0.0,0.0,0.0,0.0,0.0,0.0,0.0,0.0,0.0,0.0,0.0,0.0,0.0,0.0,0.0,0.0,0.0,0.0,0.0,0.0,0.0,0.0,0.0,0.0,0.0,0.0,0.0,0.0,0.0,0.0,0.0,0.0,0.0,0.0,0.0,0.0,0.0,0.0,0.0,0.0,0.0,0.0,0.0,0.0,0.0,0.0,0.0,0.0,0.0,0.0,0.0,0.0,0.0,0.0,0.0,0.0,0.0,0.0,0.0,0.0,0.0,0.0,-1.0654,-1.1801,-1.2337,-1.2889,-1.296,-1.2388,-1.1372,-1.0269,-0.9114,-0.704,0.0,0.0,0.0,0.0,0.0,0.0,0.0,0.0,0.0,0.0,0.0,0.0,0.0,0.0,0.0,0.0,0.0,0.0,0.0,0.0,0.0,0.0,0.0,0.0,0.0,0.0,0.0,0.0,0.0,0.0,0.0,0.0,0.0,0.0,0.0,0.0,0.0,0.0,0.0,0.0,0.0,0.0,0.0,0.0,0.0,0.0,0.0,0.0,0.0,0.0,0.0,0.0,0.0,0.0,0.0,0.0,0.0,0.0,0.0,0.0,0.0,0.0,0.0,0.0,0.0,0.0,0.0,0.0,0.0,0.0,0.0,0.0,0.0,0.0,0.0,0.0,0.0,0.0,0.0,0.0,0.0,0.0,0.0,0.0,0.0,0.0,0.0,0.0,0.0,0.0,0.0,0.0,0.0,0.0,0.0,0.0,0.0,0.0,0.0,0.0,0.0,0.0,-1.0828,-1.1927,0.0,-1.3073,-1.2852,-1.1977,-1.1512,-1.0495,-0.8724,0.0,0.0,0.0,0.0,0.0,0.0,0.0,0.0,0.0,0.0,0.0,0.0,0.0,0.0,0.0,0.0,0.0,0.0,0.0,0.0,0.0,0.0,0.0,0.0,0.0,0.0,0.0,0.0,0.0,0.0,0.0,0.0,0.0,0.0,0.0,0.0,0.0,0.0,0.0,0.0,0.0,0.0,0.0,0.0,0.0,0.0,0.0,0.0,0.0,0.0,0.0,0.0,0.0,0.0,0.0,0.0,0.0,0.0,0.0,0.0,0.0,0.0,0.0,0.0,0.0,0.0,0.0,0.0,0.0,0.0,0.0,0.0,0.0,0.0,0.0,0.0,0.0,0.0,0.0,0.0,0.0,0.0,0.0,0.0,0.0,0.0,0.0,0.0,0.0,0.0,0.0,0.0,0.0,0.0,0.0,0.0,0.0,0.0,0.0,0.0,0.0,0.0,-1.0019,-1.1175,-1.2203,0.0,-1.3198,-1.2839,-1.1927,-1.1525,-1.0521,-0.8675,0.0,0.0,0.0,0.0,0.0,0.0,0.0,0.0,0.0,0.0,0.0,0.0,0.0,0.0,0.0,0.0,0.0,0.0,0.0,0.0,0.0,0.0,0.0,0.0,0.0,0.0,0.0,0.0,0.0,0.0,0.0,0.0,0.0,0.0,0.0,0.0,0.0,0.0,0.0,0.0,0.0,0.0,0.0,0.0,0.0,0.0,0.0,0.0,0.0,0.0,0.0,0.0,0.0,0.0,0.0,0.0,0.0,0.0,0.0,0.0,0.0,0.0,0.0,0.0,0.0,0.0,0.0,0.0,0.0,0.0,0.0,0.0,0.0,0.0,0.0,0.0,0.0,0.0,0.0,0.0,0.0,0.0,0.0,0.0,0.0,0.0,0.0,0.0,0.0,0.0,0.0,0.0,0.0,0.0,0.0,0.0,0.0,0.0,0.0,0.0,0.0,0.0,-1.0556,-1.1698,-1.2613,-1.3135,-1.3198,-1.2973,-1.245,-1.136,-1.0244,0.0,0.0,0.0,0.0,0.0,0.0,0.0,0.0,0.0,0.0,0.0,0.0,0.0,0.0,0.0,0.0,0.0,0.0,0.0,0.0,0.0,0.0,0.0,0.0,0.0,0.0,0.0,0.0,0.0,0.0,0.0,0.0,0.0,0.0,0.0,0.0,0.0,0.0,0.0,0.0,0.0,0.0,0.0,0.0,0.0,0.0,0.0,0.0,0.0,0.0,0.0,0.0,0.0,0.0,0.0,0.0,0.0,0.0,0.0,0.0,0.0,0.0,0.0,0.0,0.0,0.0,0.0,0.0,0.0,0.0,0.0,0.0,0.0,0.0,0.0,0.0,0.0,0.0,0.0,0.0,0.0,0.0,0.0,0.0,0.0,0.0,0.0,0.0,0.0,0.0,0.0,0.0,0.0,0.0,0.0,0.0,0.0,0.0,0.0,0.0,0.0,0.0,0.0,-1.0556,-1.1698,-1.2613,-1.3135,-1.3198,-1.2973,-1.245,-1.1751,-1.0698,-0.9201,0.0,0.0,0.0,0.0,0.0,0.0,0.0,0.0,0.0,0.0,0.0,0.0,0.0,0.0,0.0,0.0,0.0,0.0,0.0,0.0,0.0,0.0,0.0,0.0,0.0,0.0,0.0,0.0,0.0,0.0,0.0,0.0,0.0,0.0,0.0,0.0,0.0,0.0,0.0,0.0,0.0,0.0,0.0,0.0,0.0,0.0,0.0,0.0,0.0,0.0,0.0,0.0,0.0,0.0,0.0,0.0,0.0,0.0,0.0,0.0,0.0,0.0,0.0,0.0,0.0,0.0,0.0,0.0,0.0,0.0,0.0,0.0,0.0,0.0,0.0,0.0,0.0,0.0,0.0,0.0,0.0,0.0,0.0,0.0,0.0,0.0,0.0,0.0,0.0,0.0,0.0,0.0,0.0,0.0,0.0,0.0,0.0,0.0,0.0,0.0,0.0,0.0,-1.0908,-1.2037,-1.2852,-1.3173,-1.3198,-1.3073,-1.2751,-1.2228,-1.1301,-0.983,0.0,0.0,0.0,0.0,0.0,0.0,0.0,0.0,0.0,0.0,0.0,0.0,0.0,0.0,0.0,0.0,0.0,0.0,0.0,0.0,0.0,0.0,0.0,0.0,0.0,0.0,0.0,0.0,0.0,0.0,0.0,0.0,0.0,0.0,0.0,0.0,0.0,0.0,0.0,0.0,0.0,0.0,0.0,0.0,0.0,0.0,0.0,0.0,0.0,0.0,0.0,0.0,0.0,0.0,0.0,0.0,0.0,0.0,0.0,0.0,0.0,0.0,0.0,0.0,0.0,0.0,0.0,0.0,0.0,0.0,0.0,0.0,0.0,0.0,0.0,0.0,0.0,0.0,0.0,0.0,0.0,0.0,0.0,0.0,0.0,0.0,0.0,0.0,0.0,0.0,0.0,0.0,0.0,0.0,0.0,0.0,0.0,0.0,0.0,0.0,0.0,0.0,-1.1452,-1.2538,-1.3198,-1.3198,-1.3198,-1.3198,-1.3198,-1.2714,-1.1911,-1.0769,0.0,0.0,0.0,0.0,0.0,0.0,0.0,0.0,0.0,0.0,0.0,0.0,0.0,0.0,0.0,0.0,0.0,0.0,0.0,0.0,0.0,0.0,0.0,0.0,0.0,0.0,0.0,0.0,0.0,0.0,0.0,0.0,0.0,0.0,0.0,0.0,0.0,0.0,0.0,0.0,0.0,0.0,0.0,0.0,0.0,0.0,0.0,0.0,0.0,0.0,0.0,0.0,0.0,0.0,0.0,0.0,0.0,0.0,0.0,0.0,-1.4827,0.0,0.0,0.0,0.0,0.0,0.0,0.0,0.0,0.0,0.0,0.0,0.0,0.0,0.0,0.0,0.0,0.0,0.0,0.0,0.0,0.0,0.0,0.0,0.0,0.0,0.0,0.0,0.0,0.0,0.0,0.0,0.0,0.0,0.0,0.0,0.0,0.0,0.0,0.0,0.0,0.0,-1.1452,-1.2538,-1.3198,-1.3198,-1.3198,-1.3198,-1.3198,-1.2714,-1.1911,-1.0769,-0.919,0.0,0.0,0.0,0.0,0.0,0.0,0.0,0.0,0.0,0.0,0.0,0.0,0.0,0.0,0.0,0.0,0.0,0.0,0.0,0.0,0.0,0.0,0.0,0.0,0.0,0.0,0.0,0.0,0.0,0.0,0.0,0.0,0.0,0.0,0.0,0.0,0.0,0.0,0.0,0.0,0.0,0.0,0.0,0.0,0.0,0.0,0.0,0.0,0.0,0.0,0.0,0.0,0.0,0.0,0.0,0.0,0.0,0.0,0.0,0.0,-1.6383,0.0,0.0,0.0,0.0,0.0,0.0,0.0,0.0,0.0,0.0,0.0,0.0,0.0,0.0,0.0,0.0,0.0,0.0,0.0,0.0,0.0,0.0,0.0,0.0,0.0,0.0,0.0,0.0,0.0,0.0,0.0,0.0,0.0,0.0,0.0,0.0,0.0,0.0,0.0,0.0,-1.1452,-1.2538,-1.3198,-1.3198,-1.3198,-1.3198,-1.3198,-1.2935,-1.2312,-1.1197,-1.0081,0.0,0.0,0.0,0.0,0.0,0.0,0.0,0.0,0.0,0.0,0.0,0.0,0.0,0.0,0.0,0.0,0.0,0.0,0.0,0.0,0.0,0.0,0.0,0.0,0.0,0.0,0.0,0.0,0.0,0.0,0.0,0.0,0.0,0.0,0.0,0.0,0.0,0.0,0.0,0.0,0.0,0.0,0.0,0.0,0.0,0.0,0.0,0.0,0.0,0.0,0.0,0.0,0.0,-1.8894,-1.957,-2.0232,-2.0337,-2.1036,-2.2084,-1.9866,-1.9029,-1.9166,-1.8506,0.0,0.0,0.0,0.0,0.0,0.0,0.0,0.0,0.0,0.0,0.0,0.0,0.0,0.0,0.0,0.0,0.0,0.0,0.0,0.0,0.0,0.0,0.0,0.0,-1.4432,-1.4105,-1.1836,0.0,0.0,0.0,0.0,0.0,0.0,0.0,0.0,0.0,0.0,0.0,-1.1588,-1.2588,-1.3198,-1.3198,-1.3198,-1.3198,-1.3198,-1.3198,-1.2789,-1.1819,-1.1113,-1.0147,0.0,0.0,0.0,0.0,0.0,0.0,0.0,0.0,0.0,0.0,0.0,0.0,0.0,0.0,0.0,0.0,0.0,0.0,0.0,0.0,0.0,0.0,0.0,0.0,0.0,0.0,0.0,0.0,0.0,0.0,0.0,0.0,-0.6703,-0.7924,0.0,0.0,0.0,0.0,0.0,0.0,0.0,0.0,0.0,0.0,0.0,0.0,0.0,-1.6526,-1.6962,-1.8519,-1.9645,-2.0314,-2.0976,-2.1669,-2.2328,-2.2853,-2.3505,-2.4201,-2.3842,0.0,-2.1246,-2.0569,0.0,0.0,0.0,0.0,0.0,0.0,0.0,0.0,0.0,0.0,0.0,0.0,0.0,0.0,0.0,0.0,0.0,0.0,0.0,0.0,0.0,0.0,-1.5555,-1.5459,-1.515,-1.4765,0.0,-1.3891,-1.329,-1.2618,-1.1506,0.0,0.0,0.0,0.0,0.0,0.0,0.0,-1.2149,-1.281,-1.3198,-1.3198,-1.3198,-1.3198,-1.3198,-1.3198,-1.2969,-1.2421,-1.1431,-1.0689,-1.0237,-0.8826,0.0,0.0,0.0,0.0,0.0,0.0,0.0,0.0,0.0,0.0,0.0,0.0,0.0,0.0,0.0,0.0,0.0,0.0,0.0,0.0,0.0,0.0,0.0,0.0,0.0,0.0,0.0,0.0,0.0,-0.6937,-0.8298,-0.9102,-0.9466,-0.9654,0.0,0.0,0.0,0.0,0.0,0.0,0.0,0.0,0.0,-1.5515,-1.7294,-1.8669,-1.9564,-2.1114,-2.2233,-2.29,-2.3558,-2.4044,-2.4328,-2.4597,-2.5091,-2.5734,-2.5734,-2.5241,-2.4328,-2.2921,-2.152,-2.0176,0.0,0.0,0.0,0.0,-1.7821,-1.758,-1.7595,-1.736,-1.6967,-1.6399,0.0,0.0,0.0,0.0,0.0,0.0,0.0,0.0,0.0,0.0,-1.7024,-1.6732,-1.648,-1.6216,-1.5869,-1.5557,-1.4961,0.0,-1.2831,-1.1944,-1.1055,0.0,0.0,0.0,0.0,-1.15,-1.23,-1.286,-1.3198,-1.3198,-1.3198,-1.3198,-1.3198,-1.3198,-1.3028,-1.2638,-1.2269,-1.1664,-1.071,-1.0175,-0.9176,0.0,0.0,0.0,0.0,0.0,0.0,0.0,0.0,0.0,0.0,0.0,0.0,0.0,0.0,0.0,0.0,0.0,0.0,0.0,0.0,0.0,0.0,0.0,0.0,0.0,0.0,0.0,0.0,-0.855,-0.9767,-1.0458,-1.1021,-1.1332,0.0,0.0,0.0,0.0,0.0,0.0,-1.5228,-1.611,-1.6967,-1.782,-1.9498,-2.0838,-2.1778,-2.334,-2.4373,-2.4859,-2.5555,-2.5854,-2.5869,-2.6033,-2.6378,-2.6866,-2.6866,-2.6841,-2.6658,-2.4866,-2.3359,-2.2105,-2.1202,-2.048,-1.9949,-1.9892,-1.9683,-1.9398,-1.9322,-1.9037,-1.872,-1.8474,-1.8085,-1.7562,-1.6636,0.0,0.0,0.0,0.0,-1.7115,-1.7423,-1.7836,-1.8103,-1.7712,-1.7511,-1.7285,-1.6835,-1.66,-1.612,0.0,-1.4042,-1.329,-1.2203,0.0,0.0,0.0,0.0,-1.2153,-1.2551,-1.309,-1.3366,-1.3223,-1.3198,-1.3198,-1.3198,-1.3198,-1.3112,-1.2939,-1.2841,-1.2353,-1.1359,-1.119,-1.0281,-0.8502,0.0,0.0,0.0,0.0,0.0,0.0,0.0,0.0,0.0,0.0,0.0,0.0,0.0,0.0,0.0,0.0,0.0,0.0,0.0,0.0,0.0,0.0,0.0,0.0,0.0,0.0,0.0,0.0,0.0,-1.2137,-1.2751,0.0,0.0,0.0,0.0,-1.4746,-1.5018,-1.5666,-1.6912,-1.7689,-1.855,-1.9541,-2.131,-2.2715,-2.3664,-2.4881,-2.5525,-2.557,-2.6228,-2.6542,-2.6557,-2.721,-2.751,-2.754,-2.754,-2.7479,-2.7263,-2.6007,-2.4929,-2.3944,-2.2834,-2.2198,-2.1969,-2.2159,-2.2097,-2.1929,-2.2141,-2.206,-2.1816,-2.1435,-2.0201,-1.8843,-1.8474,-1.7747,0.0,0.0,-1.7939,-1.8035,-1.8494,-1.8399,-1.8191,-1.8179,-1.7765,-1.7398,-1.7373,-1.6911,-1.6333,0.0,-1.5185,-1.4456,-1.3328,0.0,-1.2275,-1.23,-1.276,-1.3123,-1.316,-1.369,-1.3828,-1.3248,-1.3198,-1.3198,-1.3198,-1.3198,-1.3293,-1.3542,-1.2727,-1.2384,-1.2678,-1.1376,-1.0607,-1.055,-0.8795,0.0,0.0,0.0,0.0,0.0,0.0,0.0,0.0,0.0,0.0,0.0,0.0,0.0,0.0,0.0,0.0,0.0,0.0,0.0,0.0,0.0,0.0,0.0,0.0,0.0,0.0,0.0,0.0,-1.2839,-1.403,0.0,-1.4795,-1.5121,-1.5668,-1.6485,-1.6612,-1.7302,-1.8772,-1.9087,-1.9919,-2.1386,-2.2583,-2.3706,-2.4819,-2.5771,-2.6452,-2.6896,-2.7136,-2.724,-2.7255,-2.748,-2.76,-2.76,-2.76,-2.7686,-2.7782,-2.7006,-2.5984,-2.4786,-2.3699,-2.305,-2.2741,-2.2625,-2.2432,-2.2247,-2.2201,-2.2061,-2.1786,-2.1564,-2.0853,-2.0013,-1.9585,-1.9105,-1.8636,-1.8412,-1.8655,-1.8977,-1.9017,-1.9117,-1.9145,-1.8795,-1.8556,-1.8242,-1.7561,-1.7234,-1.6911,-1.6333,-1.5781,-1.5185,-1.4412,-1.4142,-1.4016,-1.4016,-1.4161,-1.4161,-1.3815,-1.3972,-1.3871,-1.3248,-1.3198,-1.3198,-1.3198,-1.3198,-1.3183,-1.3155,-1.3071,-1.2856,-1.2429,-1.2162,-1.1621,-1.0783,-1.0111,-0.9366,0.0,0.0,0.0,0.0,0.0,0.0,0.0,0.0,0.0,0.0,0.0,0.0,0.0,0.0,0.0,0.0,0.0,0.0,0.0,0.0,0.0,0.0,0.0,0.0,0.0,0.0,-1.3308,-1.4218,-1.548,-1.6333,-1.6522,-1.6873,-1.7325,-1.789,-1.8103,-1.8768,-2.0102,-2.0407,-2.1273,-2.2855,-2.367,-2.4641,-2.5825,-2.6578,-2.7165,-2.76,-2.76,-2.7575,-2.7524,-2.7473,-2.7423,-2.7372,-2.7321,-2.7442,-2.7652,-2.7197,-2.6482,-2.5522,-2.4559,-2.3946,-2.3575,-2.3029,-2.2713,-2.2557,-2.2472,-2.2331,-2.2147,-2.2074,-2.1669,-2.1182,-2.0858,-2.0485,-2.0093,-1.9623,-1.9698,-1.9863,-1.9737,-1.9762,-1.971,-1.9346,-1.9133,-1.8807,-1.8091,-1.7674,-1.7285,-1.6886,-1.6358,-1.5793,-1.5261,-1.5173,-1.511,-1.4941,-1.5047,-1.4972,-1.4437,-1.4362,-1.416,-1.3571,-1.3328,-1.3198,-1.3198,-1.3198,-1.3112,-1.2901,-1.3068,-1.2872,-1.2231,-1.237,-1.2044,-1.1151,-1.0927,-1.0069,-0.8552,0.0,0.0,0.0,0.0,0.0,0.0,0.0,0.0,0.0,0.0,0.0,0.0,0.0,0.0,0.0,0.0,0.0,0.0,0.0,0.0,0.0,0.0,0.0,-1.1573,-1.3065,-1.4765,-1.63,-1.7061,-1.7639,-1.8179,-1.8242,-1.8456,-1.9008,-1.9547,-2.0165,-2.0918,-2.1641,-2.2621,-2.3891,-2.4661,-2.5564,-2.6695,-2.7306,-2.76,-2.76,-2.76,-2.7539,-2.7401,-2.7233,-2.7104,-2.6977,-2.675,-2.6736,-2.6877,-2.6594,-2.6372,-2.6162,-2.5387,-2.4922,-2.4567,-2.349,-2.3108,-2.3108,-2.3108,-2.3108,-2.3108,-2.3108,-2.2744,-2.2305,-2.2322,-2.1945,-2.1506,-2.1493,-2.1131,-2.0717,-2.0691,-2.0277,-1.9823,-1.9798,-1.9384,-1.902,-1.9008,-1.8191,-1.7448,-1.741,-1.6936,-1.635,-1.5819,-1.5718,-1.5563,-1.5022,-1.5399,0.0,-1.4984,-1.4916,-1.4689,-1.4166,-1.3559,-1.3198,-1.3198,-1.3198,-1.3112,-1.2888,-1.2635,-1.2402,-1.2188,-1.1946,-1.1835,-1.1835,-1.1166,-0.9881,-0.7959,0.0,0.0,0.0,0.0,0.0,0.0,0.0,0.0,0.0,0.0,0.0,0.0,0.0,0.0,0.0,0.0,0.0,0.0,0.0,0.0,0.0,-1.1113,-1.2217,-1.2406,-1.4386,-1.6007,-1.6437,-1.7716,-1.8607,-1.877,-1.9145,-1.9597,-2.0201,-2.0377,-2.0988,-2.2214,-2.2732,-2.3574,-2.4804,-2.5638,-2.6323,-2.6823,-2.7357,-2.76,-2.76,-2.76,-2.7473,-2.7233,-2.6867,-2.6563,-2.6324,-2.5933,-2.6133,-2.6708,-2.626,-2.6413,-2.6772,-2.5348,-2.4632,-2.4244,-2.3399,-2.3108,-2.3108,-2.3108,-2.3108,-2.3108,-2.3108,-2.3007,-2.2807,-2.2406,-2.2209,-2.1995,-2.1606,-2.138,-2.1194,-2.0792,-2.0578,-2.0352,-1.9899,-1.9698,-1.9459,-1.9083,-1.877,-1.8342,-1.7561,-1.7272,-1.6961,-1.6384,-1.6274,-1.6233,-1.6082,-1.6195,0.0,-1.5563,-1.5135,-1.4689,-1.4166,-1.3559,-1.3198,-1.3198,-1.3198,-1.2918,-1.229,-1.2422,-1.2208,-1.157,-1.2176,-1.2519,-1.2519,-1.1865,-1.0802,0.0,0.0,0.0,0.0,0.0,0.0,0.0,0.0,0.0,0.0,0.0,0.0,0.0,0.0,0.0,0.0,0.0,0.0,0.0,0.0,0.0,0.0,-1.2174,-1.3528,-1.3926,-1.5439,-1.6751,-1.7466,-1.8406,-1.9183,-1.9673,-1.9987,-2.0427,-2.0993,-2.1257,-2.1784,-2.2744,-2.342,-2.4206,-2.5161,-2.5947,-2.6457,-2.6733,-2.706,-2.7229,-2.7229,-2.7525,-2.7433,-2.7074,-2.6941,-2.6694,-2.6314,-2.5913,-2.6075,-2.6627,-2.6238,-2.6434,0.0,0.0,0.0,0.0,0.0,-2.3471,-2.3496,-2.3735,-2.3659,-2.3471,-2.3471,-2.3308,-2.3045,-2.2732,-2.2631,-2.2556,-2.2272,-2.202,-2.1707,-2.1182,-2.0867,-2.0541,-1.9936,-1.9798,-1.971,-1.9384,-1.9158,-1.882,-1.8191,-1.7725,0.0,-1.6936,-1.6663,-1.65,-1.65,-1.65,-1.6387,-1.6082,-1.5374,-1.479,-1.4462,-1.3697,-1.3198,-1.3198,-1.3198,0.0,0.0,0.0,-1.276,-1.2357,-1.2909,0.0,0.0,0.0,0.0,0.0,0.0,0.0,0.0,-0.8789,-0.9037,0.0,0.0,0.0,0.0,0.0,0.0,0.0,0.0,0.0,0.0,0.0,0.0,0.0,0.0,0.0,0.0,-1.3461,-1.5131,-1.576,-1.6389,-1.7328,-1.882,-1.9108,-1.9597,-2.0591,-2.0742,-2.1018,-2.1543,-2.2033,-2.2463,-2.2872,0.0,0.0,0.0,0.0,-2.615,-2.6363,-2.6484,-2.6566,-2.6652,-2.7243,-2.7283,-2.6877,-2.7133,-2.6996,-2.6556,-2.6202,-2.6201,-2.6479,-2.6291,-2.6355,-2.6455,-2.5317,-2.4838,-2.4725,-2.4268,-2.4092,-2.4155,-2.4582,0.0,0.0,-2.3916,-2.3552,-2.3108,-2.3108,-2.3108,-2.3108,-2.3108,-2.2757,-2.2259,-2.1644,-2.1157,-2.0616,-1.9962,-1.9798,-1.9798,-1.9798,-1.9447,-1.9058,-1.8933,-1.8141,-1.7461,-1.7322,-1.6861,-1.65,-1.65,-1.65,-1.65,-1.65,-1.5555,-1.4896,-1.4896,0.0,0.0,-1.3198,-1.3198,-1.3112,-1.2901,-1.3263,-1.3601,-1.3906,-1.3902,-1.3902,-1.3902,-1.3902,-1.3585,-1.2909,-1.2909,-1.2951,-1.2984,-1.1655,-1.17,0.0,0.0,0.0,0.0,0.0,0.0,0.0,0.0,0.0,0.0,0.0,0.0,0.0,0.0,0.0,-1.3089,-1.4247,-1.5475,-1.7136,-1.8032,-1.8644,-1.8958,-1.9811,-2.0465,-2.0679,-2.1094,-2.1556,-2.2108,-2.2246,-2.2627,-2.3407,-2.3979,-2.4452,-2.4794,-2.5273,-2.5577,-2.5618,-2.5646,-2.5869,-2.63,0.0,0.0,-2.6641,-2.6327,-2.6025,-2.5722,-2.5243,-2.5337,-2.5798,-2.5764,-2.5761,-2.5803,-2.5523,-2.5197,-2.4775,-2.4662,-2.4637,-2.4587,-2.428,-2.4092,-2.3916,-2.3421,-2.3195,-2.3108,-2.3108,-2.3108,0.0,-2.3108,-2.3032,-2.2719,-2.1744,-2.1405,-2.1066,-2.0049,-1.9798,-1.9798,-1.9798,-1.9723,-1.9397,-1.853,-1.8191,-1.7752,-1.6814,-1.6575,-1.65,-1.65,-1.65,-1.65,-1.65,-1.5555,-1.4896,-1.4896,-1.3867,-1.3198,-1.3198,-1.3198,-1.3112,-1.2901,-1.3131,-1.3664,-1.4574,-1.4603,-1.4603,-1.4603,-1.4603,-1.4274,-1.3615,-1.3615,-1.3885,-1.4376,-1.3044,-1.2849,0.0,0.0,0.0,0.0,0.0,0.0,0.0,0.0,0.0,0.0,0.0,-0.9752,-1.0587,0.0,-1.227,-1.3834,-1.5151,-1.6386,-1.7627,-1.8729,-1.9384,-1.9384,-2.0189,-2.0805,-2.1081,-2.1581,-2.2133,-2.2656,-2.2694,-2.2938,-2.3467,-2.3855,-2.4163,-2.4408,-2.5033,-2.5397,-2.5397,-2.5666,-2.5921,-2.6188,-2.6529,-2.663,-2.6595,-2.6587,-2.6395,-2.6074,-2.5769,-2.5787,-2.6059,-2.6059,-2.6059,-2.6059,-2.6059,-2.5536,-2.4825,-2.5109,-2.5046,-2.4788,-2.4808,-2.4443,-2.3954,-2.3665,-2.3346,-2.3108,-2.3108,-2.3108,-2.3108,-2.3108,-2.3108,-2.2844,-2.1782,-2.1493,-2.1204,-2.0075,-1.9798,-1.9798,-1.9798,-1.9597,-1.9233,-1.8694,-1.8179,-1.7614,-1.7049,-1.671,-1.65,-1.65,-1.65,-1.65,-1.65,-1.5793,-1.5198,-1.4921,-1.4155,-1.3534,-1.3223,-1.3369,-1.3561,-1.3695,-1.3961,-1.4457,-1.5261,-1.529,-1.529,-1.529,-1.529,-1.514,-1.4811,-1.4811,-1.4975,-1.5275,-1.4601,-1.4466,0.0,0.0,0.0,0.0,0.0,0.0,0.0,0.0,-0.916,-0.9484,-1.0075,-1.0811,-1.1704,-1.2426,-1.3263,-1.4368,-1.5871,-1.7145,-1.7757,-1.8932,-1.9734,-1.9759,-2.0413,-2.1031,-2.1443,-2.2083,-2.2631,-2.307,-2.3108,-2.3168,-2.333,-2.356,-2.3776,-2.4066,-2.476,-2.5195,-2.527,-2.57,-2.5988,-2.6094,-2.6585,-2.6713,-2.6595,-2.6902,-2.6905,-2.6658,-2.6555,-2.6499,-2.6499,-2.6499,-2.6499,-2.6499,-2.6499,-2.5883,-2.5021,-2.5435,-2.5335,-2.5008,-2.5209,-2.472,-2.3979,-2.3866,-2.3484,-2.3108,-2.3108,-2.3108,-2.3108,-2.3108,-2.3108,-2.2844,-2.1782,-2.1493,-2.1204,-2.0075,-1.9798,-1.9798,-1.9798,-1.9447,-1.9096,-1.8882,-1.8154,-1.7498,-1.725,-1.6823,-1.65,-1.65,-1.65,-1.65,-1.65,-1.6032,-1.5517,-1.5097,-1.4576,-1.4022,-1.3428,-1.3724,-1.4113,-1.4483,-1.4814,-1.524,-1.5784,-1.5799,-1.5799,-1.5799,-1.5799,-1.5799,-1.5799,-1.5799,-1.5799,-1.5799,-1.5799,-1.5799,-0.8873,-0.8789,-0.8815,-0.8938,-0.9064,-0.9258,0.0,0.0,-1.0463,-1.0745,-1.1147,-1.1734,-1.2592,-1.2837,-1.3447,-1.5103,-1.6101,-1.6977,-1.7928,-1.8859,-1.9486,-1.9617,-2.0671,-2.1418,-2.1481,-2.2406,-2.3045,-2.3095,-2.3108,-2.3108,-2.3138,-2.3155,-2.3424,-2.3971,-2.4122,-2.4387,-2.4848,-2.4911,-2.5208,-2.5663,-2.5727,-2.603,-2.6501,-2.6564,-2.6555,-2.6521,-2.6499,-2.6499,-2.6499,-2.6499,-2.6499,-2.6499,-2.6499,-2.6097,-2.5523,-2.5573,-2.5561,-2.5385,-2.4481,-2.4104,-2.3916,-2.3371,-2.3158,-2.3108,-2.3108,-2.3108,-2.3108,-2.3108,-2.3108,-2.2844,-2.1782,-2.1493,-2.1204,-2.0075,-1.9798,-1.9798,-1.9798,-1.9761,-1.9434,-1.848,-1.8191,-1.779,-1.6763,-1.6538,-1.65,-1.65,-1.65,-1.65,-1.65,-1.6032,-1.5668,-1.5618,-1.5135,-1.4588,-1.4047,-1.4302,-1.4517,-1.4497,-1.4814,-1.524,-1.5784,-1.5799,-1.5799,-1.5799,-1.5799,-1.5799,-1.5799,-1.5799,-1.5799,-1.5799,-1.5799,-1.5799,-0.9352,-0.9551,-0.9823,-1.0087,-1.0184,-1.034,-1.0785,-1.1229,-1.1551,-1.1672,-1.2054,-1.2612,-1.3447,-1.3613,-1.4077,0.0,-1.6182,-1.6818,-1.7567,-1.8444,-1.9095,-1.9344,-2.0353,-2.1169,-2.1455,-2.2196,-2.2757,-2.3083,-2.3108,-2.3108,-2.3108,-2.3108,-2.3371,-2.3979,-2.4305,-2.4732,-2.5272,-2.5598,-2.5921,-2.6135,-2.6135,-2.626,-2.6499,-2.6499,-2.6499,-2.6499,-2.6361,-2.6258,-2.6154,-2.6037,-2.5921,-2.5804,-2.5804,-2.5669,-2.5458,-2.5544,-2.5197,-2.4607,-2.4155,-2.3778,-2.3421,-2.3183,-2.3108,-2.3108,-2.3108,-2.3108,-2.3108,-2.3108,-2.2882,-2.2443,-2.1694,-2.1282,-2.083,-1.9999,-1.9798,-1.9798,-1.9798,-1.956,-1.9196,-1.8744,-1.8166,-1.7576,-1.7099,-1.6735,-1.65,-1.65,-1.65,-1.65,-1.65,-1.63,-1.6057,-1.5731,-1.5295,-1.4797,-1.4268,-1.4589,-1.4789,-1.4681,-1.4995,-1.5359,-1.5784,-1.5799,-1.5799,-1.5799,-1.5799,-1.5799,-1.5799,-1.5799,-1.5799,-1.5799,-1.5799,-1.5799,-0.9876,-1.0215,-1.0577,-1.0986,-1.1084,-1.1201,-1.1663,-1.1992,-1.2242,-1.2359,-1.2656,-1.3105,-1.3802,-1.3938,-1.4319,-1.5467,-1.5976,-1.6458,-1.7202,-1.8054,-1.8727,-1.9107,-1.9911,-2.0729,-2.1418,-2.1995,-2.2506,-2.3058,-2.3108,-2.3108,-2.3108,-2.3108,-2.3434,-2.4205,-2.4587,-2.5146,-2.5824,-2.6285,-2.6499,-2.6499,-2.6499,-2.6499,-2.6499,-2.6499,-2.6499,-2.6499,-2.6236,-2.5945,-2.5641,-2.5382,-2.5087,-2.4791,-2.4791,-2.4696,-2.459,-2.4764,-2.4427,-2.3883,-2.3586,-2.3213,-2.2836,-2.2836,-2.2836,-2.2836,-2.2836,-2.2836,-2.2836,-2.2836,-2.2469,-2.1952,-2.1434,-2.0942,-2.0407,-1.9897,-1.9773,-1.9798,-1.9798,-1.9484,-1.9171,-1.9033,-1.8254,-1.7564,-1.7436,-1.6898,-1.65,-1.65,-1.65,-1.65,-1.65,-1.65,-1.6337,-1.5969,-1.5721,-1.5325,-1.4694,-1.5043,-1.5186,-1.4899,-1.5148,-1.5477,-1.5784,-1.5799,-1.5799,-1.5799,-1.5799,-1.5799,-1.5799,-1.5799,-1.5799,-1.5799,-1.5799,-1.5799,-1.0762,-1.0879,-1.0996,-1.1447,-1.1587,-1.1682,-1.2086,-1.2194,-1.233,-1.2773,-1.2895,-1.3042,-1.3447,-1.3525,-1.3861,-1.4861,-1.5315,-1.5873,-1.6862,-1.7754,-1.8486,-1.896,-1.9486,-2.0263,-2.138,-2.1995,-2.2506,-2.3058,-2.3108,-2.3108,-2.3108,-2.3108,-2.3609,-2.4725,-2.4775,-2.5335,-2.6461,-2.6487,-2.6499,-2.6499,-2.6499,-2.6499,-2.6499,-2.6499,-2.6499,-2.6499,-2.6084,-2.5571,-2.5004,-2.46,-2.4084,-2.3551,-2.3551,-2.3234,-2.2773,-2.2786,-2.3179,-2.3568,-2.259,-2.2228,-2.2228,-2.2228,-2.2228,-2.2228,-2.2228,-2.2228,-2.2228,-2.2228,-2.1849,-2.1324,-2.0932,-2.0526,-2.0111,-1.9688,-1.9708,-1.9798,-1.9798,-1.9798,-1.9623,-1.9096,-1.8544,-1.8003,-1.7498,-1.6898,-1.65,-1.65,-1.65,-1.65,-1.65,-1.65,-1.6488,-1.6475,-1.671,-1.6465,-1.5532,-1.5841,-1.5782,-1.513,-1.527,-1.5522,-1.5784,-1.5799,-1.5799,-1.5799,-1.5799,-1.5799,-1.5799,-1.5799,-1.5799,-1.5799,-1.5799,-1.5799,-1.0869,-1.1123,-1.1467,-1.1895,-1.2002,-1.2119,-1.2559,-1.2656,-1.2705,-1.2876,-1.2905,-1.3008,-1.3428,-1.3506,-1.3789,-1.4731,-1.4952,-1.5381,-1.6394,-1.7285,-1.8054,-1.8655,-1.937,0.0,-2.138,-2.1656,0.0,-2.3032,-2.3108,-2.3108,-2.3108,-2.3471,-2.4054,-2.4763,-2.5159,-2.5699,-2.6487,-2.6499,-2.6499,-2.6499,-2.6499,-2.6499,-2.6499,-2.6374,-2.6236,-2.6072,-2.5382,-2.4791,-2.4215,-2.3669,-2.3191,-2.2756,-2.2756,-2.2658,-2.2431,-2.1793,-2.1704,-2.1888,-2.1616,-2.1367,-2.1155,-2.1155,-2.1155,-2.1155,-2.1155,-2.1155,-2.1155,-2.1155,-2.0534,-1.9904,-1.9989,-1.961,-1.9233,-1.9302,-1.9566,-1.9798,-1.9798,-1.9798,-1.9748,-1.9572,-1.8819,-1.8141,-1.7953,-1.7149,-1.65,-1.65,-1.65,-1.65,-1.65,-1.65,-1.65,-1.65,-1.6778,-1.6803,-1.6411,-1.6354,-1.6252,-1.5983,-1.5683,-1.561,-1.5784,-1.5799,-1.5799,-1.5799,-1.5799,-1.5799,-1.5799,-1.5799,-1.6009,-1.6398,-1.6398,-1.6637,-1.1277,-1.1582,-1.1927,-1.2353,-1.2461,-1.2539,-1.2837,-1.2905,-1.2842,-1.2676,-1.2646,-1.2676,-1.2793,-1.2939,-1.3281,-1.3984,-1.4355,-1.4919,-1.5948,-1.7145,-1.8163,-1.8803,-1.9783,-2.0765,0.0,0.0,0.0,-2.3032,-2.3108,-2.3108,-2.3108,-2.369,-2.4255,-2.4775,-2.5322,-2.5908,-2.6487,-2.6499,-2.6499,-2.6499,-2.6499,-2.6499,-2.6499,-2.6236,-2.591,-2.5535,-2.4755,-2.3975,-2.3169,-2.2681,-2.2176,-2.1749,-2.1749,-2.1749,-2.1666,-2.0901,-2.0519,-2.0434,-2.0571,-2.0479,-2.0258,-2.0258,-2.0258,-2.0258,-2.0258,-2.0258,-2.0258,-2.0258,-1.9632,-1.9044,-1.928,-1.9074,-1.8868,-1.9064,-1.9474,-1.9798,-1.9798,-1.9798,-1.9798,-1.9798,-1.8932,-1.8204,-1.8204,-1.724,-1.65,-1.65,-1.65,-1.65,-1.65,-1.65,-1.65,-1.65,-1.6842,-1.7025,-1.6929,-1.6946,-1.6835,-1.6539,-1.6188,-1.5936,-1.5814,-1.5799,-1.5799,-1.5799,-1.5799,-1.5799,-1.5799,-1.6024,-1.6323,-1.6696,-1.695,-1.7294,-1.1979,-1.2223,-1.234,-1.2783,-1.2905,-1.2905,-1.2905,-1.2886,-1.2734,-1.2291,-1.2174,-1.2018,0.0,0.0,-1.232,-1.2827,-1.3584,-1.4466,-1.5549,-1.7322,-1.8709,0.0,0.0,0.0,0.0,0.0,0.0,-2.3058,0.0,-2.3108,-2.3145,-2.3697,-2.4293,-2.4813,-2.536,-2.59,-2.6487,-2.6499,-2.6499,-2.6499,-2.6499,-2.6499,-2.6465,-2.6037,-2.55,-2.4898,-2.4143,-2.3132,-2.1962,-2.1596,-2.1118,-2.0605,-2.0605,-2.0605,-2.0546,-2.0049,-1.9629,-1.9305,-1.9453,-1.9506,-1.9506,-1.9506,-1.9506,-1.9506,-1.9506,-1.9506,-1.9506,-1.9506,-1.9157,-1.8733,-1.8818,-1.8897,-1.8972,-1.8985,-1.9396,-1.9798,-1.9798,-1.9798,-1.9798,-1.9798,-1.8932,-1.8191,-1.8129,-1.7225,-1.65,-1.65,-1.65,-1.65,-1.65,-1.65,-1.65,-1.65,-1.6926,-1.7175,-1.7139,-1.7548,-1.7516,-1.6844,-1.6771,-1.6503,-1.5918,-1.5858,-1.5858,-1.5858,-1.5829,-1.5829,-1.5858,-1.6428,-1.6741,-1.6831,-1.7443,-1.7773,-1.2145,-1.2471,-1.2744,-1.2876,-1.2905,-1.2905,-1.2905,-1.2627,-1.234,-1.2233,-1.1687,-1.1309,0.0,0.0,0.0,-1.2778,-1.3584,0.0,-1.5549,-1.7322,0.0,-1.9324,0.0,-2.1707,-2.2259,-2.2309,0.0,0.0,-2.3108,-2.3296,-2.3753,-2.4305,-2.4858,-2.5385,-2.5971,-2.6348,-2.6499,-2.6499,-2.6499,-2.6499,-2.6339,-2.6201,-2.605,-2.5335,-2.4683,-2.4143,-2.3202,-2.2354,-2.1596,-2.1205,-2.0858,-2.0605,-2.0605,-2.0605,-2.0507,-1.9727,-1.9375,-1.9196,-1.8611,-1.8414,-1.8414,-1.8414,-1.8414,-1.8414,-1.8414,-1.8414,-1.8414,-1.8414,-1.8095,-1.7775,-1.7885,-1.8216,-1.8527,-1.8677,-1.9265,-1.9798,-1.9798,-1.9798,-1.9798,-1.9798,-1.8932,-1.794,-1.7064,-1.6688,-1.65,-1.65,-1.65,-1.65,-1.65,-1.65,-1.65,-1.65,-1.6926,-1.7388,-1.7807,-1.782,-1.7909,-1.8173,-1.7712,-1.7385,-1.722,-1.6742,-1.6458,-1.6458,-1.6039,-1.6024,-1.6458,-1.6622,-1.7219,-1.8192,-1.8373,-1.8717,-1.2461,-1.2695,-1.2905,-1.2905,-1.2905,-1.2856,-1.2637,-1.2389,-1.2047,-1.1472,-1.0977,-1.0645,-1.0703,-1.089,-1.131,0.0,0.0,0.0,-1.5287,-1.7405,-1.9068,0.0,-2.1207,0.0,-2.2606,-2.2644,-2.2739,0.0,-2.3315,-2.3653,-2.3979,-2.4745,-2.5297,-2.5586,-2.6197,-2.6499,-2.6499,-2.6499,-2.6499,-2.6499,-2.6188,-2.5875,-2.55,-2.4683,-2.3866,-2.3021,0.0,-2.1645,-2.1079,-2.0848,-2.0693,-2.0605,-2.0605,-2.0605,-2.0527,-1.9814,-1.9443,-1.9189,-1.8516,-1.8164,-1.8008,-1.8008,-1.8008,-1.8008,-1.8008,-1.8008,-1.8008,-1.8008,-1.7842,-1.7642,-1.753,-1.7936,-1.8385,-1.8386,-1.9028,-1.963,-1.9708,-1.9759,-1.9736,-1.9484,-1.8781,-1.7928,-1.7049,-1.6685,-1.65,-1.65,-1.65,-1.65,-1.65,-1.65,-1.65,-1.65,-1.6926,-1.7441,-1.8046,-1.8195,-1.8379,-1.8683,-1.8341,-1.8012,-1.7697,-1.7339,-1.701,-1.6696,-1.6652,-1.6652,-1.6696,-1.7294,-1.7968,-1.8717,-1.9001,-1.9348,-1.2783,-1.2905,-1.2905,-1.2905,-1.2842,-1.2695,-1.2291,-1.2077,-1.1628,-1.0537,-1.0166,-0.9932,-0.9591,-0.9902,-1.0498,-1.1381,0.0,-1.3824,-1.493,-1.7417,-1.9371,-2.0117,-2.1856,-2.302,-2.3095,-2.3108,-2.3047,-2.2878,-2.3461,-2.3891,-2.4042,-2.4993,-2.5603,-2.5711,-2.6201,-2.6465,-2.643,-2.6383,-2.6383,-2.6349,-2.5898,-2.5382,-2.4826,-2.407,-2.3058,-2.1924,-2.1558,-2.1118,-2.0605,-2.0605,-2.0605,-2.0605,-2.0605,-2.0605,-2.0546,-2.001,-1.96,-1.9219,-1.8685,-1.8286,-1.8008,-1.8008,-1.8008,-1.8008,-1.8008,-1.8008,-1.8008,-1.8008,-1.8008,-1.7923,-1.7535,-1.7935,-1.8344,-1.8137,-1.8729,-1.9356,-1.95,-1.9682,-1.9648,-1.9108,-1.8619,-1.8116,-1.7511,-1.6974,-1.6588,-1.65,-1.65,-1.65,-1.65,-1.65,-1.65,-1.65,-1.6926,-1.7441,-1.8046,-1.8525,-1.8817,-1.8832,-1.8837,-1.8565,-1.7997,-1.7878,-1.7548,-1.698,-1.7443,-1.7458,-1.698,-1.8132,-1.8747,-1.8852,-1.9438,-1.9708,-1.2886,-1.2905,-1.2905,-1.2905,-1.2607,-1.2301,-1.2223,-1.1396,0.0,0.0,-0.9461,-0.8806,-0.9062,-0.9435,-1.0001,-1.0879,-1.2152,-1.3477,-1.4888,-1.6808,-1.8583,0.0,-2.1525,-2.2606,-2.3058,-2.3108,0.0,0.0,0.0,-2.3317,-2.4193,-2.4855,-2.5533,-2.6336,-2.6277,-2.6166,-2.6015,-2.5828,-2.5676,-2.5488,-2.4933,-2.4456,-2.407,-2.3091,-2.2279,-2.1568,-2.1167,0.0,-2.0605,-2.0605,-2.0605,-2.0605,-2.0605,-2.0605,-2.0507,-1.9687,-1.9346,-1.918,-1.8389,-1.8076,-1.8008,-1.8008,-1.8008,-1.8008,-1.8008,-1.8008,-1.8008,-1.8008,-1.8008,-1.7958,-1.7765,-1.781,-1.7959,-1.806,-1.8474,-1.8886,-1.92,-1.954,-1.9648,-1.9108,-1.892,-1.8544,-1.7574,-1.7322,-1.7074,-1.6584,-1.65,-1.65,-1.65,-1.65,-1.65,-1.65,-1.6926,-1.7441,-1.8046,-1.8525,-1.9024,-1.9507,-1.9528,-1.9465,-1.9346,-1.8822,-1.8461,-1.8373,-1.7923,-1.7923,-1.8341,-1.8597,-1.8986,-1.9528,-1.9648,-1.9708,-1.2905,-1.2905,-1.2905,-1.2905,-1.2559,-1.2086,-1.1628,0.0,0.0,-0.9451,-0.8825,-0.8453,-0.8659,-0.8848,0.0,-1.041,-1.1516,-1.2781,-1.4393,-1.6352,0.0,-1.9651,-2.1031,-2.2051,0.0,-2.2635,-2.2469,0.0,0.0,-2.2627,-2.3779,-2.4791,-2.5697,-2.6487,-2.6188,-2.584,-2.543,-2.5123,-2.4779,-2.4373,-2.3854,-2.3379,-2.2898,-2.2231,-2.1606,-2.1041,-2.0809,-2.0693,-2.0605,-2.0605,-2.0605,-2.0605,-2.0605,-2.0605,-2.0527,-1.9844,-1.9473,-1.9199,-1.8555,-1.8193,-1.8008,-1.8008,-1.8008,-1.8008,-1.8008,-1.8008,-1.8008,-1.8008,-1.8008,-1.7944,-1.7767,-1.7629,-1.7625,-1.783,-1.8377,-1.8989,-1.941,-1.9669,-1.9723,-1.9472,-1.9183,-1.8845,-1.8329,-1.7765,-1.731,-1.7011,-1.671,-1.65,-1.65,-1.65,-1.65,-1.65,-1.6926,-1.7441,-1.8046,-1.8525,-1.9068,-1.9657,-1.9708,-1.9708,-1.9708,-1.9393,-1.9061,-1.8717,-1.8732,-1.8732,-1.8702,-1.9046,-1.9393,-1.9708,-1.9708,-1.9708,-1.2876,-1.2905,-1.2886,-1.2788,-1.2412,-1.1833,-1.0977,-1.0381,0.0,-0.862,-0.8316,-0.8248,-0.8248,-0.8326,-0.8786,0.0,-1.088,-1.2094,-1.3909,-1.5775,-1.7512,0.0,-2.0233,0.0,-2.1791,-2.1851,0.0,0.0,0.0,0.0,-2.3275,-2.4548,-2.5519,-2.6233,-2.5816,-2.5312,-2.4755,-2.4312,-2.3829,-2.3279,-2.2861,-2.2376,-2.1859,-2.153,-2.1079,-2.0605,-2.0605,-2.0605,-2.0605,-2.0605,-2.0605,-2.0605,-2.0605,-2.0605,-2.0537,-1.9971,-1.957,-1.9209,-1.8646,-1.8247,-1.8008,-1.8008,-1.8008,-1.8008,-1.8008,-1.8008,-1.8008,-1.8008,-1.8008,-1.7964,-1.7744,-1.7486,-1.7308,-1.7613,-1.832,-1.9093,-1.9669,-1.9798,-1.9798,-1.9798,-1.9447,-1.9133,-1.902,-1.8304,-1.7652,-1.7436,-1.6999,-1.666,-1.6513,-1.65,-1.65,-1.65,-1.6884,-1.7413,-1.8001,-1.8467,-1.8993,-1.9599,-1.9654,-1.969,-1.9708,-1.9708,-1.9453,-1.8927,-1.942,-1.9453,-1.8912,-1.9453,-1.9708,-1.9708,-1.9708,-1.9708,-1.2773,-1.2905,-1.2807,-1.2369,-1.1953,-1.1439,-1.0557,0.0,-0.8975,-0.8493,-0.8066,-0.7754,-0.7754,-0.8115,-0.8688,-0.9533,0.0,-1.1672,-1.3745,-1.4815,-1.6202,-1.8327,0.0,0.0,-2.066,-2.0762,0.0,0.0,0.0,0.0,-2.3119,-2.3688,-2.4424,-2.537,-2.4862,-2.4384,-2.3986,-2.3423,-2.2916,-2.2505,-2.2101,-2.1759,-2.154,-2.1128,-2.0819,-2.0605,-2.0605,-2.0605,0.0,-2.0605,-2.0605,-2.0605,-2.0605,-2.0605,-2.0507,-1.9648,-1.9316,-1.917,-1.835,-1.8047,-1.8008,-1.8008,-1.8008,-1.8008,-1.8008,-1.8008,-1.8008,-1.8008,-1.8008,-1.7998,-1.7959,-1.7376,-1.6908,-1.7475,-1.8127,-1.8842,-1.9618,-1.9798,-1.9798,-1.9798,-1.9761,-1.9572,-1.9083,-1.892,-1.8506,-1.7561,-1.736,-1.7112,-1.6563,-1.65,-1.65,-1.65,-1.6799,-1.724,-1.7787,-1.8266,-1.8784,-1.9395,-1.9538,-1.9647,-1.9708,-1.9708,-1.9678,-1.9618,-1.9678,-1.9678,-1.9618,-1.9678,-1.9708,-1.9708,-1.9708,-1.9708,-1.2418,-1.2676,-1.2798,-1.2311,-1.1895,-1.1291,-1.0146,-0.9434,-0.8809,-0.8125,-0.7827,-0.7695,-0.7695,-0.7856,-0.8246,-0.9104,-0.9737,-1.0803,-1.2752,-1.3938,-1.5279,-1.7082,-1.779,0.0,0.0,0.0,0.0,0.0,0.0,0.0,-2.0971,-2.1856,-2.2706,-2.3421,-2.3252,-2.2908,-2.2411,-2.2206,-2.1835,-2.1328,-2.1146,-2.1031,-2.0954,-2.0809,-2.0693,-2.0605,-2.0605,-2.0605,0.0,-2.0605,-2.0605,-2.0605,-2.0605,-2.0449,-2.0098,-1.9512,-1.9121,-1.8773,-1.8213,-1.8008,-1.8008,-1.8008,-1.8008,-1.8008,-1.8008,-1.8008,-1.8008,-1.8008,-1.8008,-1.8008,-1.8008,-1.7625,-1.7287,-1.7533,-1.812,-1.8827,-1.9618,-1.9798,-1.9798,-1.9798,-1.9798,-1.9736,-1.9522,-1.9208,-1.8744,-1.799,-1.7624,-1.7174,-1.6575,-1.65,-1.65,-1.65,-1.6757,-1.7094,-1.7469,-1.7928,-1.8461,-1.9072,-1.9273,-1.9457,-1.969,-1.9708,-1.9708,-1.9708,-1.9708,-1.9708,-1.9708,-1.9708,-1.9708,-1.9708,-1.9708,-1.9708,-1.194,-1.2256,-1.2406,-1.1921,-1.1504,-1.0899,-0.9689,-0.9121,-0.8613,-0.7851,-0.7695,-0.7695,-0.7695,-0.7695,-0.7993,0.0,-0.9338,-1.0234,-1.2076,-1.3194,-1.4399,0.0,0.0,-1.7302,0.0,0.0,0.0,0.0,0.0,0.0,-1.9085,-1.9945,-2.0842,-2.184,-2.1808,-2.1581,-2.1209,-2.1162,-2.0939,-2.0605,-2.0605,-2.0605,-2.0605,-2.0605,-2.0605,-2.0605,-2.0605,-2.0605,0.0,-2.0605,-2.0605,-2.0595,-2.0458,-2.0185,-1.9844,-1.9297,-1.8861,-1.8539,-1.812,-1.8008,-1.8008,-1.8008,-1.8008,-1.8008,-1.8008,-1.8008,-1.8008,-1.8008,-1.8008,-1.7949,-1.7695,-1.762,-1.7613,-1.7589,-1.812,-1.8827,-1.9618,-1.9798,-1.9798,-1.9798,-1.9798,-1.9798,-1.9798,-1.9497,-1.8995,-1.8304,-1.7877,-1.735,-1.6588,-1.65,-1.65,-1.65,-1.6671,-1.6892,-1.7201,-1.7632,-1.8173,-1.8774,-1.9039,-1.9332,-1.969,-1.9708,-1.9708,-1.9708,-1.9708,-1.9708,-1.9708,-1.9708,-1.9708,-1.9708,-1.9708,-1.9708,-1.1359,-1.1616,-1.1496,-1.1035,-1.0605,-1.0087,-0.9209,-0.8698,-0.8277,-0.7798,-0.7695,-0.7695,-0.7695,-0.7695,-0.7993,-0.8867,-0.9338,-1.0215,-1.196,-1.2607,0.0,0.0,0.0,-1.5968,-1.7288,0.0,0.0,0.0,0.0,0.0,-1.8018,-1.8018,-1.8976,-2.104,-2.073,-2.0627,-2.0814,-2.0426,-2.0355,-2.0605,-2.0605,-2.0605,-2.0605,-2.0605,-2.0605,-2.0605,-2.0605,-2.0605,0.0,-2.0605,-2.0605,-2.0556,-2.0088,-1.9922,-1.9805,-1.8919,-1.8607,-1.8539,-1.812,-1.8008,-1.8008,-1.8008,-1.8008,-1.8008,-1.8008,-1.8008,-1.8008,-1.8008,-1.8008,-1.7812,-1.6931,-1.7159,-1.7613,-1.7589,-1.812,-1.8827,-1.9618,-1.9798,-1.9798,-1.9798,-1.9798,-1.9798,-1.9798,-1.9798,-1.9434,-1.8367,-1.8204,-1.779,-1.6638,-1.65,-1.65,-1.65,-1.65,-1.6637,-1.6972,-1.7441,-1.7948,-1.8558,-1.8917,-1.9288,-1.969,-1.9708,-1.9708,-1.9708,-1.9708,-1.9708,-1.9708,-1.9708,-1.9708,-1.9708,-1.9708,-1.9708,-1.0147,-1.0674,-1.0937,-1.0196,-1.0156,-0.9999,-0.8855,-0.8493,-0.8268,-0.7798,-0.7695,-0.7695,-0.7695,-0.7695,-0.7993,-0.8867,-0.9104,0.0,0.0,0.0,0.0,-1.4377,-1.5556,-1.6453,0.0,0.0,0.0,0.0,0.0,0.0,-1.8008,-1.8008,-1.8296,-1.8976,-1.9139,-1.9217,-1.932,-1.9472,-1.9625,-1.9697,-1.9697,-1.9697,-1.9697,-1.9697,-1.9697,-1.9744,-2.0,-2.0117,-2.0146,-2.0478,-2.0429,-2.0107,-1.9971,-1.9551,-1.8968,-1.8695,-1.8422,-1.8184,-1.8057,-1.8008,-1.8008,-1.8008,-1.8008,-1.8008,-1.8008,-1.8008,-1.8008,-1.8008,-1.8008,-1.7812,-1.6921,-1.7096,-1.743,-1.7346,-1.7781,-1.8483,-1.9356,-1.9617,-1.9682,-1.9773,-1.9798,-1.9798,-1.9798,-1.9798,-1.9447,-1.8367,-1.8204,-1.7802,-1.6638,-1.65,-1.65,-1.65,-1.65,-1.6531,-1.6659,-1.7081,-1.7625,-1.8218,-1.8655,-1.9143,-1.969,-1.9708,-1.9708,-1.9708,-1.9708,-1.9708,-1.9708,-1.9708,-1.9708,-1.9708,-1.9708,-1.9708,-0.9271,-0.9767,-1.004,-0.9503,-0.9482,-0.9373,-0.8571,-0.8268,-0.8057,-0.7768,-0.7695,-0.7695,-0.7695,-0.7695,-0.7993,-0.8867,-0.9004,-0.96,0.0,0.0,0.0,-1.4436,0.0,0.0,0.0,0.0,0.0,0.0,0.0,0.0,-1.8008,-1.8008,-1.8008,-1.8008,-1.8227,-1.8442,-1.8598,-1.887,-1.9121,-1.9287,-1.9287,-1.9287,-1.9287,-1.9287,-1.9287,-1.9307,-1.9561,-1.9766,0.0,-2.0039,-2.0019,-1.9883,-1.9524,-1.9075,-1.8588,-1.8422,-1.8232,-1.8008,-1.8008,-1.8008,-1.8008,-1.8008,-1.8008,-1.8008,-1.8008,-1.8008,-1.8008,-1.8008,-1.8008,-1.7812,-1.6921,-1.7002,-1.7257,-1.6988,-1.7407,-1.8066,-1.8936,-1.9291,-1.9526,-1.9747,-1.9798,-1.9798,-1.9798,-1.9798,-1.9447,-1.8367,-1.8204,-1.7802,-1.6638,-1.65,-1.65,-1.65,-1.65,-1.65,-1.65,-1.6926,-1.7462,-1.8066,-1.8544,-1.9068,-1.969,-1.9708,-1.9708,-1.9708,-1.9708,-1.9708,-1.9708,-1.9708,-1.9708,-1.9708,-1.9708,-1.9708,0.0,-0.8873,-0.8938,-0.8899,-0.8626,-0.8369,-0.8356,-0.8018,0.0,-0.7695,-0.7695,-0.7695,-0.7695,-0.7725,-0.8032,-0.8867,-0.9053,-0.9687,0.0,-1.21,0.0,0.0,-1.6592,0.0,0.0,0.0,0.0,0.0,0.0,0.0,-1.8008,-1.8008,-1.8008,-1.8008,-1.8008,-1.8159,-1.8559,-1.8559,-1.8763,-1.9199,-1.9199,-1.9199,-1.9199,-1.9199,-1.9199,0.0,-1.9228,-1.9463,-1.9795,-1.9434,-1.9502,-1.9746,-1.8909,-1.8588,-1.851,-1.8154,-1.8008,-1.8008,-1.8008,-1.8008,-1.8008,-1.8008,-1.8008,-1.8008,-1.8008,-1.8008,-1.8008,-1.8008,-1.8008,-1.7812,-1.6921,-1.6949,-1.7093,-1.6636,-1.6972,-1.7655,-1.8513,-1.8977,-1.9344,-1.9721,-1.9798,-1.9798,-1.9798,-1.9798,-1.9447,-1.8417,-1.8229,-1.7802,-1.6701,-1.6525,-1.65,-1.65,-1.65,-1.65,-1.65,-1.6926,-1.7462,-1.8066,-1.8544,-1.9068,-1.969,-1.9708,-1.9708,-1.9708,-1.9708,-1.9708,-1.9708,-1.9708,-1.9708,-1.9708,-1.9708,-1.9738,-0.7077,0.0,-0.8236,-0.7936,-0.8007,-0.8099,0.0,-0.7749,-0.7695,-0.7695,-0.7695,-0.7695,-0.7695,-0.7998,-0.8398,-0.8916,-0.9561,-1.0469,-1.1853,0.0,0.0,-1.584,-1.6819,-1.7383,0.0,0.0,0.0,0.0,0.0,-1.8008,-1.8008,-1.8008,-1.8008,-1.8008,-1.8008,-1.8057,-1.812,-1.812,-1.8213,-1.8311,-1.8311,-1.8311,-1.8311,-1.8311,-1.8311,-1.833,-1.8617,-1.8812,-1.8919,-1.9189,-1.915,-1.888,-1.8685,-1.8403,-1.8144,-1.8047,-1.8008,-1.8008,-1.8008,-1.8008,-1.8008,-1.8008,-1.8008,-1.8008,-1.8008,-1.8008,-1.8008,-1.8008,-1.8008,-1.7812,-1.6921,-1.6949,-1.7093,-1.6675,-1.7112,-1.7831,-1.8614,-1.9066,-1.9434,-1.9734,-1.9798,-1.9798,-1.9798,-1.9798,-1.9585,-1.8907,-1.8456,-1.7953,-1.7285,-1.6798,-1.65,-1.65,-1.65,-1.65,-1.65,-1.6926,-1.7462,-1.8066,-1.8544,-1.9068,-1.969,-1.9708,-1.9708,-1.9708,-1.9708,-1.9708,-1.9708,-1.9708,-1.9708,-1.9708,-1.9708,-1.9974,-0.6285,-0.6918,-0.7516,-0.7359,-0.7577,-0.7777,-0.7556,-0.7613,-0.7695,0.0,0.0,-0.7768,-0.7988,-0.8379,-0.8867,-0.9492,-1.0332,0.0,0.0,0.0,-1.5869,-1.6318,-1.7139,0.0,0.0,0.0,0.0,0.0,0.0,-1.8008,-1.8008,-1.8008,-1.8008,-1.8008,-1.8008,-1.8008,-1.8008,-1.8008,-1.8008,-1.8008,-1.8008,-1.8008,-1.8008,-1.8008,-1.8008,-1.8018,-1.8217,-1.8422,-1.8607,-1.8682,-1.8672,-1.8588,-1.8393,-1.8178,-1.8008,-1.8008,-1.8008,-1.8008,-1.8008,-1.8008,-1.8008,-1.8008,-1.8008,-1.8008,-1.8008,-1.8008,-1.8008,-1.8008,-1.8008,-1.7812,-1.6921,-1.6949,-1.7093,-1.6675,-1.7056,-1.7776,-1.8575,-1.9054,-1.9408,-1.9734,-1.9798,-1.9798,-1.9798,-1.9798,-1.9623,-1.9083,-1.8744,-1.8268,-1.7511,-1.7099,-1.681,-1.6525,-1.65,-1.65,-1.65,-1.6842,-1.7331,-1.7921,-1.8403,-1.8936,-1.9527,-1.9632,-1.9672,-1.9708,-1.9708,-1.9708,-1.9708,-1.9708,-1.9708,-1.9708,-2.0022,-2.0363,-0.5759,-0.6269,-0.6777,-0.703,-0.7254,-0.7436,-0.7415,0.0,0.0,0.0,0.0,0.0,-0.8376,-0.8843,0.0,0.0,0.0,0.0,-1.3987,-1.5352,-1.6309,-1.6658,-1.7457,0.0,0.0,0.0,0.0,0.0,0.0,-1.8008,-1.8008,-1.8008,-1.8008,-1.8008,-1.8008,-1.8008,-1.8008,-1.8008,-1.8008,-1.8008,-1.8008,-1.8008,-1.8008,-1.8008,-1.8008,-1.8008,0.0,0.0,-1.8481,-1.812,-1.8188,-1.8471,-1.8144,-1.8008,-1.8008,-1.8008,-1.8008,-1.8008,-1.8008,-1.8008,-1.8008,-1.8008,-1.8008,-1.8008,-1.8008,-1.8008,-1.8008,-1.8008,-1.8008,-1.7812,-1.6921,-1.6949,-1.7093,-1.6636,-1.7,-1.7683,-1.854,-1.8989,-1.9344,-1.9721,-1.9798,-1.9798,-1.9798,-1.9798,-1.966,-1.9183,-1.9058,-1.8669,-1.7752,-1.7564,-1.7325,-1.6801,-1.6751,-1.6751,-1.6751,-1.6981,-1.7354,-1.7907,-1.8224,-1.8707,-1.9343,-1.9538,-1.9632,-1.9708,-1.9708,-1.9708,-1.9708,-1.9708,-1.9753,-1.9872,-2.0438,-2.0808,-0.4988,-0.5462,-0.6067,-0.682,-0.7082,-0.7213,-0.7428,0.0,0.0,0.0,0.0,0.0,0.0,-0.9307,-0.9906,0.0,0.0,-1.3555,0.0,0.0,-1.6619,-1.6697,0.0,0.0,0.0,0.0,0.0,0.0,0.0,-1.8008,-1.8008,-1.8008,-1.8008,-1.8008,-1.8008,-1.8008,-1.8008,-1.8008,-1.8008,-1.8008,-1.8008,-1.8008,-1.8008,-1.8008,-1.8008,-1.8008,0.0,-1.8047,-1.8105,-1.8037,-1.8047,-1.8105,-1.8037,-1.8008,-1.8008,-1.8008,-1.8008,-1.8008,-1.8008,-1.8008,-1.8008,-1.8008,-1.8008,-1.8008,-1.8008,-1.8008,-1.8008,-1.8008,-1.8008,-1.7812,-1.6921,-1.6949,-1.7093,-1.6675,-1.7123,-1.7859,-1.8614,-1.9105,-1.946,-1.9747,-1.9798,-1.9798,-1.9798,-1.9798,-1.9773,-1.9698,-1.9284,-1.8945,-1.877,-1.8367,-1.8041,-1.7953,-1.794,-1.794,-1.794,-1.808,-1.8275,-1.8559,-1.8272,-1.8408,-1.9203,-1.953,-1.969,-1.9708,-1.9708,-1.9708,-1.9708,-1.9708,-1.9989,-2.0557,-2.0643,-2.1321,-0.4619,-0.5154,-0.5778,-0.654,-0.6947,-0.7203,-0.7405,-0.7807,0.0,0.0,0.0,0.0,0.0,0.0,-1.0755,-1.2045,0.0,-1.4414,-1.5039,-1.6015,-1.6697,0.0,0.0,0.0,0.0,0.0,0.0,0.0,0.0,-1.8008,-1.8008,-1.8008,-1.8008,-1.8008,-1.8008,-1.8008,-1.8008,-1.8008,-1.8008,-1.8008,-1.8008,-1.8008,-1.8008,-1.8008,-1.8008,-1.8008,0.0,-1.8008,-1.8008,-1.8008,-1.8008,-1.8008,-1.8008,-1.8008,-1.8008,-1.8008,-1.8008,-1.8008,-1.8008,-1.8008,-1.8008,-1.8008,-1.8008,-1.8008,-1.8008,-1.8008,-1.8008,-1.8008,-1.8008,-1.7812,-1.6921,-1.6949,-1.7093,-1.6636,-1.7056,-1.7765,-1.8563,-1.9028,-1.9396,-1.9721,-1.9798,-1.9798,-1.9798,-1.9798,-1.9798,-1.9798,-1.9597,-1.9321,-1.9045,-1.8782,-1.8506,-1.8242,-1.8204,-1.8204,-1.8204,-1.8275,-1.8508,-1.9035,-1.9218,-1.9547,-2.0142,-2.0561,-2.0767,-2.0767,-2.0767,-2.0767,-2.0767,-2.0767,-2.0932,-2.1261,-2.1605,-2.2119,-0.4427,-0.4933,-0.5485,-0.6152,0.0,-0.7199,-0.737,-0.7893,0.0,0.0,0.0,0.0,0.0,-1.0392,0.0,-1.3676,-1.4447,-1.4903,-1.5352,-1.6054,-1.658,-1.6687,-1.7282,0.0,0.0,0.0,0.0,0.0,-1.7705,-1.7705,-1.7705,-1.7812,-1.7861,-1.7861,-1.7959,-1.8008,-1.8008,-1.8008,-1.8008,-1.8008,-1.8008,-1.8008,-1.8008,-1.8008,-1.8008,-1.8008,-1.8008,-1.8008,-1.8008,-1.8008,-1.8008,-1.8008,-1.8008,-1.8008,-1.8008,-1.8008,-1.8008,-1.8008,-1.8008,-1.8008,-1.8008,-1.8008,-1.8008,-1.8008,-1.8008,-1.8008,-1.8008,-1.8008,-1.8008,-1.7832,-1.7048,-1.6997,-1.7051,-1.6655,-1.6906,-1.749,-1.8325,-1.8792,-1.9186,-1.963,-1.9734,-1.9759,-1.9798,-1.9798,-1.9798,-1.9798,-1.9798,-1.966,-1.9233,-1.9183,-1.902,-1.8631,-1.8581,-1.8581,-1.8581,-1.8581,-1.8867,-1.9592,-2.0029,-2.0493,-2.092,-2.144,-2.1695,-2.1695,-2.1695,-2.1695,-2.1695,-2.1695,-2.1769,-2.1934,-2.2463,-2.2778,-0.4335,-0.4629,-0.4995,-0.5598,-0.6401,0.0,-0.7347,-0.8098,0.0,-0.863,0.0,0.0,0.0,-1.0709,-1.2092,-1.3569,-1.4282,-1.479,-1.5323,0.0,-1.629,-1.6648,-1.6755,0.0,0.0,0.0,0.0,-1.6794,-1.6794,-1.6794,-1.6794,-1.7207,-1.7432,-1.7432,-1.7803,-1.8008,-1.8008,-1.8008,-1.8008,-1.8008,-1.8008,-1.8008,-1.8008,-1.8008,-1.8008,-1.8008,-1.8008,-1.8008,-1.8008,-1.8008,-1.8008,-1.8008,-1.8008,-1.8008,-1.8008,-1.8008,-1.8008,-1.8008,-1.8008,-1.8008,-1.8008,-1.8008,-1.8008,-1.8008,-1.8008,-1.8008,-1.8008,-1.8008,-1.8008,-1.791,-1.7451,-1.7192,-1.6976,-1.6829,-1.6798,-1.706,-1.7788,-1.8306,-1.8801,-1.9342,-1.9539,-1.9656,-1.9773,-1.9798,-1.9798,-1.9798,-1.9798,-1.9786,-1.9748,-1.9748,-1.9736,-1.9698,-1.9685,-1.9685,-1.9685,-1.9685,-1.9864,-2.0293,-2.0074,-2.0166,-2.0698,-2.1339,-2.1695,-2.1695,-2.1695,-2.1695,-2.1695,-2.1695,-2.2009,-2.2628,-2.2673,-2.3002,-0.4582,-0.4875,-0.5251,-0.5856,-0.6387,0.0,0.0,-0.8087,-0.8851,-0.922,-0.9671,0.0,0.0,0.0,-1.2365,-1.3223,-1.4092,-1.482,-1.5332,-1.5811,-1.6153,-1.6299,-1.6562,0.0,0.0,0.0,-1.6697,-1.6697,-1.6697,-1.6697,-1.6697,-1.6853,-1.695,-1.695,-1.7096,-1.7184,-1.7184,-1.749,-1.7627,-1.7627,-1.7881,-1.8008,-1.8008,-1.8008,-1.8008,-1.8008,-1.8008,-1.8008,-1.8008,-1.8008,-1.8008,-1.8008,-1.8008,-1.8008,-1.8008,-1.8008,-1.8008,-1.8008,-1.8008,-1.8008,-1.8008,-1.8008,-1.8008,-1.8008,-1.8008,-1.8008,-1.8008,-1.8008,-1.8008,-1.791,-1.749,-1.7321,-1.7113,-1.6506,-1.6486,-1.6694,-1.698,-1.7462,-1.8066,-1.8818,-1.9174,-1.9448,-1.9747,-1.9798,-1.9798,-1.9798,-1.9798,-1.9798,-1.9798,-1.9798,-1.9798,-1.9798,-1.9798,-1.9798,-1.9798,-1.9798,-1.9939,-2.0258,-2.0639,-2.1029,-2.1482,-2.2127,-2.2495,-2.2559,-2.2659,-2.2744,-2.2822,-2.2871,-2.3011,-2.3251,-2.3251,-2.337,-0.4754,-0.4968,-0.5284,-0.5889,0.0,0.0,-0.7293,-0.8145,-0.8939,-0.9434,-0.983,-1.014,-1.0278,0.0,0.0,0.0,-1.3789,-1.4588,-1.5059,-1.5397,-1.5637,-1.5781,-1.5904,-1.6057,-1.6169,-1.6086,-1.6009,-1.6009,-1.603,-1.6102,-1.6174,-1.6331,-1.643,-1.6523,-1.6629,-1.6697,-1.6697,-1.6999,-1.7148,-1.7218,-1.7432,-1.7712,-1.8008,-1.8008,-1.8008,-1.8008,-1.8008,-1.8008,-1.8008,-1.8008,-1.8008,-1.8008,-1.8008,-1.8008,-1.8008,-1.8008,-1.8008,-1.8008,-1.8008,-1.8008,-1.8008,-1.8008,-1.8008,-1.8008,-1.8008,-1.8008,-1.8008,-1.8008,-1.8008,-1.7939,-1.7656,-1.7513,-1.7259,-1.6652,-1.6454,-1.6467,-1.6583,-1.6967,-1.7518,-1.8394,-1.8871,-1.9291,-1.9721,-1.9798,-1.9798,-1.9798,-1.9798,-1.9798,-1.9798,-1.9798,-1.9798,-1.9798,-1.9798,-1.9798,-1.9798,-1.9798,-1.9914,-2.0131,-2.0734,-2.1286,-2.1732,-2.2258,-2.2589,-2.2777,-2.3001,-2.3194,-2.3363,-2.3523,-2.3595,-2.3595,-2.3595,-2.3595,-0.4814,-0.4814,-0.4953,0.0,0.0,0.0,-0.7363,-0.8292,-0.9048,-0.9188,-0.9687,-1.0135,-1.0272,-1.1004,0.0,-1.258,-1.3292,-1.3941,-1.441,-1.4499,-1.4625,-1.5047,-1.4726,-1.4634,-1.5056,-1.4717,-1.4499,-1.4499,-1.4617,-1.4784,-1.497,-1.5509,-1.5882,-1.6085,-1.6484,-1.6687,-1.6687,-1.6561,-1.658,-1.676,-1.6637,-1.7087,-1.7974,-1.7974,-1.7974,-1.7974,-1.7974,-1.7974,-1.7974,-1.7974,-1.7974,-1.7974,-1.7974,-1.8008,-1.8008,-1.8008,-1.8008,-1.8008,-1.8008,-1.8008,-1.8008,-1.8008,-1.8008,-1.8008,-1.8008,-1.8008,-1.8008,-1.8008,-1.8008,-1.8008,-1.8008,-1.7705,-1.7393,-1.7383,-1.6845,-1.6407,-1.6738,-1.6896,-1.7251,-1.8124,-1.867,-1.9172,-1.9695,-1.9798,-1.9798,-1.9798,-1.9798,-1.9798,-1.9798,-1.9798,-1.9798,-1.9798,-1.9798,-1.9798,-1.9798,-1.9798,-1.9862,-1.999,-2.0258,-2.0635,-2.1175,-2.1534,-2.1805,-2.2105,-2.2512,-2.2822,-2.3105,-2.3436,-2.3595,-2.3595,-2.3595,-2.3595,-0.5321,-0.5435,0.0,-0.6414,0.0,0.0,0.0,-0.866,0.0,0.0,-1.0326,-1.0387,-1.02,0.0,0.0,-1.1665,-1.2282,-1.2917,-1.3373,-1.3433,0.0,-1.3626,-1.351,-1.3484,-1.3595,-1.3501,-1.3433,-1.3433,-1.3713,-1.4013,-1.443,-1.4827,-1.5191,-1.5605,-1.5732,-1.5801,-1.5801,-1.5838,-1.5839,-1.5747,-1.5806,-1.6326,-1.722,-1.722,-1.722,-1.722,-1.722,-1.722,-1.722,-1.722,-1.7314,-1.7451,-1.7598,-1.7701,-1.7818,-1.794,-1.8008,-1.8008,-1.8008,-1.8008,-1.8008,-1.8008,-1.8008,-1.8008,-1.8008,-1.8008,-1.8008,-1.8008,-1.8008,-1.8008,-1.8008,-1.792,-1.7744,-1.7484,-1.722,-1.6912,-1.6415,-1.6685,-1.7151,-1.77,-1.8282,-1.896,-1.9682,-1.9798,-1.9798,-1.9798,-1.9798,-1.9798,-1.9798,-1.9798,-1.9798,-1.9798,-1.9798,-1.9798,-1.9798,-1.9798,-1.9837,-1.9862,-1.9939,-2.0258,-2.0894,-2.1286,-2.1708,-2.217,-2.2526,-2.2889,-2.3253,-2.348,-2.3595,-2.3595,-2.3595,-2.3595,-0.5534,-0.5694,0.0,-0.678,-0.7108,-0.7495,-0.8663,0.0,0.0,0.0,-1.0593,-1.0539,-1.0327,-1.0653,0.0,-1.1275,-1.1714,-1.2158,-1.2558,-1.2589,0.0,-1.2589,-1.2589,-1.2589,-1.2589,-1.2589,-1.2589,-1.2589,-1.2895,-1.3321,-1.3825,-1.4172,-1.4567,-1.503,-1.503,-1.503,-1.503,-1.4937,-1.4821,-1.469,-1.46,-1.4849,-1.5437,-1.5974,-1.6219,-1.6219,-1.6219,-1.6219,-1.6219,-1.6219,-1.635,-1.6629,-1.6985,-1.7304,-1.7545,-1.7862,-1.8008,-1.8008,-1.8008,-1.8008,-1.8008,-1.8008,-1.8008,-1.8008,-1.8008,-1.8008,-1.8008,-1.8008,-1.8008,-1.8008,-1.8008,-1.8008,-1.7949,-1.7695,-1.75,-1.7269,-1.6731,-1.6971,-1.7471,-1.8083,-1.8729,-1.9475,-2.033,-2.0288,-2.015,-2.015,-1.9949,-1.9798,-1.9798,-1.9798,-1.9798,-1.9798,-1.9798,-1.9798,-1.9798,-1.9798,-1.9798,-1.9798,-1.9798,-2.0029,-2.0535,-2.0932,-2.141,-2.1949,-2.2457,-2.2867,-2.3216,-2.348,-2.3595,-2.3595,-2.3595,-2.3595,-0.5561,0.0,0.0,-0.6853,-0.7348,0.0,-0.9394,-0.9715,-0.9883,-1.0472,0.0,-1.0593,-1.0593,-1.0713,-1.087,-1.1185,-1.1404,-1.1591,-1.1833,-1.1856,-1.1856,-1.1856,-1.1856,-1.1856,-1.1856,-1.1856,-1.1856,-1.1856,-1.2174,-1.2605,-1.3147,-1.3489,-1.3881,-1.435,-1.435,-1.435,-1.435,-1.3911,-1.3677,-1.3665,-1.318,-1.2983,-1.3073,-1.4394,-1.5018,-1.5051,-1.5084,-1.5092,-1.5092,-1.5092,-1.5313,-1.571,-1.6289,-1.6793,-1.7235,-1.7803,-1.8008,-1.8008,-1.8008,-1.8008,-1.8008,-1.8008,-1.8008,-1.8008,-1.8008,-1.8008,-1.8008,-1.8008,-1.8008,-1.8008,-1.8008,-1.8008,-1.8008,-1.8008,-1.7715,-1.7432,-1.7425,-1.7595,-1.8038,-1.8944,-1.9649,-2.0401,-2.1353,-2.1094,-2.0754,-2.0704,-2.0201,-1.9798,-1.9798,-1.9798,-1.9798,-1.9798,-1.9798,-1.9798,-1.9798,-1.9798,-1.9798,-1.9798,-1.9798,-1.9914,-2.0182,-2.0585,-2.1055,-2.1616,-2.2328,-2.2844,-2.3127,-2.3443,-2.3595,-2.3595,-2.3595,-2.3595,-0.5796,-0.6095,0.0,0.0,-0.8105,-0.8724,-0.9534,-0.9715,-0.9883,-1.0472,-1.0593,-1.0593,-1.0593,-1.0624,-1.0688,-1.0744,-1.0776,-1.0839,-1.0902,-1.0902,-1.0902,-1.0902,-1.0902,-1.0902,-1.0902,-1.0902,-1.0902,-1.0902,-1.1216,-1.1608,-1.2112,-1.2451,-1.2856,-1.3312,-1.3312,-1.3312,-1.3312,-1.2978,-1.2687,-1.2548,-1.2176,-1.1933,-1.184,-1.3059,-1.3744,-1.3941,-1.4221,-1.4338,-1.4338,-1.4338,-1.4617,-1.5144,-1.5834,-1.6481,-1.7038,-1.7735,-1.8008,-1.8008,-1.8008,-1.8008,-1.8008,-1.8008,-1.8008,-1.8008,-1.8008,-1.8008,-1.8008,-1.8008,-1.8008,-1.8008,-1.8008,-1.8008,-1.8008,-1.8008,-1.7939,-1.7783,-1.7461,-1.7857,-1.8428,-1.898,-1.9649,-2.0401,-2.1353,-2.1393,-2.1194,-2.0754,-2.0201,-1.9798,-1.9798,-1.9798,-1.9798,-1.9798,-1.9798,-1.9798,-1.9798,-1.9798,-1.9798,-1.9798,-1.9798,-1.9914,-2.0182,-2.0585,-2.1104,-2.1746,-2.2388,-2.2889,-2.3275,-2.3501,-2.3595,-2.3595,-2.3595,-2.3595,-0.5682,0.0,0.0,-0.7612,0.0,-0.9064,-0.9399,-0.9686,-0.998,-1.0318,-1.0492,-1.0593,-1.0593,-1.0593,-1.0593,-1.0593,-1.0593,-1.0593,-1.0593,-1.0593,-1.0593,-1.0593,-1.0593,-1.0593,-1.0593,-1.0593,-1.0593,-1.0593,-1.0807,-1.1115,-1.1538,-1.1818,-1.2128,-1.2497,-1.2528,-1.2528,-1.2528,-1.222,-1.1963,-1.178,-1.1443,-1.118,-1.1055,-1.1937,-1.2395,-1.256,-1.2726,-1.2884,-1.3064,-1.3064,-1.351,-1.4302,-1.5242,-1.6018,-1.6751,-1.7657,-1.8008,-1.8008,-1.8008,-1.8008,-1.8008,-1.8008,-1.8008,-1.7969,-1.7773,-1.7852,-1.7969,-1.7764,-1.7852,-1.8008,-1.8008,-1.8008,-1.8008,-1.8008,-1.8008,-1.7949,-1.7734,-1.824,-1.8943,-1.9687,-2.035,-2.1129,-2.2097,-2.2058,-2.1694,-2.1169,-2.0652,-2.0324,-2.0324,-2.0024,-1.9798,-1.9798,-2.0125,-2.0174,-1.9836,-2.0049,-2.01,-1.9823,-1.9798,-1.9888,-2.0105,-2.0422,-2.0957,-2.1688,-2.2365,-2.2867,-2.3194,-2.3465,-2.3595,-2.3595,-2.3595,-2.3774,-0.5397,0.0,-0.6586,-0.7639,-0.8492,0.0,-0.9191,-0.9584,-0.9963,-1.0094,-1.0385,-1.0593,-1.0593,-1.0593,-1.0593,-1.0593,-1.0593,-1.0593,-1.0593,-1.0593,-1.0593,-1.0593,-1.0593,-1.0593,-1.0593,-1.0593,-1.0593,-1.0593,-1.0713,-1.0902,-1.1146,-1.1341,-1.1529,-1.174,-1.1771,-1.1771,-1.1771,-1.1529,-1.1341,-1.1178,-1.0902,-1.0713,-1.0613,-1.1056,-1.1303,-1.1322,-1.1369,-1.1563,-1.1832,-1.1886,-1.2484,-1.3484,-1.4657,-1.5525,-1.6315,-1.7407,-1.7837,-1.7872,-1.7906,-1.794,-1.794,-1.7974,-1.8008,-1.7949,-1.7598,-1.7734,-1.7939,-1.7588,-1.7744,-1.8008,-1.8008,-1.8008,-1.8008,-1.8008,-1.8008,-1.8008,-1.8008,-1.8573,-1.9386,-2.0398,-2.129,-2.2125,-2.2944,-2.2631,-2.2108,-2.1644,-2.124,-2.1014,-2.1014,-2.0287,-1.9798,-1.9798,-2.0337,-2.0537,-2.0125,-2.0377,-2.0402,-2.0024,-1.9974,-2.0051,-2.0243,-2.0463,-2.0936,-2.1722,-2.2437,-2.2936,-2.3236,-2.3718,-2.3954,-2.3954,-2.3954,-2.4253,-0.5112,0.0,-0.7046,0.0,-0.8216,-0.8624,0.0,0.0,-0.9477,0.0,-1.0385,-1.0593,-1.0593,-1.0593,-1.0593,-1.0593,-1.0593,-1.0593,-1.0593,-1.0593,-1.0593,-1.0593,-1.0593,-1.0593,-1.0593,-1.0593,-1.0593,-1.0593,-1.0624,-1.0656,-1.0688,-1.0719,-1.0751,-1.0776,-1.0776,-1.0776,-1.0776,-1.0751,-1.0719,-1.0688,-1.0656,-1.0624,-1.0593,-1.0673,-1.0847,-1.1062,-1.1282,-1.1415,-1.1503,-1.1799,-1.2289,-1.2998,-1.4213,-1.5046,-1.5709,-1.6691,-1.7141,-1.7348,-1.7495,-1.7623,-1.7784,-1.794,-1.8008,-1.7998,-1.7939,-1.7969,-1.7998,-1.7939,-1.7969,-1.8008,-1.8008,-1.8008,-1.8008,-1.8008,-1.8008,-1.8008,-1.8008,-1.8573,-1.9386,-2.0398,-2.1834,-2.2944,-2.3078,-2.2518,-2.2029,-2.1942,-2.1644,-2.1418,-2.1418,-2.0476,-1.9798,-1.9798,-1.9899,-2.0313,-2.1192,-2.0439,-2.0162,-2.0725,-2.0639,-2.0792,-2.1282,-2.1322,-2.1639,-2.2286,-2.2915,-2.3412,-2.3807,-2.483,-2.533,-2.533,-2.533,-2.5367,-0.5253,-0.6234,-0.7106,0.0,-0.8047,-0.8469,-0.8697,0.0,-0.9284,-0.9544,-0.9987,-1.0399,-1.0566,-1.0593,-1.0593,-1.0593,-1.0593,-1.0593,-1.0593,-1.0593,-1.0593,-1.0593,-1.0593,-1.0593,-1.0593,-1.0593,-1.0593,-1.0593,-1.0593,-1.0593,-1.0593,-1.0593,-1.0593,-1.0593,-1.0593,-1.0593,-1.0593,-1.0593,-1.0593,-1.0593,-1.0593,-1.0593,-1.0593,-1.0593,-1.066,-1.0787,-1.0882,-1.1035,-1.1196,-1.1323,-1.1785,-1.2442,-1.332,-1.3926,-1.4406,-1.5154,-1.5733,-1.6201,-1.6566,-1.703,-1.7476,-1.7872,-1.8008,-1.7969,-1.7734,-1.7822,-1.7959,-1.7725,-1.7832,-1.8008,-1.8008,-1.8008,-1.8008,-1.8008,-1.8008,-1.8008,-1.8008,-1.8472,-1.933,-2.0634,-2.1951,-2.2909,-2.2969,-2.2785,-2.2631,-2.2631,-2.2481,-2.241,-2.241,-2.1954,-2.1164,-1.9936,-2.0916,-2.1841,-2.2343,-2.1929,-2.1428,-2.0924,-2.1066,-2.1257,-2.1481,-2.1493,-2.1786,-2.2388,-2.3096,-2.3703,-2.4172,-2.5136,-2.5615,-2.5615,-2.5615,-2.5809,-0.5201,-0.6001,-0.6707,-0.7243,-0.7718,-0.8114,0.0,0.0,-0.9038,0.0,-0.9557,-0.9987,-1.0311,-1.0492,-1.0593,-1.0593,-1.0593,-1.0593,-1.0593,-1.0593,-1.0593,-1.0593,-1.0593,-1.0593,-1.0593,-1.0593,-1.0593,-1.0593,-1.0593,-1.0593,-1.0593,-1.0593,-1.0593,-1.0593,-1.0593,-1.0593,-1.0593,-1.0593,-1.0593,-1.0593,-1.0593,-1.0593,-1.0593,-1.0593,-1.0593,-1.0593,-1.0593,-1.0713,-1.0889,-1.0962,-1.1322,-1.1871,-1.2516,-1.2934,-1.3253,-1.3826,-1.4405,-1.4993,-1.5601,-1.6256,-1.6899,-1.7526,-1.7769,-1.7745,-1.7503,-1.7663,-1.7872,-1.7627,-1.7773,-1.8008,-1.8008,-1.8008,-1.8008,-1.8008,-1.8008,-1.8008,-1.811,-1.8539,-1.932,-2.0645,-2.1702,-2.2439,-2.2653,-2.2927,-2.3108,-2.3108,-2.3108,-2.3108,-2.3108,-2.3108,-2.2468,-2.0801,-2.2117,-2.3108,-2.3108,-2.3108,-2.2644,-2.154,-2.1619,-2.1757,-2.1895,-2.1907,-2.2191,-2.282,-2.3635,-2.4235,-2.4669,-2.5619,-2.6108,-2.6108,-2.6108,-2.6378,-0.4688,-0.5102,-0.5655,-0.6747,-0.7046,0.0,0.0,0.0,0.0,-0.9098,-0.9237,-0.9351,-0.9673,-1.0211,-1.0593,-1.0593,-1.0593,-1.0593,-1.0593,-1.0593,-1.0593,-1.0593,-1.0593,-1.0593,-1.0593,-1.0593,-1.0593,-1.0593,-1.0593,-1.0593,-1.0593,-1.0593,-1.0593,-1.0593,-1.0593,-1.0593,-1.0593,-1.0593,-1.0593,-1.0593,-1.0593,-1.0593,-1.0593,-1.0593,-1.0593,-1.0593,-1.0593,-1.06,-1.0633,-1.0914,-1.1134,-1.1412,-1.2073,-1.2451,-1.2699,-1.3117,-1.3492,-1.3907,-1.4748,-1.5342,-1.5811,-1.6677,-1.7107,-1.727,-1.7442,-1.7613,-1.774,-1.791,-1.7988,-1.8008,-1.8008,-1.8008,-1.8008,-1.8008,-1.8008,-1.8076,-1.8414,-1.8888,-1.9497,-2.0291,-2.0974,-2.1604,-2.207,-2.2689,-2.3108,-2.3108,-2.3108,-2.3108,-2.3108,-2.3108,-2.3058,-2.2945,-2.3032,-2.3108,-2.3108,-2.3108,-2.307,-2.2995,-2.2518,-2.2498,-2.2995,-2.302,-2.3335,-2.4011,-2.4869,-2.5323,-2.5363,-2.679,-2.7495,-2.7495,-2.7495,-2.751,-0.4449,-0.4762,0.0,-0.5961,-0.6326,-0.6667,-0.7348,-0.7809,-0.8203,-0.8604,-0.8951,-0.9244,-0.9351,-0.9726,-1.009,-1.0247,-1.0274,-1.0341,-1.0566,-1.0593,-1.0593,-1.0593,-1.0593,-1.0593,-1.0593,-1.0593,-1.0593,-1.0593,-1.0593,-1.0593,-1.0593,-1.0593,-1.0593,-1.0593,-1.0593,-1.0593,-1.0593,-1.0593,-1.0593,-1.0593,-1.0593,-1.0593,-1.0593,-1.0593,-1.0593,-1.0593,-1.0593,-1.0593,-1.06,-1.0707,-1.0779,-1.0857,-1.1127,-1.1258,-1.1316,-1.1485,-1.1866,-1.2449,-1.3115,-1.3846,-1.4625,-1.5266,-1.5826,-1.6315,-1.6786,-1.7132,-1.7476,-1.7872,-1.8008,-1.8008,-1.8008,-1.8008,-1.8008,-1.8008,-1.8008,-1.8042,-1.8144,-1.8607,-1.9164,-1.9758,-2.0528,-2.1219,-2.1659,-2.2506,-2.3108,-2.3108,-2.3108,-2.3108,-2.3108,-2.3108,-2.3108,-2.3108,-2.3108,-2.3108,-2.3108,-2.3108,-2.3108,-2.3108,-2.292,-2.2895,-2.3095,-2.3108,-2.3378,-2.3953,-2.4696,-2.5384,-2.5981,-2.7085,-2.76,-2.76,-2.76,-2.76,-0.4194,-0.4402,0.0,0.0,0.0,-0.6057,-0.672,0.0,-0.7746,-0.8295,-0.8684,-0.8951,-0.9051,-0.9252,-0.9519,-0.9907,-0.9973,-1.004,-1.0271,-1.0298,-1.0298,-1.0298,-1.0298,-1.0298,-1.0298,-1.0298,-1.0298,-1.0298,-1.0298,0.0,-1.0298,-1.0298,-1.0345,-1.0439,-1.0445,-1.0492,-1.0593,-1.0593,-1.0593,-1.0593,-1.0593,-1.0593,-1.0593,-1.0593,-1.0593,-1.0593,-1.0593,-1.0593,-1.0593,-1.0593,-1.0593,-1.0593,-1.0593,-1.0593,-1.0593,-1.0593,-1.0905,-1.1413,-1.2024,-1.2772,-1.3557,-1.414,-1.4839,-1.5534,-1.6202,-1.6742,-1.7245,-1.7837,-1.8008,-1.8008,-1.8008,-1.8008,-1.8008,-1.8008,-1.8008,-1.8008,-1.8008,-1.8279,-1.8674,-1.9142,-1.9671,-2.0313,-2.104,-2.2087,-2.2744,-2.2628,-2.2884,-2.3108,-2.3108,-2.3108,-2.3108,-2.3108,-2.3108,-2.3108,-2.3108,-2.3108,-2.3108,-2.3108,-2.3108,-2.3108,-2.3108,-2.3108,-2.3318,-2.3789,-2.4394,-2.5106,-2.5933,-2.6956,-2.7499,-2.7524,-2.7575,-2.76,0.0,0.0,0.0,0.0,0.0,0.0,-0.6372,0.0,-0.7261,-0.8174,-0.8375,-0.8476,-0.8744,-0.8791,-0.8985,-0.9566,-0.9695,-0.9702,-0.9715,-0.9715,-0.9715,-0.9715,-0.9715,-0.9715,-0.9715,-0.9715,-0.9715,-0.9715,-0.9715,-0.9715,-0.9715,-0.9715,-0.9813,-1.0094,-1.0114,-1.0254,-1.0579,-1.0586,-1.0593,-1.0593,-1.0593,-1.0593,-1.0593,-1.0593,-1.0593,-1.0593,-1.0593,-1.0593,-1.0593,-1.0593,-1.0593,-1.0593,-1.0593,-1.0593,-1.0593,-1.0593,-1.0681,-1.0911,-1.1607,-1.2174,-1.2686,-1.3328,-1.4147,-1.5002,-1.5763,-1.642,-1.7047,-1.7803,-1.8008,-1.8008,-1.8008,-1.8008,-1.8008,-1.8008,-1.8008,-1.8008,-1.8008,-1.8008,-1.811,-1.8414,-1.8458,-1.8852,-2.0194,-2.1391,-2.2049,-2.169,-2.2476,-2.3108,-2.3108,-2.3108,-2.3108,-2.3108,-2.3108,-2.3108,-2.3108,-2.3108,-2.3108,-2.3108,-2.3108,-2.3108,-2.3108,-2.3108,-2.3258,-2.3599,-2.4044,-2.4567,-2.5175,-2.6537,-2.7258,-2.7401,-2.7524,-2.76,-0.4214,0.0,0.0,0.0,0.0,0.0,0.0,0.0,0.0,-0.7301,-0.7726,-0.8143,-0.8462,-0.8516,-0.8617,-0.8991,-0.9225,-0.9411,-0.9653,-0.9715,-0.9715,-0.9715,-0.9715,-0.9715,-0.9715,-0.9715,-0.9715,0.0,-0.9715,-0.9715,-0.9715,-0.9715,-0.9719,-0.98,-1.0007,-1.0123,-1.0241,-1.0486,-1.0593,-1.0593,-1.0593,-1.0593,-1.0593,-1.0593,-1.0593,-1.0593,-1.0593,-1.0593,-1.0593,-1.0593,-1.0593,-1.0593,-1.0593,-1.0593,-1.0593,-1.0593,-1.0624,-1.0663,-1.0903,-1.1305,-1.1751,-1.1964,-1.2847,-1.4093,-1.51,-1.5913,-1.6664,-1.7725,-1.8008,-1.8008,-1.8008,-1.8008,-1.8008,-1.8008,-1.8008,-1.8008,-1.8008,-1.8008,-1.8076,-1.8303,-1.8549,-1.8785,-1.9008,-2.0194,-2.1474,-2.2537,-2.2914,-2.3108,-2.3108,-2.3108,-2.3108,-2.3108,-2.3108,-2.3108,-2.3108,-2.3108,-2.3108,-2.3108,-2.3108,-2.3108,-2.3108,-2.3108,-2.3198,-2.3463,-2.3767,-2.425,-2.4907,-2.6109,-2.68,-2.706,-2.7433,-2.76,-0.4355,-0.4282,0.0,0.0,0.0,0.0,-0.5193,-0.5789,0.0,0.0,-0.7286,-0.7659,-0.811,-0.819,-0.8243,-0.8385,-0.8558,-0.8811,-0.9259,-0.9319,-0.9319,-0.9319,-0.9319,-0.9319,-0.9319,-0.9319,-0.9319,-0.9319,-0.9319,-0.9319,-0.9319,-0.9319,-0.9372,-0.9492,-0.963,-0.9837,-1.0114,-1.0287,-1.0472,-1.0593,-1.0593,-1.0593,-1.0593,-1.0593,-1.0593,-1.0593,-1.0593,-1.0593,-1.0593,-1.0593,-1.0593,-1.0593,-1.0593,-1.0593,-1.0593,-1.0593,-1.0593,-1.0593,-1.0593,-1.0942,-1.1389,-1.1389,-1.229,-1.3557,-1.4637,-1.549,-1.6315,-1.7451,-1.7906,-1.8008,-1.8008,-1.8008,-1.8008,-1.8008,-1.8008,-1.8008,-1.8008,-1.8008,-1.8042,-1.8144,-1.8337,-1.8472,-1.8573,-1.9131,-2.0074,-2.1608,-2.2334,-2.2805,-2.3078,-2.3108,-2.3108,-2.3108,-2.3108,-2.3108,-2.3108,-2.3108,-2.3108,-2.3108,-2.3108,-2.3208,-2.3459,-2.3471,-2.3646,-2.3977,-2.3938,-2.4266,-2.5048,-2.5906,-2.6628,-2.7199,-2.7458,-2.76,-0.4589,-0.4576,0.0,-0.4509,-0.4682,0.0,-0.5193,-0.5484,-0.5914,0.0,0.0,-0.708,-0.7652,-0.7759,-0.7772,-0.7799,-0.7832,-0.8059,-0.8677,-0.8758,-0.8771,-0.8804,-0.8804,-0.8804,-0.8804,-0.8804,-0.8804,-0.8804,-0.8804,-0.8804,-0.8804,-0.8804,-0.8898,-0.9158,-0.9191,-0.9464,-0.9983,-1.0087,-1.0247,-1.0546,-1.0579,-1.0593,-1.0593,-1.0593,-1.0593,-1.0593,-1.0593,-1.0593,-1.0593,-1.0593,-1.0593,-1.0593,-1.0593,-1.0593,-1.0593,-1.0593,-1.0593,-1.0593,-1.0593,-1.0942,-1.1389,-1.1389,-1.222,-1.3339,-1.4214,-1.5073,-1.5939,-1.7151,-1.7701,-1.8008,-1.8008,-1.8008,-1.8008,-1.8008,-1.8008,-1.8008,-1.8008,-1.8008,-1.8008,-1.8008,-1.8008,-1.8144,-1.8553,-1.8269,-1.8414,-1.9681,-2.1074,-2.2235,-2.3017,-2.3108,-2.3108,-2.3108,-2.3108,-2.3108,-2.3108,-2.3108,-2.3108,-2.3108,-2.3108,-2.3333,-2.3879,-2.3966,-2.4205,-2.46,-2.4186,-2.4433,-2.5342,-2.5864,-2.6628,-2.76,-2.76,-2.76,-0.5769,-0.5655,-0.5397,-0.5179,-0.5166,0.0,-0.4948,-0.5315,-0.5741,0.0,-0.6159,-0.6452,-0.6787,-0.6847,-0.6927,-0.714,-0.7402,-0.7792,-0.8402,-0.8482,-0.8569,-0.8778,-0.8804,-0.8804,-0.8804,-0.8804,-0.8804,-0.8804,-0.8804,-0.8804,-0.8804,-0.8804,-0.8831,-0.8865,-0.9091,-0.9264,-0.9384,-0.985,-1.0117,-1.0207,-1.0479,-1.0593,-1.0593,-1.0593,-1.0593,-1.0593,-1.0593,-1.0593,-1.0593,-1.0593,-1.0593,-1.0593,-1.0593,-1.0593,-1.0593,-1.0593,-1.0593,-1.0593,-1.0593,-1.0942,-1.1389,-1.1389,-1.2107,-1.3076,-1.368,-1.443,-1.5365,-1.6855,-1.7632,-1.8008,-1.8008,-1.8008,-1.8008,-1.8008,-1.8008,-1.8008,-1.8008,-1.8008,-1.8008,-1.8008,-1.8008,-1.8042,-1.81,-1.8076,-1.8076,-1.8381,-1.9605,-2.1146,-2.2884,-2.3108,-2.3108,-2.3108,-2.3108,-2.3108,-2.3108,-2.3108,-2.3108,-2.3108,-2.3108,-2.3158,-2.3271,-2.3753,-2.3828,-2.3446,-2.3739,-2.4278,-2.4994,-2.5864,-2.6707,-2.76,-2.76,-2.76,-0.6156,-0.6088,-0.5883,-0.5571,0.0,0.0,0.0,-0.5284,-0.5538,-0.5668,-0.5803,-0.5978,-0.6206,0.0,-0.622,-0.629,-0.6505,-0.6867,-0.7501,-0.7915,-0.821,-0.8332,-0.8345,-0.843,-0.8577,-0.8591,-0.8651,-0.8798,-0.8804,-0.8804,-0.8804,-0.8804,-0.8804,-0.8804,-0.8918,-0.9064,-0.9211,-0.9504,-0.9724,-0.9907,-1.0084,-1.0231,-1.0341,-1.0341,-1.0452,-1.0593,-1.0593,-1.0593,-1.0593,-1.0593,-1.0593,-1.0593,-1.0593,-1.0593,-1.0593,-1.0593,-1.0593,-1.0593,-1.0593,-1.0942,-1.1389,-1.1389,-1.2001,-1.2856,-1.3324,-1.4258,-1.5428,-1.6455,-1.7235,-1.7769,-1.7828,-1.794,-1.8008,-1.8008,-1.8008,-1.8008,-1.8008,-1.8008,-1.8008,-1.8008,-1.8008,-1.8008,-1.8008,-1.8008,-1.8008,-1.8008,-1.9218,-2.0828,-2.2823,-2.3108,-2.3108,-2.3108,-2.3108,-2.3108,-2.3108,-2.3108,-2.3108,-2.3108,-2.3108,-2.3233,-2.3552,-2.3841,-2.3866,-2.3547,-2.393,-2.4301,-2.4597,-2.5203,-2.6081,-2.7152,-2.7244,-2.7325,-0.6539,-0.6492,-0.6364,-0.5972,0.0,-0.5705,0.0,0.0,0.0,-0.5648,-0.5661,0.0,0.0,0.0,0.0,0.0,0.0,0.0,0.0,-0.7074,0.0,-0.7855,-0.7905,-0.8005,-0.827,-0.8315,-0.8383,-0.8624,-0.8691,-0.8724,-0.8724,-0.8778,-0.8804,-0.8804,-0.8804,-0.8891,-0.9124,-0.9184,-0.9331,-0.9599,-0.9659,-0.9806,-1.0033,-1.0094,-1.0247,-1.0512,-1.0566,-1.0593,-1.0593,-1.0593,-1.0593,-1.0593,-1.0593,-1.0593,-1.0593,-1.0593,-1.0593,-1.0593,-1.0593,-1.0942,-1.1389,-1.1389,-1.193,-1.2636,-1.301,-1.4078,-1.5286,-1.5842,-1.6673,-1.7382,-1.7579,-1.7794,-1.8008,-1.8008,-1.8008,-1.8008,-1.8008,-1.8008,-1.8008,-1.8008,-1.8008,-1.8008,-1.8008,-1.8008,-1.8008,-1.8008,-1.9218,-2.0828,-2.2823,-2.3108,-2.3108,-2.3108,-2.3108,-2.3108,-2.3108,-2.3108,-2.3108,-2.3108,-2.3108,-2.3308,-2.3816,-2.3841,-2.3891,-2.4004,-2.4126,-2.4215,-2.4192,-2.4452,-2.5231,-2.6457,-2.6671,-2.687,0.0,0.0,0.0,0.0,-0.6318,0.0,0.0,0.0,-0.5654,-0.5688,0.0,0.0,0.0,0.0,0.0,0.0,0.0,0.0,-0.5252,-0.5714,-0.6497,-0.7756,-0.7905,-0.7919,-0.7952,-0.7959,-0.7972,-0.8005,-0.8277,-0.8449,-0.8449,-0.8664,-0.8804,-0.8804,-0.8804,-0.8824,-0.8858,-0.9084,-0.9231,-0.9264,-0.9559,-0.9699,-0.974,-1.0,-1.0134,-1.018,-1.0479,-1.0593,-1.0593,-1.0593,-1.0593,-1.0593,-1.0593,-1.0593,-1.0593,-1.0593,-1.0593,-1.0593,-1.0593,-1.0942,-1.1389,-1.1389,-1.1824,-1.2415,-1.2826,-1.339,-1.407,-1.4824,-1.5842,-1.6784,-1.7157,-1.7623,-1.8008,-1.8008,-1.8008,-1.8008,-1.8008,-1.8008,-1.8008,-1.8008,-1.8008,-1.8008,-1.8008,-1.8008,-1.8008,-1.8008,-1.9218,-2.0828,-2.2823,-2.3108,-2.3108,-2.3108,-2.3108,-2.3108,-2.3108,-2.3108,-2.3108,-2.3108,-2.3108,-2.3133,-2.3195,-2.3195,-2.3446,-2.3991,-2.3685,-2.362,-2.3859,-2.4089,-2.4652,-2.5563,-2.5809,-2.6181,0.0,0.0,0.0,0.0,0.0,0.0,-0.5434,0.0,-0.5581,0.0,0.0,0.0,0.0,0.0,0.0,0.0,-0.4091,0.0,0.0,0.0,-0.5776,0.0,0.0,0.0,-0.7366,-0.7562,-0.7662,-0.7662,-0.7799,-0.8027,-0.8382,-0.8516,-0.8637,-0.8804,-0.8804,-0.8804,-0.8804,-0.8898,-0.8958,-0.8964,-0.9118,-0.9265,-0.9404,-0.9524,-0.9764,-1.0127,-1.0247,-1.0432,-1.0593,-1.0593,-1.0593,-1.0593,-1.0593,-1.0593,-1.0593,-1.0593,-1.0593,-1.0593,-1.0593,-1.0861,-1.1229,-1.157,-1.1964,-1.2342,-1.2636,-1.3039,-1.3579,-1.4338,-1.5384,-1.6358,-1.689,-1.752,-1.8008,-1.8008,-1.8008,-1.8008,-1.8008,-1.8008,-1.8008,-1.8008,-1.8008,-1.8008,-1.8008,-1.8008,-1.8008,-1.8008,-1.8875,-2.0118,-2.1765,-2.2347,-2.2714,-2.3078,-2.3108,-2.3108,-2.3108,-2.3108,-2.3108,-2.3108,-2.3108,-2.3108,-2.3108,-2.3108,-2.3221,-2.3459,-2.3294,-2.3288,-2.3382,-2.3484,-2.3708,-2.4092,-2.5021,-2.574,-0.7567,0.0,0.0,0.0,0.0,0.0,0.0,0.0,0.0,0.0,0.0,0.0,0.0,0.0,0.0,0.0,0.0,-0.3912,0.0,0.0,0.0,0.0,0.0,0.0,0.0,-0.6918,-0.7098,-0.7221,-0.7301,-0.7598,-0.812,-0.8308,-0.8496,-0.8684,-0.8764,-0.8804,-0.8804,-0.8804,-0.8804,-0.8804,-0.8804,-0.8891,-0.9098,-0.9178,-0.9444,-0.9857,-1.0017,-1.0241,-1.0479,-1.0559,-1.0593,-1.0593,-1.0593,-1.0593,-1.0593,-1.0593,-1.0593,-1.0593,-1.0593,-1.0787,-1.1089,-1.1712,-1.2011,-1.2234,-1.2462,-1.2709,-1.3119,-1.3876,-1.4895,-1.5939,-1.6568,-1.7348,-1.8008,-1.8008,-1.8008,-1.8008,-1.8008,-1.8008,-1.8008,-1.8008,-1.8008,-1.8008,-1.8008,-1.8008,-1.8008,-1.8008,-1.8472,-1.9164,-2.0172,-2.1094,-2.2006,-2.2987,-2.3108,-2.3108,-2.3108,-2.3108,-2.3108,-2.3108,-2.3108,-2.3108,-2.3108,-2.3108,-2.3108,-2.3108,-2.3108,-2.3108,-2.3108,-2.3108,-2.3108,-2.3138,-2.4337,-2.5259,0.0,0.0,0.0,-0.7032,0.0,0.0,0.0,0.0,-0.5764,0.0,0.0,0.0,0.0,0.0,0.0,0.0,0.0,0.0,0.0,0.0,0.0,0.0,0.0,0.0,0.0,-0.5907,-0.6111,0.0,-0.6825,-0.7168,-0.7504,-0.808,-0.8402,-0.8415,-0.8657,-0.8804,-0.8804,-0.8804,-0.8804,-0.8804,-0.8804,-0.8811,-0.8831,-0.9084,-0.9224,-0.9271,-0.9837,-1.012,-1.0154,-1.0472,-1.0593,-1.0593,-1.0593,-1.0593,-1.0593,-1.0593,-1.0593,-1.0593,-1.0593,-1.0787,-1.1089,-1.1712,-1.1913,-1.1973,-1.2218,-1.2335,-1.2489,-1.3309,-1.4366,-1.5376,-1.6123,-1.7157,-1.8008,-1.8008,-1.8008,-1.8008,-1.8008,-1.8008,-1.8008,-1.8008,-1.8008,-1.8008,-1.8008,-1.8008,-1.8008,-1.8008,-1.8008,-1.8042,-1.811,-1.9308,-2.0924,-2.2884,-2.3108,-2.3108,-2.3108,-2.3108,-2.3108,-2.3108,-2.3108,-2.3108,-2.3108,-2.3108,-2.3108,-2.3108,-2.3108,-2.3108,-2.3108,-2.3108,-2.3108,-2.3138,-2.3809,-2.4595,0.0,0.0,-0.6985,-0.6838,0.0,0.0,0.0,0.0,0.0,0.0,0.0,0.0,0.0,0.0,0.0,0.0,0.0,0.0,0.0,0.0,0.0,0.0,0.0,0.0,0.0,0.0,0.0,0.0,-0.6297,0.0,-0.7473,-0.7685,-0.798,-0.8389,-0.8496,-0.8611,-0.8804,-0.8804,-0.8804,-0.8804,-0.8804,-0.8804,-0.8811,-0.8884,-0.9031,-0.9224,-0.9424,-0.973,-1.0127,-1.0221,-1.0412,-1.0593,-1.0593,-1.0593,-1.0593,-1.0593,-1.0593,-1.0593,-1.0593,-1.0875,-1.1309,-1.151,-1.1837,-1.2171,-1.2271,-1.2305,-1.2452,-1.3119,-1.4049,-1.4994,-1.5754,-1.6821,-1.7701,-1.7794,-1.7896,-1.8008,-1.8008,-1.8008,-1.8008,-1.8008,-1.8008,-1.8008,-1.8008,-1.8008,-1.8008,-1.8008,-1.8008,-1.8008,-1.8008,-2.0398,-2.2365,-2.3017,-2.3108,-2.3108,-2.3108,-2.3108,-2.3108,-2.3108,-2.3108,-2.3108,-2.3108,-2.3108,-2.3108,-2.3108,-2.3108,-2.3108,-2.3108,-2.3108,-2.3108,-2.3108,-2.3564,-2.4234,-0.6459,-0.6511,0.0,-0.6515,-0.627,0.0,-0.5513,0.0,-0.5234,0.0,0.0,0.0,0.0,0.0,0.0,0.0,0.0,0.0,0.0,-0.3702,0.0,0.0,0.0,0.0,0.0,0.0,-0.5139,-0.5522,-0.5891,0.0,0.0,-0.7189,-0.752,-0.8141,-0.8317,-0.8543,-0.8804,-0.8804,-0.8804,-0.8804,-0.8804,-0.8804,-0.8804,-0.8804,-0.8884,-0.9071,-0.9277,-0.9584,-0.998,-1.0187,-1.0419,-1.0593,-1.0593,-1.0593,-1.0593,-1.0593,-1.0593,-1.0606,-1.0713,-1.0962,-1.1309,-1.1516,-1.1837,-1.2171,-1.2271,-1.2305,-1.2415,-1.2936,-1.3688,-1.4466,-1.5259,-1.6324,-1.7235,-1.7476,-1.7759,-1.8008,-1.8008,-1.8008,-1.8008,-1.8008,-1.8008,-1.8008,-1.8008,-1.8008,-1.8008,-1.8008,-1.8008,-1.8076,-1.8371,-2.0751,-2.2549,-2.2939,-2.3047,-2.3108,-2.3108,-2.3108,-2.3108,-2.3108,-2.3108,-2.3108,-2.3108,-2.3108,-2.3108,-2.3108,-2.3108,-2.3108,-2.3108,-2.3108,-2.3108,-2.3108,-2.3399,-2.3878]}]]